[[{"header":{"parameterUnit":"m.s-1","parameterCategory":1,"la1":30.6,"la2":28.766,"lo1":-90.7593,"lo2":-88.6598,"dy":0.0162,"dx":0.0183,"nx":116,"ny":114,"refTime":"2024-05-29T12:00:00:Z","depth":0,"parameterNumber":2,"parameterNumberName":"U-component_of_WINDS"},"data":[0.0,0.0,0.0,0.0,0.0,0.0,0.0,0.0,0.0,0.0,0.0,0.0,0.0,0.0,0.0,0.0,0.0,0.0,0.0,0.0,0.0,0.0,0.0,0.0,0.0,0.0,0.0,0.0,0.0,0.0,0.0,0.0,0.0,0.0,0.0,0.0,0.0,0.0,0.0,0.0,0.0,0.0,0.0,0.0,0.0,0.0,0.0,0.0,0.0,0.0,0.0,0.0,0.0,0.0,0.0,0.0,0.0,0.0,0.0,0.0,0.0,0.0,0.0,0.0,0.0,0.0,0.0,0.0,0.0,0.0,0.0,0.0,0.0,0.0,0.0,0.0,0.0,0.0,0.0,0.0,0.0,0.0,0.0,0.0,0.0,0.0,0.0,0.0,0.0,0.0,0.0,0.0,0.0,0.0,0.0,0.0,0.0,0.0,0.0,0.0,0.0,0.0,0.0,0.0,0.0,0.0,0.0,0.0,0.0,0.0,0.0,0.0,0.0,0.0,0.0,0.0,0.0,0.0,0.0,0.0,0.0,0.0,0.0,0.0,0.0,0.0,0.0,0.0,0.0,0.0,0.0,0.0,0.0,0.0,0.0,0.0,0.0,0.0,0.0,0.0,0.0,0.0,0.0,0.0,0.0,0.0,0.0,0.0,0.0,0.0,0.0,0.0,0.0,0.0,0.0,0.0,0.0,0.0,0.0,0.0,0.0,0.0,0.0,0.0,0.0,0.0,0.0,0.0,0.0,0.0,0.0,0.0,0.0,0.0,0.0,0.0,0.0,0.0,0.0,0.0,0.0,0.0,0.0,0.0,0.0,0.0,0.0,0.0,0.0,0.0,0.0,0.0,0.0,0.0,0.0,0.0,0.0,0.0,0.0,0.0,0.0,0.0,0.0,0.0,0.0,0.0,0.0,0.0,0.0,0.0,0.0,0.0,0.0,0.0,0.0,0.0,0.0,0.0,0.0,0.0,0.0,0.0,0.0,0.0,0.0,0.0,0.0,0.0,0.0,0.0,0.0,0.0,0.0,0.0,0.0,0.0,0.0,0.0,0.0,0.0,0.0,0.0,0.0,0.0,0.0,0.0,0.0,0.0,0.0,0.0,0.0,0.0,0.0,0.0,0.0,0.0,0.0,0.0,0.0,0.0,0.0,0.0,0.0,0.0,0.0,0.0,0.0,0.0,0.0,0.0,0.0,0.0,0.0,0.0,0.0,0.0,0.0,0.0,0.0,0.0,0.0,0.0,0.0,0.0,0.0,0.0,0.0,0.0,0.0,0.0,0.0,0.0,0.0,0.0,0.0,0.0,0.0,0.0,0.0,0.0,0.0,0.0,0.0,0.0,0.0,0.0,0.0,0.0,0.0,0.0,0.0,0.0,0.0,0.0,0.0,0.0,0.0,0.0,0.0,0.0,0.0,0.0,0.0,0.0,0.0,0.0,0.0,0.0,0.0,0.0,0.0,0.0,0.0,0.0,0.0,0.0,0.0,0.0,0.0,0.0,0.0,0.0,0.0,0.0,0.0,0.0,0.0,0.0,0.0,0.0,0.0,0.0,0.0,0.0,0.0,0.0,0.0,0.0,0.0,0.0,0.0,0.0,0.0,0.0,0.0,0.0,0.0,0.0,0.0,0.0,0.0,0.0,0.0,0.0,0.0,0.0,0.0,0.0,0.0,0.0,0.0,0.0,0.0,0.0,0.0,0.0,0.0,0.0,0.0,0.0,0.0,0.0,0.0,0.0,0.0,0.0,0.0,0.0,0.0,0.0,0.0,0.0,0.0,0.0,0.0,0.0,0.0,0.0,0.0,0.0,0.0,0.0,0.0,0.0,0.0,0.0,0.0,0.0,0.0,0.0,0.0,0.0,0.0,0.0,0.0,0.0,0.0,0.0,0.0,0.0,0.0,0.0,0.0,0.0,0.0,0.0,0.0,0.0,0.0,0.0,0.0,0.0,0.0,0.0,0.0,0.0,0.0,0.0,0.0,0.0,0.0,0.0,0.0,0.0,0.0,0.0,0.0,0.0,0.0,0.0,0.0,0.0,0.0,0.0,0.0,0.0,0.0,0.0,0.0,0.0,0.0,0.0,0.0,0.0,0.0,0.0,0.0,0.0,0.0,0.0,0.0,0.0,0.0,0.0,0.0,0.0,0.0,0.0,0.0,0.0,0.0,0.0,0.0,0.0,0.0,0.0,0.0,0.0,0.0,0.0,0.0,0.0,0.0,0.0,0.0,0.0,0.0,0.0,0.0,0.0,0.0,0.0,0.0,0.0,0.0,0.0,0.0,0.0,0.0,0.0,0.0,0.0,0.0,0.0,0.0,0.0,0.0,0.0,0.0,0.0,0.0,0.0,0.0,0.0,0.0,0.0,0.0,0.0,0.0,0.0,0.0,0.0,0.0,0.0,0.0,0.0,0.0,0.0,0.0,0.0,0.0,0.0,0.0,0.0,0.0,0.0,0.0,0.0,0.0,0.0,0.0,0.0,0.0,0.0,0.0,0.0,0.0,0.0,0.0,0.0,0.0,0.0,0.0,0.0,0.0,0.0,0.0,0.0,0.0,0.0,0.0,0.0,0.0,0.0,0.0,0.0,0.0,0.0,0.0,0.0,0.0,0.0,0.0,0.0,0.0,0.0,0.0,0.0,0.0,0.0,0.0,0.0,0.0,0.0,0.0,0.0,0.0,0.0,0.0,0.0,0.0,0.0,0.0,0.0,0.0,0.0,0.0,0.0,0.0,0.0,0.0,0.0,0.0,0.0,0.0,0.0,0.0,0.0,0.0,0.0,0.0,0.0,0.0,0.0,0.0,0.0,0.0,0.0,0.0,0.0,0.0,0.0,0.0,0.0,0.0,0.0,0.0,0.0,0.0,0.0,0.0,0.0,0.0,0.0,0.0,0.0,0.0,0.0,0.0,0.0,0.0,0.0,0.0,0.0,0.0,0.0,0.0,0.0,0.0,0.0,0.0,0.0,0.0,0.0,0.0,0.0,0.0,0.0,0.0,0.0,0.0,0.0,0.0,0.0,0.0,0.0,0.0,0.0,0.0,0.0,0.0,0.0,0.0,0.0,0.0,0.0,0.0,0.0,0.0,0.0,0.0,0.0,0.0,0.0,0.0,0.0,0.0,0.0,0.0,0.0,0.0,0.0,0.0,0.0,0.0,0.0,0.0,0.0,0.0,0.0,0.0,0.0,0.0,0.0,0.0,0.0,0.0,0.0,0.0,0.0,0.0,0.0,0.0,0.0,0.0,0.0,0.0,0.0,0.0,0.0,0.0,0.0,0.0,0.0,0.0,0.0,0.0,0.0,0.0,0.0,0.0,0.0,0.0,0.0,0.0,0.0,0.0,0.0,0.0,0.0,0.0,0.0,0.0,0.0,0.0,0.0,0.0,0.0,0.0,0.0,0.0,0.0,0.0,0.0,0.0,0.0,0.0,0.0,0.0,0.0,0.0,0.0,0.0,0.0,0.0,0.0,0.0,0.0,0.0,0.0,0.0,0.0,0.0,0.0,0.0,0.0,0.0,0.0,0.0,0.0,0.0,0.0,0.0,0.0,0.0,0.0,0.0,0.0,0.0,0.0,0.0,0.0,0.0,0.0,0.0,0.0,0.0,0.0,0.0,0.0,0.0,0.0,0.0,0.0,0.0,0.0,0.0,0.0,0.0,0.0,0.0,0.0,0.0,0.0,0.0,0.0,0.0,0.0,0.0,0.0,0.0,0.0,0.0,0.0,0.0,0.0,0.0,0.0,0.0,0.0,0.0,0.0,0.0,0.0,0.0,0.0,0.0,0.0,0.0,0.0,0.0,0.0,0.0,0.0,0.0,0.0,0.0,0.0,0.0,0.0,0.0,0.0,0.0,0.0,0.0,0.0,0.0,0.0,0.0,0.0,0.0,0.0,0.0,0.0,0.0,0.0,0.0,0.0,0.0,0.0,0.0,0.0,0.0,0.0,0.0,0.0,0.0,0.0,0.0,0.0,0.0,0.0,0.0,0.0,0.0,0.0,0.0,0.0,0.0,0.0,0.0,0.0,0.0,0.0,0.0,0.0,0.0,0.0,0.0,0.0,0.0,0.0,0.0,0.0,0.0,0.0,0.0,0.0,0.0,0.0,0.0,0.0,0.0,0.0,0.0,0.0,0.0,0.0,0.0,0.0,0.0,0.0,0.0,0.0,0.0,0.0,0.0,0.0,0.0,0.0,0.0,0.0,0.0,0.0,0.0,0.0,0.0,0.0,0.0,0.0,0.0,0.0,0.0,0.0,0.0,0.0,0.0,0.0,0.0,0.0,0.0,0.0,0.0,0.0,0.0,0.0,0.0,0.0,0.0,0.0,0.0,0.0,0.0,0.0,0.0,0.0,0.0,0.0,0.0,0.0,0.0,0.0,0.0,0.0,0.0,0.0,0.0,0.0,0.0,0.0,0.0,0.0,0.0,0.0,0.0,0.0,0.0,0.0,0.0,0.0,0.0,0.0,0.0,0.0,0.0,0.0,0.0,0.0,0.0,0.0,0.0,0.0,0.0,0.0,0.0,0.0,0.0,0.0,0.0,0.0,0.0,0.0,0.0,0.0,0.0,0.0,0.0,0.0,0.0,0.0,0.0,0.0,0.0,0.0,0.0,0.0,0.0,0.0,0.0,0.0,0.0,0.0,0.0,0.0,0.0,0.0,0.0,0.0,0.0,0.0,0.0,0.0,0.0,0.0,0.0,0.0,0.0,0.0,0.0,0.0,0.0,0.0,0.0,0.0,0.0,0.0,0.0,0.0,0.0,0.0,0.0,0.0,0.0,0.0,0.0,0.0,0.0,0.0,0.0,0.0,0.0,0.0,0.0,0.0,0.0,0.0,0.0,0.0,0.0,0.0,0.0,0.0,0.0,0.0,0.0,0.0,0.0,0.0,0.0,0.0,0.0,0.0,0.0,0.0,0.0,0.0,0.0,0.0,0.0,0.0,0.0,0.0,0.0,0.0,0.0,0.0,0.0,0.0,0.0,0.0,0.0,0.0,0.0,0.0,0.0,0.0,0.0,0.0,0.0,0.0,0.0,0.0,0.0,0.0,0.0,0.0,0.0,0.0,0.0,0.0,0.0,0.0,0.0,0.0,0.0,0.0,0.0,0.0,0.0,0.0,0.0,0.0,0.0,0.0,0.0,0.0,0.0,0.0,0.0,0.0,0.0,0.0,0.0,0.0,0.0,0.0,0.0,0.0,0.0,0.0,0.0,0.0,0.0,0.0,0.0,0.0,0.0,0.0,0.0,0.0,0.0,0.0,0.0,0.0,0.0,0.0,0.0,0.0,0.0,0.0,0.0,0.0,0.0,0.0,0.0,0.0,0.0,0.0,0.0,0.0,0.0,0.0,0.0,0.0,0.0,0.0,0.0,0.0,0.0,0.0,0.0,0.0,0.0,0.0,0.0,0.0,0.0,0.0,0.0,0.0,0.0,0.0,0.0,0.0,0.0,0.0,0.0,0.0,0.0,0.0,0.0,0.0,0.0,0.0,0.0,0.0,0.0,0.0,0.0,0.0,0.0,0.0,0.0,0.0,0.0,0.0,0.0,0.0,0.0,0.0,0.0,0.0,0.0,0.0,0.0,0.0,0.0,0.0,0.0,0.0,0.0,0.0,0.0,0.0,0.0,0.0,0.0,0.0,0.0,0.0,0.0,0.0,0.0,0.0,0.0,0.0,0.0,0.0,0.0,0.0,0.0,0.0,0.0,0.0,0.0,0.0,0.0,0.0,0.0,0.0,0.0,0.0,0.0,0.0,0.0,0.0,0.0,0.0,0.0,0.0,0.0,0.0,0.0,0.0,0.0,0.0,0.0,0.0,0.0,0.0,0.0,0.0,0.0,0.0,0.0,0.0,0.0,0.0,0.0,0.0,0.0,0.0,0.0,0.0,0.0,0.0,0.0,0.0,0.0,0.0,0.0,0.0,0.0,0.0,0.0,0.0,0.0,0.0,0.0,0.0,0.0,0.0,0.0,0.0,0.0,0.0,0.0,0.0,0.0,0.0,0.0,0.0,0.0,0.0,0.0,0.0,0.0,0.0,0.0,0.0,0.0,0.0,0.0,0.0,0.0,0.0,0.0,0.0,0.0,0.0,-4.0329,-4.1018,0.0,0.0,0.0,0.0,0.0,0.0,0.0,0.0,0.0,0.0,0.0,0.0,0.0,0.0,0.0,0.0,0.0,0.0,0.0,0.0,0.0,0.0,0.0,-2.8288,-2.9345,-2.9966,-2.9962,-2.9871,-2.9794,0.0,0.0,0.0,0.0,0.0,-2.6491,-2.6478,-2.6356,-2.6069,-2.6399,-2.6804,-2.7246,-2.8646,-2.9382,-2.9601,0.0,0.0,0.0,0.0,0.0,0.0,0.0,0.0,0.0,0.0,0.0,0.0,0.0,0.0,0.0,0.0,0.0,0.0,0.0,0.0,0.0,0.0,0.0,0.0,0.0,0.0,0.0,0.0,0.0,0.0,0.0,0.0,0.0,0.0,0.0,0.0,0.0,0.0,0.0,0.0,0.0,0.0,0.0,0.0,0.0,0.0,0.0,0.0,0.0,0.0,0.0,0.0,0.0,0.0,0.0,0.0,0.0,0.0,0.0,0.0,0.0,0.0,0.0,0.0,0.0,0.0,0.0,0.0,0.0,0.0,-3.895,-3.9408,0.0,0.0,0.0,0.0,0.0,0.0,0.0,0.0,0.0,0.0,0.0,0.0,0.0,0.0,0.0,0.0,0.0,0.0,0.0,0.0,0.0,-2.4665,-2.546,-2.7243,-2.8872,-3.0142,-2.9624,-2.9438,-2.9815,-2.916,0.0,0.0,0.0,-2.7207,-2.6666,-2.6485,-2.6326,-2.625,-2.6445,-2.6556,-2.6586,-2.8111,-2.8877,-2.903,-3.0384,0.0,0.0,0.0,0.0,0.0,0.0,0.0,0.0,0.0,0.0,0.0,0.0,0.0,0.0,0.0,0.0,0.0,0.0,0.0,0.0,0.0,0.0,0.0,0.0,0.0,0.0,0.0,0.0,0.0,0.0,0.0,0.0,0.0,0.0,0.0,0.0,0.0,0.0,0.0,0.0,0.0,0.0,0.0,0.0,0.0,0.0,0.0,0.0,0.0,0.0,0.0,0.0,0.0,0.0,0.0,0.0,0.0,0.0,0.0,0.0,0.0,0.0,0.0,-3.5901,-3.623,-3.6901,-3.6901,-3.6901,-3.6901,-3.6901,-3.7231,-3.7793,-3.7793,0.0,0.0,0.0,0.0,0.0,0.0,0.0,0.0,0.0,0.0,0.0,0.0,0.0,0.0,0.0,0.0,0.0,0.0,0.0,-2.3536,-2.523,-2.6608,-2.7865,-2.908,-2.9098,-2.8761,-2.8071,-2.7953,0.0,0.0,-2.5877,-2.5329,-2.5269,-2.4413,-2.372,-2.3283,-2.4259,-2.4734,-2.4766,-2.6485,-2.7305,-2.7441,-3.0132,-3.1245,-3.103,0.0,0.0,0.0,0.0,0.0,0.0,0.0,0.0,0.0,0.0,0.0,0.0,0.0,0.0,0.0,0.0,0.0,0.0,0.0,0.0,0.0,0.0,0.0,0.0,0.0,0.0,0.0,0.0,0.0,0.0,0.0,0.0,0.0,0.0,0.0,0.0,0.0,0.0,0.0,0.0,0.0,-3.7374,-3.6691,0.0,0.0,0.0,0.0,0.0,0.0,0.0,0.0,0.0,0.0,0.0,0.0,0.0,-3.3101,-3.3143,-3.3017,-3.3017,-3.3143,-3.3143,-3.3199,-3.3289,-3.3289,-3.3289,-3.3289,-3.3289,0.0,-3.7793,-3.7793,0.0,0.0,0.0,0.0,0.0,0.0,0.0,0.0,0.0,0.0,0.0,0.0,0.0,0.0,0.0,0.0,0.0,0.0,0.0,0.0,0.0,-2.5517,-2.7016,-2.8408,-2.7895,-2.7313,-2.6938,-2.5936,-2.5289,-2.5228,-2.4523,-2.4294,-2.4533,-2.3844,-2.3377,-2.3165,-2.3652,-2.3897,-2.3931,-2.578,-2.6608,-2.6692,-2.9026,-3.0098,-3.0151,-2.9998,0.0,0.0,0.0,0.0,0.0,0.0,0.0,0.0,0.0,0.0,0.0,0.0,0.0,0.0,0.0,0.0,0.0,0.0,0.0,0.0,0.0,0.0,0.0,0.0,0.0,0.0,0.0,0.0,0.0,0.0,0.0,0.0,0.0,0.0,0.0,0.0,0.0,0.0,0.0,-3.5591,-3.615,-3.6005,-3.6294,-3.6047,0.0,0.0,0.0,0.0,0.0,0.0,0.0,0.0,0.0,-3.3555,-3.3569,-3.3569,-3.3569,-3.3569,-3.339,-3.3032,-3.3032,-3.2889,-3.2593,-3.2593,-3.2593,-3.2593,-3.2593,-3.3482,-3.4881,-3.4881,-3.4666,-3.4316,0.0,0.0,0.0,0.0,-3.2182,-3.199,0.0,0.0,0.0,0.0,0.0,0.0,0.0,0.0,0.0,0.0,0.0,0.0,-2.2433,-2.3991,-2.5466,-2.6886,-2.6127,-2.5538,-2.5438,-2.4209,-2.359,-2.3847,-2.339,-2.3275,-2.3649,-2.3073,-2.275,-2.275,-2.2999,-2.311,-2.3147,-2.4826,-2.5587,-2.5656,-2.7241,-2.8381,-2.9182,-2.9609,-2.9468,0.0,0.0,0.0,0.0,0.0,0.0,0.0,0.0,0.0,0.0,0.0,0.0,0.0,0.0,0.0,0.0,0.0,0.0,0.0,0.0,0.0,0.0,0.0,0.0,0.0,0.0,0.0,0.0,0.0,0.0,0.0,0.0,0.0,0.0,0.0,0.0,0.0,0.0,-3.4198,-3.4628,-3.4746,-3.5311,-3.5141,0.0,0.0,0.0,0.0,0.0,0.0,-3.323,-3.3258,-3.3349,-3.3555,-3.3582,-3.3582,-3.3582,-3.3582,-3.3273,-3.2667,-3.2667,-3.2395,-3.1865,-3.1865,-3.1865,-3.1865,-3.1865,-3.1865,-3.1938,-3.2393,-3.2593,-3.2593,-3.2593,-3.2295,-3.186,-3.186,-3.1536,-3.1186,0.0,0.0,0.0,0.0,0.0,0.0,0.0,0.0,0.0,0.0,0.0,-2.0122,-2.1184,-2.1812,-2.2626,-2.3634,-2.3675,-2.3469,0.0,-2.334,-2.3324,-2.2969,-2.2401,-2.2075,-2.2096,-2.1203,-2.075,-2.075,-2.1631,-2.2065,-2.2103,-2.3136,-2.3649,-2.3686,-2.459,-2.6502,-2.8959,-2.8366,-2.8102,-2.8024,0.0,0.0,0.0,0.0,0.0,0.0,0.0,0.0,0.0,0.0,0.0,0.0,0.0,0.0,0.0,0.0,0.0,0.0,0.0,0.0,0.0,0.0,0.0,0.0,0.0,0.0,0.0,0.0,0.0,0.0,0.0,0.0,0.0,0.0,0.0,0.0,0.0,0.0,0.0,-3.2818,-3.3218,0.0,0.0,0.0,0.0,-3.334,-3.3904,-3.3794,-3.2895,-3.2817,-3.2462,-3.1577,-3.1549,-3.1549,-3.1549,-3.1549,-3.1271,-3.0754,-3.0754,-3.0464,-2.9934,-2.9934,-2.9934,-2.9934,-2.9934,-2.9934,-3.0075,-3.1865,-3.2593,-3.2593,-3.2593,-3.2579,-3.2552,-3.2552,-3.2538,-3.251,0.0,0.0,0.0,0.0,0.0,-1.3264,-1.37,-1.4384,-1.5041,-1.552,-1.6039,-1.6802,-1.7978,-1.9184,-2.0254,-2.1174,-2.1552,-2.1421,-2.0652,-2.0326,-1.9955,-1.9446,-1.9136,-1.8982,-1.8982,-1.8652,-1.847,-1.847,-1.8793,-1.9346,-2.0071,-2.1064,-2.1862,-2.259,-2.3543,-2.4682,-2.5968,-2.6713,-2.7023,-2.705,-2.7095,-2.6957,0.0,0.0,0.0,0.0,0.0,0.0,0.0,0.0,0.0,0.0,0.0,0.0,0.0,0.0,0.0,0.0,0.0,0.0,0.0,0.0,0.0,0.0,0.0,0.0,0.0,0.0,0.0,0.0,0.0,0.0,0.0,0.0,0.0,0.0,0.0,0.0,0.0,-3.3111,-3.3996,0.0,-3.2863,-3.2907,-3.2772,-3.215,-3.2305,-3.2431,-3.2398,-3.2411,-3.2438,-3.2508,-3.2478,-3.2478,-3.2478,-3.2478,-3.219,-3.1637,-3.1286,-3.0834,-3.0306,-2.9955,-2.9792,-2.9792,-2.9792,-2.9792,-2.9869,-3.0533,-3.0822,-3.0822,-3.0822,-3.0822,-3.0822,-3.0822,-3.0822,-3.0822,0.0,0.0,0.0,0.0,-1.1628,-1.2026,-1.2364,-1.3098,-1.3745,-1.4057,-1.4469,-1.5124,-1.6079,-1.7131,-1.8007,-1.8723,-1.9092,-1.8967,-1.817,-1.7943,-1.7583,-1.7073,-1.7202,-1.7302,-1.7302,-1.7302,-1.7302,-1.7302,-1.7302,-1.7706,-1.843,-1.9061,-1.975,-2.043,-2.1092,-2.1642,-2.2177,-2.3938,-2.5166,-2.5959,-2.6477,-2.6776,-2.6852,0.0,0.0,0.0,0.0,0.0,0.0,0.0,0.0,0.0,0.0,0.0,0.0,0.0,0.0,0.0,0.0,0.0,0.0,0.0,0.0,0.0,0.0,0.0,0.0,0.0,0.0,0.0,0.0,0.0,0.0,0.0,0.0,0.0,0.0,0.0,-3.2516,-3.2699,-3.3604,-3.3754,-3.2461,-3.2511,-3.2358,-3.1703,-3.1851,-3.2114,-3.2478,-3.2503,-3.2679,-3.3111,-3.3124,-3.3124,-3.3124,-3.3124,-3.278,-3.2202,-3.1838,-3.1298,-3.0608,-3.0231,-2.9967,-2.9792,-2.9792,-2.9573,-2.9236,-2.9236,-2.8988,-2.8752,-2.9495,-2.9792,-2.9792,-2.9792,-2.9792,-2.9792,0.0,0.0,0.0,-1.1184,-1.1581,-1.1942,-1.2256,-1.324,-1.395,-1.3917,-1.4571,-1.5144,-1.556,-1.563,-1.5844,-1.6229,-1.6338,-1.6196,-1.579,-1.6398,-1.656,-1.604,-1.6708,-1.7082,-1.7082,-1.7082,-1.7082,-1.7082,-1.7131,-1.7172,-1.7212,-1.7212,-1.7253,-1.7302,-1.7302,-1.7507,-1.7979,-2.0108,-2.2437,-2.4731,-2.5665,-2.6284,-2.6689,0.0,0.0,0.0,0.0,0.0,0.0,0.0,0.0,0.0,0.0,0.0,0.0,0.0,0.0,0.0,0.0,0.0,0.0,0.0,0.0,0.0,0.0,0.0,0.0,0.0,0.0,0.0,0.0,0.0,0.0,0.0,0.0,0.0,-3.0183,-3.0991,-3.137,-3.137,-3.1859,-3.2026,-3.1499,-3.1926,-3.224,-3.224,-3.2754,-3.3124,-3.3124,-3.3136,-3.3106,-3.305,-3.305,-3.305,-3.305,-3.3038,-3.2749,-3.224,-3.2173,-3.1567,-3.0553,-3.0541,-3.0188,-2.9714,-2.9714,-2.9067,-2.8056,-2.8056,-2.7452,-2.673,-2.8882,-2.9753,-2.9753,-2.9792,-2.9792,-2.9753,0.0,0.0,-0.9505,-1.0045,-1.0236,-1.0267,-1.0172,-1.0659,-1.0823,-1.0197,-1.0587,-1.0975,-1.1085,-1.2345,-1.3227,-1.3343,-1.4702,-1.5272,-1.4664,-1.4236,-1.3454,-1.2183,-1.2343,-1.242,-1.242,-1.242,-1.242,-1.242,-1.3279,-1.4114,-1.4941,-1.5764,-1.656,-1.7302,-1.7302,-1.7639,-1.8267,-1.888,-1.984,-2.12,-2.4012,-2.5233,-2.5337,0.0,0.0,0.0,0.0,0.0,0.0,0.0,0.0,0.0,0.0,0.0,0.0,0.0,0.0,0.0,0.0,0.0,0.0,0.0,0.0,0.0,0.0,0.0,0.0,0.0,0.0,0.0,0.0,0.0,0.0,0.0,-2.7026,-2.7327,-2.7957,-2.9569,-3.0664,-3.0664,-3.1956,-3.278,-3.2629,-3.2754,-3.2842,-3.2842,-3.2993,-3.3124,-3.3124,-3.3458,-3.3251,-3.2268,-3.2325,-3.2325,-3.2223,-3.1882,-3.211,-3.2842,-3.1516,-3.0586,-2.9975,-2.8644,-2.7817,-2.7395,-2.7395,-2.7221,-2.6924,-2.6924,-2.676,-2.6648,-2.8028,-2.8557,-2.8688,-2.9495,-2.9287,-2.8478,0.0,-0.86,-0.8411,-0.866,-0.8692,-0.8728,-0.8809,-0.9117,-0.9182,-0.8745,-0.9037,-0.9296,-0.9296,-1.0329,-1.0983,-1.0983,-1.2116,-1.2635,-1.226,-1.193,-1.1428,-1.0639,-1.0611,-1.0611,-1.0611,-1.0611,-1.0611,-1.0611,-1.1252,-1.1926,-1.259,-1.3231,-1.4162,-1.5211,-1.5211,-1.5878,-1.6997,-1.7506,-1.8128,-1.8953,-2.1536,-2.3164,-2.4069,-2.4366,-2.5447,-2.6731,-2.6132,-2.6359,-2.6954,-2.6906,0.0,0.0,0.0,0.0,0.0,0.0,0.0,0.0,0.0,0.0,0.0,0.0,0.0,0.0,0.0,0.0,0.0,0.0,0.0,0.0,0.0,0.0,0.0,0.0,-2.6108,-2.6246,-2.6246,-2.821,-2.9899,-3.0648,-3.1683,-3.2283,-3.2283,-3.2283,-3.2108,-3.1601,-3.1557,-3.1557,-3.1557,-3.1857,-3.1641,-3.0904,-3.0904,-3.0949,-3.0846,-3.0602,-3.0822,-3.1557,-3.0472,-2.9744,-2.9245,-2.7985,-2.7191,-2.6721,-2.6561,-2.6224,-2.5797,-2.5797,-2.5515,0.0,0.0,0.0,0.0,0.0,-2.7999,-2.7319,0.0,-0.768,-0.7572,-0.7372,-0.733,-0.7486,-0.7965,-0.8275,-0.8452,-0.8476,-0.8777,-0.8955,-0.8955,-0.9069,-0.915,-0.915,-0.9372,-0.9483,0.0,0.0,-0.9899,-1.0024,-1.0009,-0.9995,-0.9995,-1.013,-1.0221,-1.0221,-1.0351,-1.0394,-1.0394,-1.0524,-1.1123,-1.2114,-1.21,-1.305,-1.4681,-1.588,-1.6733,-1.7397,-1.8764,-2.0631,-2.2689,-2.3275,-2.4251,-2.5238,-2.477,-2.4785,-2.4993,-2.4993,0.0,0.0,0.0,0.0,0.0,0.0,0.0,0.0,0.0,0.0,0.0,0.0,0.0,0.0,0.0,0.0,0.0,0.0,0.0,0.0,0.0,0.0,0.0,0.0,-2.4814,-2.5135,-2.5184,-2.6959,-2.8914,-3.0573,-3.0899,-3.1,-3.1,-3.1,-3.0541,-2.9498,-2.9407,-2.9429,-2.9485,-2.9485,0.0,0.0,0.0,-2.9255,-2.9255,-2.9211,-2.9269,-2.9407,-2.9269,-2.8922,-2.8388,-2.7756,-2.7227,-2.6699,-2.6309,-2.5557,-2.4628,-2.4628,-2.4006,-2.3309,-2.5473,-2.6389,-2.6472,-2.6348,-2.6307,-2.6307,0.0,-0.7505,-0.7254,-0.7425,-0.747,-0.7382,-0.7178,-0.7272,-0.718,-0.663,-0.6726,-0.6872,-0.6872,-0.7591,-0.8084,-0.8084,-0.8951,-0.932,0.0,0.0,-0.7346,-0.6617,-0.6471,-0.6413,-0.6413,-0.7302,-0.7793,-0.7793,-0.8755,-0.9235,-0.9235,-1.0183,-1.074,-1.0918,-1.1017,-1.1434,-1.2118,-1.3505,-1.4288,-1.4829,-1.7149,-1.8902,-2.0189,-2.03,-2.166,-2.3496,-2.3406,-2.4545,-2.6192,-2.6192,-2.5831,-2.5456,-2.5456,0.0,0.0,0.0,0.0,0.0,0.0,0.0,0.0,0.0,0.0,0.0,0.0,0.0,0.0,0.0,0.0,0.0,0.0,0.0,0.0,-2.4873,-2.5057,-2.5195,-2.5557,-2.5972,-2.6795,-2.8121,-2.9177,-2.9772,-2.9772,-2.9772,-2.9636,-2.9407,-2.9407,-2.9529,-2.9874,-2.9989,-2.9708,-2.8943,-2.87,-2.8556,-2.8413,-2.8089,-2.8459,-2.9407,-2.8402,0.0,-2.7186,-2.5732,-2.4842,-2.44,-2.3958,-2.3637,-2.343,-2.343,-2.3299,-2.3222,-2.4585,-2.5672,-2.6389,-2.5462,-2.5126,-2.4999,-0.9652,-0.8662,-0.7789,-0.7613,-0.7255,-0.6957,-0.7009,-0.6702,-0.639,-0.6191,-0.6252,-0.63,-0.63,-0.6756,-0.7061,-0.7061,-0.7153,0.0,0.0,-0.5994,-0.5119,-0.4599,-0.4514,-0.4508,-0.4508,-0.5041,-0.5351,-0.5351,-0.6549,-0.717,-0.717,-0.84,-0.9283,-0.9862,-0.998,-1.0545,-1.1445,-1.2161,-1.2638,-1.3006,-1.4292,-1.5563,-1.6919,-1.8786,-2.0234,-2.1239,-2.1239,-2.1982,-2.2988,-2.2988,-2.2799,-2.2571,-2.2571,-2.2571,-2.2571,0.0,0.0,0.0,0.0,0.0,0.0,0.0,0.0,0.0,0.0,0.0,0.0,0.0,0.0,-2.4805,0.0,0.0,-2.5215,-2.5654,-2.5547,-2.5478,-2.5654,-2.5693,-2.6149,-2.7447,-2.8132,-2.8495,-2.8495,-2.8495,-2.8215,-2.7626,-2.7788,-2.7971,-2.8202,-2.8432,-2.8274,-2.7601,-2.7498,-2.7274,-2.6944,-2.6769,-2.6935,-2.7531,-2.6935,-2.6547,-2.6256,-2.4987,-2.4307,-2.4062,-2.3374,-2.3091,-2.3091,-2.3091,-2.3091,-2.3178,-2.3714,-2.4307,-2.4723,-2.4178,-2.3963,-2.3887,-1.177,-1.0659,-0.9326,-0.8196,-0.7423,-0.7057,-0.7351,-0.6793,-0.6488,-0.6827,-0.6868,-0.6868,-0.6868,-0.6718,-0.6553,0.0,0.0,0.0,0.0,-0.4059,-0.3279,-0.3287,-0.327,-0.3227,-0.326,-0.3481,-0.3614,-0.3614,-0.4572,-0.5166,-0.5439,-0.656,-0.7675,-0.8815,-0.8946,-0.9665,-1.0796,-1.1077,-1.1341,-1.1556,-1.1804,-1.2528,-1.3866,-1.7152,-1.8702,-1.9131,-1.9131,-1.9314,-1.9497,-1.9497,-1.9497,-1.9497,-1.9497,-1.9497,-1.9497,-1.9497,-1.9497,0.0,0.0,0.0,0.0,0.0,0.0,0.0,0.0,0.0,-2.4235,-2.4555,-2.5019,-2.5459,-2.5908,-2.5937,-2.6103,-2.6455,-2.6143,-2.5859,-2.5859,-2.5742,-2.6062,-2.7125,-2.722,-2.722,-2.722,-2.722,-2.6802,-2.5781,-2.6064,-2.6299,-2.6387,-2.6631,-2.665,-2.6396,-2.6309,-2.6094,-2.5693,-2.5693,-2.5693,-2.5693,-2.5693,-2.5693,-2.5664,-2.4902,-2.4502,-2.4365,-2.3471,-2.3091,-2.3091,-2.3091,-2.3091,-2.3091,-2.3091,-2.3091,-2.3091,-2.3091,-2.3091,-2.3091,0.0,-1.3614,-1.253,-0.9562,-0.8949,-0.8788,-0.8478,-0.8343,-0.8463,-0.8902,-0.8955,-0.8955,-0.8955,-0.8161,-0.7371,-0.6709,0.0,0.0,-0.5558,-0.3352,-0.2034,-0.2181,-0.2047,-0.2006,-0.2013,-0.3037,-0.3614,-0.3614,-0.3728,-0.4406,-0.556,-0.5712,-0.652,-0.7764,-0.791,-0.8079,-0.8297,-0.9604,-1.0173,-1.0293,-1.1458,-1.1994,-1.2285,-1.3909,-1.5913,-1.7917,-1.7917,-1.8588,-1.9497,-1.9497,-1.9497,-1.9497,-1.9497,-1.9497,-1.9497,-1.9497,0.0,-1.9497,-1.9497,-1.9497,-1.9571,-1.9977,-2.0179,-2.0725,0.0,0.0,-2.3625,-2.5208,-2.5937,-2.6367,-2.6797,-2.6865,-2.6885,-2.6934,-2.6592,-2.6318,-2.6318,-2.5977,-2.5732,-2.5878,-2.5917,-2.5917,-2.5917,-2.5917,-2.583,-2.5684,-2.5732,-2.5977,-2.6367,-2.6064,-2.6035,-2.6377,-2.6016,-2.5732,-2.5693,-2.5693,-2.5693,-2.5693,-2.5693,-2.5693,-2.5674,-2.5225,-2.4785,-2.4365,-2.3471,-2.3091,-2.3091,-2.3091,-2.3091,-2.3091,-2.3091,-2.3091,-2.3091,-2.3091,-2.3091,-2.3091,0.0,-1.5773,-1.4916,-1.3062,-1.1763,-1.0796,-1.0137,-1.0305,-1.0212,-0.9401,-0.9761,-0.9906,-0.9372,-0.849,-0.7888,-0.7879,-0.5521,-0.4182,-0.4399,-0.2138,-0.0766,-0.0823,-0.0761,-0.075,-0.0743,-0.1253,-0.1484,-0.1484,-0.2197,-0.3237,-0.4548,-0.5353,-0.6415,-0.7729,-0.7879,-0.7894,-0.7946,-0.8552,-0.8825,-0.8874,-0.941,-1.0534,-1.1945,-1.2522,-1.4358,-1.6574,-1.6574,-1.6936,0.0,0.0,-1.7343,-1.7343,-1.7343,-1.7343,-1.7343,-1.7343,-1.7343,0.0,-1.7343,-1.7991,-1.8691,0.0,-1.9678,-2.0742,-2.1434,-2.2509,-2.3641,-2.4365,-2.5703,-2.6807,-2.6982,-2.7217,-2.7393,0.0,-2.7031,-2.667,-2.6426,-2.623,-2.6025,-2.5713,-2.5693,-2.5693,-2.5693,-2.5693,-2.5693,-2.5693,-2.5977,-2.6191,-2.6377,-2.6445,-2.6455,-2.6387,-2.6211,-2.5996,-2.5693,-2.5693,-2.5693,-2.5693,-2.5693,-2.5693,-2.5674,-2.5273,-2.4744,-2.4033,-2.3672,-2.3335,-2.3091,-2.3091,-2.3091,-2.3091,-2.3091,-2.3091,-2.3091,-2.3091,-2.3091,-2.3091,0.0,-1.7379,-1.6789,-1.5793,-1.4541,-1.3211,-1.1931,-1.2174,-1.2088,-1.0875,-1.1181,-1.1045,-0.9852,-0.8955,-0.8473,-0.8547,-0.5378,-0.3424,-0.3569,-0.1334,0.0,0.0,0.0,0.0,0.0,0.0,0.0,0.0,-0.0862,-0.2157,-0.3878,-0.4827,-0.6198,-0.7879,-0.7941,-0.7988,-0.7988,-0.7988,-0.8237,-0.8528,-0.8528,-0.9899,-1.1945,-1.2334,-1.3638,-1.5343,-1.5683,-1.5784,0.0,0.0,-1.5784,-1.5784,-1.5784,-1.5784,-1.5784,-1.5784,-1.5784,-1.5784,-1.5784,-1.6703,-1.7623,-1.771,-1.8863,-2.0095,-2.049,-2.1612,-2.2802,-2.3668,-2.5144,-2.6426,-2.7097,-2.7451,-2.7757,-2.7875,-2.7471,-2.709,-2.6787,-2.6543,-2.6318,-2.6064,-2.5937,-2.5869,-2.5869,-2.5762,-2.5693,-2.5693,-2.6025,-2.6211,-2.6211,-2.6494,-2.6523,-2.6221,-2.6211,-2.6055,-2.5693,-2.5693,-2.5693,-2.5693,-2.5693,-2.5693,-2.5674,-2.5146,-2.4551,-2.3945,-2.3711,-2.3428,-2.3091,-2.3091,-2.3091,-2.3091,-2.3091,-2.3091,-2.3091,-2.3091,-2.3091,-2.3091,0.0,0.0,-1.8167,-1.6726,-1.6782,-1.6227,-1.3703,-1.3729,-1.4122,-1.4312,-1.3919,-1.2894,-1.0969,-1.0103,-0.9258,-0.8295,-0.5401,-0.359,-0.3593,-0.1341,0.0,0.0,0.0,0.0,0.0,0.0,0.0,0.0,-0.0049,-0.142,-0.4008,-0.4029,-0.5465,-0.7982,-0.7988,-0.7988,-0.7988,-0.7988,-0.8775,-0.9953,-0.9953,-1.073,-1.2042,-1.3343,-1.3872,-1.4118,-1.5343,0.0,0.0,0.0,-1.5784,-1.5784,-1.5784,-1.5784,0.0,-1.5784,-1.5784,-1.5784,-1.5784,-1.6046,-1.6437,-1.667,-1.7022,-1.7729,-1.9288,-1.9672,-2.0581,-2.3653,-2.432,-2.5052,-2.7272,-2.7708,-2.7855,-2.8203,-2.792,-2.7689,-2.7679,-2.6914,-2.6533,-2.6934,-2.6621,-2.6367,0.0,-2.5986,-2.5693,-2.5693,-2.5703,-2.5703,-2.5703,-2.5713,-2.5723,-2.5703,-2.5703,-2.5703,-2.5693,-2.5693,-2.5693,-2.5693,-2.5693,-2.5693,-2.5664,-2.4787,-2.4424,-2.4355,-2.3471,-2.311,-2.3091,-2.3091,-2.3091,-2.3091,-2.3091,-2.3091,-2.3091,-2.3091,-2.3091,-2.3091,0.0,0.0,0.0,-1.7796,-1.724,-1.6588,-1.5722,-1.5979,-1.5978,-1.5072,-1.4403,0.0,0.0,0.0,0.0,0.0,-0.7439,-0.5273,-0.3682,-0.2107,-0.0831,-0.0049,0.0,0.0,0.0,0.0,0.0,0.0,-0.0896,-0.2243,-0.4031,-0.4908,-0.6276,-0.7988,-0.7988,-0.7988,-0.8038,-0.897,-0.9842,-1.0645,-1.1081,-1.2265,-1.3851,-1.3862,-1.4411,-1.5242,0.0,0.0,0.0,0.0,-1.5784,-1.5784,-1.5784,0.0,0.0,-1.4806,-1.4555,-1.4555,-1.4555,-1.4752,-1.5232,-1.619,-1.6837,-1.7329,-1.7881,-1.8816,-1.9916,-2.0945,-2.2134,-2.3478,-2.5153,-2.5912,-2.6648,-2.7736,-2.7988,-2.7988,-2.7757,-2.7474,-2.7178,-2.7031,-2.6894,0.0,0.0,0.0,0.0,-2.5713,-2.5693,-2.5693,-2.5693,-2.5693,-2.5693,-2.5693,-2.5693,-2.5693,-2.5693,-2.5693,-2.5693,-2.5693,-2.5693,-2.5693,-2.5664,-2.5117,-2.4687,-2.4385,-2.3818,-2.3408,-2.3091,-2.3091,-2.3091,-2.3091,-2.3091,-2.3091,-2.3091,-2.3091,-2.3091,-2.3091,0.0,0.0,0.0,0.0,0.0,0.0,0.0,0.0,0.0,0.0,0.0,0.0,0.0,0.0,0.0,0.0,0.0,-0.6296,-0.4369,-0.273,-0.1445,-0.0679,-0.0692,-0.0701,-0.0706,-0.1159,-0.166,-0.2159,-0.3008,-0.4351,-0.6137,-0.6991,-0.81,-0.941,-0.941,-0.941,-0.946,-1.0288,-1.1173,-1.1987,-1.2448,-1.3639,-1.514,-1.4739,-1.5099,0.0,0.0,0.0,0.0,0.0,0.0,0.0,0.0,0.0,-1.554,-1.4262,-1.3926,-1.3776,-1.3301,-1.3719,-1.4506,-1.536,-1.6321,-1.7072,-1.7172,-1.7997,-1.8934,-1.9502,-2.0925,-2.2562,-2.4038,-2.5277,-2.6432,-2.7532,-2.8018,-2.8193,-2.793,-2.7816,-2.7617,-2.749,-2.7334,-2.7246,0.0,0.0,0.0,-2.6016,-2.5967,-2.5908,-2.5693,-2.5693,-2.5693,-2.5693,-2.5693,-2.5693,-2.5693,-2.5693,-2.5693,-2.5693,-2.5693,-2.5402,-2.4841,-2.4402,-2.373,-2.2825,-2.2427,-2.2328,-2.2448,-2.2448,-2.2721,-2.3091,-2.3091,-2.3091,-2.3091,-2.3091,-2.3091,-2.3091,0.0,0.0,0.0,0.0,0.0,0.0,0.0,0.0,0.0,0.0,0.0,0.0,0.0,0.0,0.0,0.0,0.0,0.0,-0.5664,-0.3416,0.0,-0.2087,-0.2224,-0.2315,-0.2356,-0.3659,-0.4997,-0.6358,-0.6457,-0.7779,-1.0272,-1.0321,-1.1075,-1.234,-1.234,-1.234,-1.234,-1.2345,-1.3091,-1.4232,-1.4214,-1.4908,-1.596,-1.5933,0.0,0.0,0.0,0.0,0.0,0.0,0.0,0.0,0.0,0.0,-1.554,-1.4262,-1.3926,-1.3632,-1.2334,-1.3128,-1.4286,-1.4335,-1.555,-1.676,-1.7092,-1.7166,-1.7613,-1.9184,-2.0566,-2.2038,0.0,0.0,-2.6892,-2.7598,-2.7965,-2.8237,-2.832,-2.7959,-2.7851,0.0,0.0,0.0,0.0,0.0,0.0,-2.6514,0.0,-2.6211,-2.5742,-2.5703,-2.5693,-2.5693,-2.5693,-2.5693,-2.5693,-2.5635,-2.5586,-2.5586,-2.5509,-2.4676,-2.3193,-2.2673,-2.1593,-2.0094,-1.9691,-2.0169,-2.1203,-2.1203,-2.1898,-2.2916,-2.2916,-2.2916,-2.2906,-2.3003,-2.3003,-2.3003,0.0,0.0,0.0,0.0,0.0,0.0,0.0,0.0,0.0,0.0,0.0,0.0,0.0,0.0,0.0,0.0,0.0,0.0,0.0,0.0,0.0,0.0,-0.5928,-0.6508,-0.7403,-0.7952,-0.9252,-1.134,-1.2379,-1.3628,-1.5132,-1.6137,-1.7169,-1.8145,-1.8145,-1.8145,-1.8153,-1.8334,-1.8432,-1.8514,0.0,-1.7985,-1.7775,0.0,0.0,0.0,0.0,0.0,0.0,0.0,0.0,0.0,0.0,-1.5784,-1.554,-1.4262,-1.3926,-1.3824,-1.3494,-1.3684,-1.422,-1.5201,-1.591,-1.64,-1.6529,-1.6667,-1.7002,-1.7702,-1.8117,-1.9162,0.0,0.0,0.0,-2.7098,-2.7128,0.0,-2.8538,-2.8398,0.0,-2.8281,0.0,-2.8135,-2.8135,-2.8135,0.0,0.0,-2.6748,-2.6338,-2.623,-2.5869,-2.5693,-2.5693,-2.5693,-2.5693,-2.5693,-2.4716,-2.4196,-2.4196,-2.2934,-2.2134,-2.1729,-2.1026,-2.0491,-2.0094,-1.9691,-1.967,-1.9943,-1.9943,-2.0124,-2.0404,-2.0404,-2.0404,-2.0539,-2.1436,-2.1756,-2.1889,0.0,0.0,0.0,0.0,0.0,0.0,0.0,0.0,0.0,0.0,0.0,0.0,0.0,0.0,0.0,0.0,0.0,0.0,0.0,0.0,-1.0246,-1.0269,-1.05,-1.1455,-1.3213,-1.395,-1.5476,-1.7814,0.0,0.0,-2.0789,-2.1523,-2.2175,-2.267,-2.267,-2.267,-2.268,0.0,0.0,0.0,0.0,0.0,0.0,0.0,0.0,0.0,0.0,0.0,0.0,0.0,0.0,-1.6046,-1.6172,-1.6213,-1.5936,-1.4473,0.0,-1.3922,-1.3227,-1.344,-1.407,-1.4806,-1.5514,-1.6112,-1.6295,-1.65,-1.6794,-1.7139,-1.7757,0.0,-2.0456,-2.1207,-2.2432,0.0,0.0,0.0,-2.7524,-2.8041,-2.8291,0.0,-2.8291,0.0,-2.7394,-2.7733,-2.7636,0.0,-2.6121,-2.5686,-2.5497,-2.4526,-2.3939,-2.3939,-2.3939,-2.3939,-2.3939,-2.3176,-2.2818,-2.2818,-2.1726,-2.0818,-2.0067,-1.9526,-1.8918,-1.8199,-1.797,-1.8172,-1.8726,-1.8726,-1.8993,-1.9497,-1.9497,-1.9497,-1.9579,-2.026,-2.0845,-2.1391,0.0,0.0,0.0,0.0,0.0,0.0,0.0,0.0,0.0,0.0,0.0,0.0,0.0,0.0,0.0,0.0,0.0,0.0,0.0,0.0,0.0,-1.5539,-1.5746,-1.6955,-1.9396,-2.0618,-2.2415,-2.4803,0.0,0.0,0.0,0.0,0.0,0.0,0.0,0.0,0.0,0.0,0.0,0.0,0.0,0.0,0.0,0.0,0.0,0.0,0.0,0.0,0.0,0.0,-1.6697,-1.6606,-1.6855,-1.7093,-1.6982,-1.5553,-1.5102,-1.4777,-1.3385,-1.3782,-1.4626,-1.4626,-1.5365,-1.613,-1.6443,-1.6587,-1.6734,-1.7079,0.0,-1.9376,-1.9568,-2.0965,-2.2228,-2.2692,0.0,-2.5837,-2.6163,-2.7422,-2.8291,-2.8291,-2.8291,-2.7726,-2.6264,-2.6908,-2.6778,-2.5228,-2.4659,-2.4371,-2.4287,-2.2663,-2.1677,-2.1627,-2.1627,-2.1602,-2.1603,-2.1402,-2.1301,-2.1301,-2.0784,-1.9773,-1.8378,-1.8108,-1.7201,-1.5784,-1.5784,-1.6433,-1.7458,-1.7458,-1.8041,-1.8993,-1.8993,-1.8993,-1.9039,-1.9177,-1.9898,-2.0845,0.0,0.0,0.0,0.0,0.0,0.0,0.0,0.0,0.0,0.0,-2.1675,-2.1696,0.0,0.0,0.0,0.0,0.0,0.0,0.0,0.0,0.0,0.0,-2.205,-2.324,-2.5454,-2.6,-2.7673,0.0,0.0,0.0,0.0,0.0,0.0,0.0,0.0,0.0,0.0,0.0,0.0,0.0,0.0,0.0,0.0,0.0,0.0,0.0,0.0,0.0,0.0,0.0,-1.8672,-1.7989,-1.8258,-1.9131,-2.0023,-1.975,-1.9383,-1.9044,-1.8738,-1.8621,-1.851,-1.851,-1.7933,-1.738,-1.7438,-1.6896,0.0,0.0,-1.7218,-1.8004,-1.9376,-1.918,-1.9812,-2.2771,-2.3628,-2.4533,-2.6349,-2.7557,-2.8291,0.0,-2.8291,-2.7726,-2.6264,-2.6016,0.0,0.0,-2.2089,-2.2061,-2.4167,-2.2663,-2.1561,-2.1304,-2.1296,-2.1204,-2.0953,-1.9791,-1.9208,-1.9201,-1.7815,-1.7016,-1.6717,-1.6368,-1.6062,-1.5784,-1.5784,0.0,-1.6109,-1.6109,-1.6244,-1.6426,-1.6426,-1.6426,-1.6567,-1.7638,-1.8141,-1.8457,0.0,0.0,0.0,0.0,0.0,0.0,0.0,-2.2385,-2.3513,-2.4632,-2.415,-2.3773,-2.3996,-2.3585,-2.3581,0.0,0.0,0.0,0.0,0.0,0.0,0.0,0.0,-2.846,-3.1217,0.0,0.0,0.0,0.0,0.0,0.0,0.0,0.0,0.0,0.0,0.0,0.0,0.0,0.0,0.0,0.0,0.0,0.0,0.0,0.0,0.0,0.0,0.0,0.0,0.0,-2.0033,-2.0196,-1.9957,-2.054,-2.1237,-2.1046,-2.0863,-2.0599,-2.0218,-1.9948,-1.9815,-1.9815,-1.9222,-1.8681,-1.8909,0.0,0.0,0.0,-1.8058,-1.8485,-1.853,-1.8256,0.0,-2.0283,-2.1379,-2.2705,-2.4679,-2.5431,-2.6099,-2.7032,-2.6316,-2.5198,-2.3698,-2.3744,-2.3254,-2.1771,-2.0612,-2.0607,-2.2135,-2.0519,-1.9419,-1.9142,-1.9134,-1.897,-1.869,-1.8015,-1.7676,-1.7676,-1.675,-1.6321,-1.6308,-1.5965,-1.5784,-1.5784,-1.5784,-1.5784,-1.5784,-1.5784,-1.5784,-1.5784,-1.5784,-1.5784,-1.5872,-1.648,-1.7131,-1.7777,0.0,0.0,0.0,0.0,0.0,0.0,0.0,-2.2486,-2.3953,-2.606,-2.6117,-2.5796,-2.5315,-2.5516,-2.5842,0.0,0.0,0.0,0.0,0.0,0.0,0.0,0.0,0.0,0.0,0.0,0.0,0.0,0.0,0.0,0.0,0.0,0.0,0.0,0.0,0.0,0.0,0.0,0.0,0.0,0.0,0.0,0.0,0.0,0.0,0.0,0.0,0.0,0.0,0.0,-2.1686,-2.2281,-2.1761,-2.191,-2.2275,-2.21,-2.1979,-2.1733,-2.1195,-2.1031,-2.1014,-2.089,-2.0525,-2.0239,-2.045,-2.0609,0.0,-1.8811,-1.9078,-1.9169,-1.7838,-1.7782,-1.7916,0.0,-1.9502,-2.1209,-2.2691,-2.325,-2.4002,0.0,-2.4275,0.0,-2.1314,-2.1577,0.0,-1.9764,-1.9358,-1.933,-1.9692,-1.8383,-1.7422,-1.7112,-1.7105,-1.6881,-1.652,-1.652,-1.652,-1.6513,-1.6286,-1.6179,-1.6166,-1.5939,-1.5784,-1.5784,-1.5784,-1.5784,-1.5784,-1.5784,-1.5784,-1.5784,-1.5784,-1.5784,-1.5784,-1.5784,-1.6433,-1.7271,0.0,0.0,0.0,0.0,0.0,0.0,0.0,-2.2036,-2.304,-2.5552,-2.6233,-2.7022,-2.8325,-2.7752,-2.7866,0.0,0.0,0.0,0.0,0.0,0.0,0.0,0.0,0.0,0.0,0.0,0.0,0.0,0.0,0.0,0.0,0.0,0.0,0.0,0.0,0.0,0.0,0.0,0.0,0.0,0.0,0.0,0.0,0.0,0.0,0.0,0.0,0.0,0.0,0.0,0.0,-2.3473,-2.3522,-2.3813,-2.4217,-2.462,0.0,0.0,-2.4042,-2.4023,-2.3927,-2.3551,-2.2871,-2.2218,-2.1904,0.0,-2.0614,-1.8856,-1.9078,-1.9169,-1.7838,-1.7609,-1.7716,-1.7949,0.0,-2.0828,-2.1262,-2.2736,-2.3844,-2.3989,0.0,0.0,-2.1251,-2.071,-1.987,-1.8306,-1.7968,-1.7799,-1.7826,-1.7701,-1.7328,-1.6767,-1.6747,-1.6473,-1.5871,-1.5864,-1.5864,-1.5864,-1.5838,-1.5872,-1.5824,-1.5791,-1.5784,-1.5784,-1.5784,-1.5784,0.0,-1.5784,-1.5784,-1.5784,-1.5784,-1.5784,-1.5784,-1.5784,-1.5872,-1.5967,0.0,0.0,0.0,0.0,0.0,0.0,-2.1164,-2.1463,-2.2759,-2.5892,-2.647,-2.7327,-2.9225,-2.912,-2.913,-2.9728,0.0,0.0,0.0,0.0,0.0,0.0,0.0,0.0,0.0,0.0,0.0,0.0,0.0,0.0,0.0,0.0,0.0,0.0,0.0,0.0,0.0,0.0,0.0,0.0,0.0,0.0,0.0,0.0,0.0,0.0,0.0,0.0,0.0,0.0,0.0,0.0,-2.5498,-2.5077,0.0,0.0,-2.4736,-2.4756,-2.4492,-2.4609,-2.4766,-2.46,-2.4148,-2.3728,-2.3823,0.0,-2.3082,-2.1519,-2.1652,-2.1405,-1.922,-1.9524,-1.9561,-1.8008,-1.9059,-2.0249,-2.0773,-2.0707,-2.1029,-2.203,-2.1176,0.0,0.0,0.0,-1.8432,-1.7822,-1.7655,-1.7508,-1.738,-1.7373,-1.7186,-1.672,-1.6533,-1.6246,-1.5784,-1.5784,-1.5784,-1.5784,-1.5784,-1.5784,-1.5784,-1.5784,-1.5784,-1.5784,-1.5784,-1.5784,0.0,-1.5784,-1.5784,-1.5784,-1.5784,-1.5784,-1.5784,-1.5784,-1.5784,-1.5784,0.0,0.0,0.0,0.0,0.0,-2.078,-2.1126,-2.1564,-2.2985,-2.6162,-2.659,-2.7412,-2.9589,-2.9792,-2.9792,-2.9792,-3.1513,0.0,0.0,0.0,0.0,0.0,0.0,0.0,0.0,0.0,0.0,0.0,0.0,0.0,0.0,0.0,0.0,0.0,0.0,0.0,0.0,0.0,0.0,0.0,0.0,0.0,0.0,0.0,0.0,0.0,0.0,0.0,0.0,0.0,0.0,0.0,0.0,0.0,0.0,0.0,-2.471,-2.4648,-2.4463,-2.4736,-2.5116,-2.5116,-2.4941,-2.4853,-2.5029,-2.5166,-2.4833,-2.3308,-2.3363,-2.2976,-2.0641,-2.1041,-2.1092,-1.9109,-1.9784,-2.0551,-2.0647,-1.9921,-1.9689,-2.0498,0.0,-1.841,-1.8142,-1.7816,-1.7582,-1.7582,-1.7582,-1.7455,-1.7213,-1.7119,-1.6938,-1.6587,-1.638,-1.6126,-1.5784,-1.5784,-1.5784,-1.5784,-1.5784,-1.5784,-1.5784,-1.5784,-1.5784,-1.5784,-1.5784,-1.5784,0.0,-1.5784,-1.5784,-1.5784,-1.5784,-1.5784,-1.5784,-1.5784,-1.5784,-1.5784,0.0,0.0,0.0,0.0,0.0,0.0,-2.206,-2.2507,-2.3794,-2.6275,-2.659,-2.7412,-2.9589,-2.9792,-2.9792,-2.9792,-3.1513,0.0,0.0,0.0,0.0,0.0,0.0,0.0,0.0,0.0,0.0,-4.1178,-4.1914,0.0,0.0,0.0,0.0,0.0,0.0,0.0,0.0,0.0,0.0,0.0,0.0,0.0,0.0,0.0,0.0,0.0,0.0,0.0,0.0,0.0,0.0,0.0,0.0,0.0,0.0,0.0,-2.4662,-2.3896,-2.4307,-2.4736,-2.5116,-2.5116,-2.54,-2.5557,-2.5166,-2.541,-2.5198,-2.3372,-2.3363,-2.3285,-2.1954,-2.1693,-2.1693,-2.1651,-2.221,-2.2146,-2.0715,-2.1111,-2.1023,0.0,0.0,-1.849,-1.849,-1.7936,-1.7582,-1.7582,-1.7582,-1.7455,-1.7213,-1.6874,-1.6573,-1.6286,-1.6321,-1.6126,-1.5784,-1.5784,-1.5784,-1.5784,-1.5784,-1.5784,-1.5784,-1.5784,-1.5784,-1.5784,-1.5784,-1.5784,0.0,-1.5784,-1.5784,-1.5784,-1.5784,-1.5784,-1.5784,-1.5784,-1.5784,-1.5784,0.0,0.0,0.0,0.0,0.0,0.0,0.0,-2.4774,-2.5891,-2.8157,-2.8443,-2.9278,-3.1462,-3.1156,-3.0758,-3.0758,-3.1291,0.0,0.0,0.0,0.0,0.0,0.0,0.0,0.0,0.0,-4.0624,-4.2641,-4.2366,-4.2364,-4.2549,-4.1826,0.0,0.0,0.0,0.0,0.0,0.0,0.0,0.0,0.0,0.0,0.0,0.0,0.0,0.0,0.0,0.0,0.0,0.0,0.0,0.0,0.0,0.0,0.0,-2.73,-2.6668,0.0,-2.5238,-2.545,-2.5615,-2.4805,-2.4951,-2.5244,-2.5145,-2.541,-2.5548,-2.4956,-2.4974,-2.4658,-2.3326,-2.3076,-2.2552,-2.0851,-2.077,0.0,-1.9536,-1.948,0.0,-1.8821,-1.8237,-1.7869,0.0,0.0,-1.7582,-1.7582,-1.7454,-1.7213,-1.686,-1.6567,-1.6366,-1.6279,-1.6079,-1.5925,-1.5784,-1.5784,-1.5784,-1.5784,-1.5784,-1.5784,-1.5784,-1.5784,-1.5784,-1.5784,-1.5784,-1.5784,-1.5784,-1.5784,-1.5784,-1.5784,-1.5784,-1.5784,-1.5784,-1.5784,-1.5784,-1.5784,0.0,0.0,0.0,0.0,0.0,0.0,0.0,-2.7633,-2.8602,-3.0432,-3.0421,-3.0958,-3.2842,-3.2244,-3.1666,-3.1521,-3.1497,0.0,0.0,0.0,0.0,0.0,0.0,0.0,0.0,-3.9091,-4.0806,-4.2935,-4.3272,-4.3545,-4.3722,-4.2891,-4.1236,-3.8905,0.0,0.0,0.0,0.0,0.0,0.0,0.0,0.0,0.0,0.0,0.0,0.0,0.0,0.0,0.0,0.0,0.0,0.0,0.0,0.0,0.0,0.0,-2.7784,-2.7288,-2.6292,-2.593,-2.5757,-2.5381,-2.5181,-2.5165,-2.5283,-2.5537,-2.5693,-2.5693,-2.5693,-2.543,-2.4609,-2.4048,-2.3206,-2.1707,-2.1244,-2.0719,0.0,0.0,0.0,-1.8405,-1.7989,0.0,0.0,-1.7582,-1.7582,-1.7582,-1.7367,-1.7072,-1.672,-1.6433,-1.6219,-1.6112,-1.5925,-1.5784,-1.5784,-1.5784,-1.5784,-1.5784,-1.5784,-1.5784,-1.5784,-1.5784,-1.5784,-1.5784,-1.5784,-1.5784,0.0,-1.5784,-1.5784,-1.5784,-1.5784,-1.5784,-1.5784,-1.5784,-1.5784,-1.5784,0.0,0.0,0.0,0.0,0.0,0.0,0.0,-3.0867,-3.1683,-3.3036,-3.256,-3.2597,-3.3935,-3.3316,-3.2648,-3.2337,0.0,0.0,0.0,0.0,0.0,0.0,0.0,0.0,0.0,-3.9944,-4.1494,-4.2434,-4.444,-4.5153,-4.4648,-4.3736,-4.2494,-4.1018,-3.8764,0.0,0.0,0.0,0.0,0.0,0.0,0.0,0.0,0.0,0.0,0.0,0.0,0.0,0.0,0.0,0.0,0.0,0.0,0.0,0.0,0.0,0.0,0.0,0.0,-2.6324,-2.5721,-2.6466,-2.5855,-2.5176,-2.5596,-2.5664,0.0,-2.5693,-2.5693,-2.5693,-2.5693,-2.451,-2.3543,-2.3578,-2.2893,-2.1916,0.0,-2.0688,0.0,0.0,-1.7962,0.0,-1.7609,-1.7582,-1.7575,-1.7555,-1.7333,-1.7038,-1.6693,-1.64,-1.6112,-1.5791,-1.5784,-1.5784,-1.5784,-1.5784,-1.5784,-1.5784,-1.5784,-1.5784,-1.5784,-1.5784,-1.5784,0.0,-1.5784,-1.5784,-1.5784,-1.5784,-1.5784,-1.5784,-1.5784,-1.5784,-1.5784,-1.5784,-1.5784,-1.5784,0.0,0.0,0.0,0.0,0.0,0.0,0.0,0.0,0.0,0.0,-3.4917,-3.5308,-3.6729,-3.551,-3.4769,0.0,0.0,0.0,0.0,0.0,0.0,0.0,0.0,0.0,0.0,-3.9162,-4.0922,-4.3906,-4.4404,-4.4888,-4.5276,-4.4475,-4.3369,-4.1914,-3.965,-3.6587,0.0,0.0,0.0,0.0,0.0,0.0,0.0,0.0,0.0,0.0,-3.0281,-3.0093,0.0,0.0,0.0,0.0,0.0,0.0,0.0,0.0,-2.6883,-2.6823,-2.67,0.0,-2.666,-2.6462,-2.5762,-2.5145,0.0,-2.5488,-2.5693,-2.5693,-2.5693,-2.5693,-2.5693,-2.3791,-2.2257,-2.245,-2.0567,-1.9073,-1.8988,-1.8824,-1.8475,-1.7789,-1.7695,-1.7662,-1.7589,-1.7582,-1.7488,-1.732,-1.6981,-1.668,-1.6386,-1.6092,-1.5905,-1.5784,-1.5784,-1.5784,-1.5784,-1.5784,-1.5784,-1.5784,-1.5784,-1.5784,-1.5784,-1.5784,-1.5784,-1.5784,-1.5784,-1.5784,-1.5784,-1.5784,-1.5784,-1.5784,-1.5784,-1.5784,-1.5784,-1.5784,-1.5784,-1.5784,0.0,0.0,0.0,0.0,0.0,0.0,0.0,0.0,0.0,0.0,0.0,-3.6729,-3.8156,-3.7154,0.0,0.0,0.0,0.0,0.0,0.0,0.0,0.0,0.0,0.0,-3.8288,-3.9318,-4.101,-4.3393,-4.4415,-4.4768,-4.454,-4.4431,-4.343,-4.1597,-3.8867,-3.5917,0.0,0.0,0.0,0.0,0.0,0.0,0.0,0.0,0.0,0.0,-2.9892,-2.9792,0.0,-2.7907,-2.7371,-2.7075,0.0,0.0,0.0,0.0,-2.5714,-2.5893,-2.6668,-2.6742,-2.6616,-2.6518,-2.5902,-2.543,-2.5625,-2.5703,-2.5693,-2.5693,-2.5226,-2.4766,-2.4766,-2.2567,-2.0806,-2.0952,-1.9305,-1.8049,-1.8263,-1.8089,-1.7876,-1.7615,-1.7582,-1.7582,0.0,-1.7514,-1.7373,-1.7213,-1.6797,-1.644,-1.6328,-1.5992,-1.5784,-1.5784,-1.5784,-1.5784,-1.5784,-1.5784,-1.5784,-1.5784,-1.5784,-1.5784,-1.5784,-1.5784,-1.5784,-1.5784,-1.5784,-1.5784,-1.5784,-1.5784,-1.5784,-1.5784,-1.5784,-1.5784,-1.5784,-1.5784,-1.5784,-1.5784,0.0,0.0,0.0,0.0,0.0,0.0,0.0,0.0,0.0,0.0,0.0,0.0,0.0,0.0,0.0,0.0,0.0,0.0,0.0,0.0,0.0,0.0,0.0,-3.7525,-3.7761,-3.9897,-4.1391,-4.2202,-4.4201,-4.4574,-4.342,-4.3872,-4.2923,-4.0758,-3.8121,-3.5781,0.0,0.0,0.0,0.0,0.0,0.0,0.0,0.0,0.0,0.0,0.0,0.0,0.0,-2.6924,-2.6224,-2.585,-2.3767,0.0,0.0,0.0,0.0,0.0,-2.6344,-2.6375,-2.6086,-2.6597,-2.6229,-2.5781,-2.6201,0.0,0.0,0.0,0.0,0.0,0.0,-2.1344,-1.9635,-1.9583,-1.8685,-1.7922,-1.7922,-1.7922,-1.7822,-1.7615,-1.7582,0.0,-1.7522,-1.7347,-1.7166,-1.7072,-1.6603,-1.6301,-1.6206,-1.5965,-1.5784,-1.5784,-1.5784,-1.5784,-1.5784,-1.5784,-1.5784,-1.5784,-1.5784,-1.5784,-1.5784,-1.5784,-1.5784,-1.5784,0.0,0.0,-1.5784,-1.5784,-1.5784,-1.5784,-1.5784,-1.5784,-1.5784,-1.5784,-1.5784,-1.5784,0.0,0.0,0.0,0.0,0.0,0.0,0.0,0.0,0.0,0.0,0.0,0.0,0.0,0.0,0.0,0.0,0.0,0.0,0.0,0.0,0.0,0.0,-3.6618,-3.777,-3.849,-4.0151,-4.1421,-4.2274,-4.325,-4.3603,-4.3375,-4.2877,-4.1775,-4.0242,-4.0262,-3.8598,-3.5745,0.0,0.0,0.0,0.0,0.0,0.0,0.0,0.0,0.0,0.0,0.0,0.0,-2.5504,-2.5041,-2.483,-2.3507,0.0,0.0,0.0,0.0,0.0,-2.4142,-2.4814,-2.5535,-2.6599,-2.6286,-2.5703,-2.5771,-2.5732,0.0,0.0,0.0,0.0,0.0,-2.0936,-1.9904,-1.9672,-1.8496,-1.7655,-1.7655,-1.7655,-1.7635,-1.7589,0.0,-1.7482,-1.7293,-1.7226,-1.6998,-1.6496,-1.6375,-1.6166,-1.5912,-1.5804,-1.5784,-1.5784,-1.5784,-1.5784,-1.5784,-1.5784,-1.5784,-1.5784,-1.5784,-1.5784,-1.5784,-1.5784,-1.5784,-1.5784,0.0,-1.5784,-1.5784,-1.5784,-1.5784,-1.5784,-1.5784,-1.5784,-1.5784,-1.5784,-1.5784,-1.5784,0.0,0.0,0.0,0.0,0.0,0.0,0.0,0.0,0.0,0.0,0.0,0.0,0.0,0.0,0.0,0.0,0.0,0.0,0.0,0.0,0.0,-3.5394,-3.6466,-3.7356,-3.7968,-3.9508,-4.053,-4.1002,-4.1811,-4.2439,-4.2811,-4.2455,-4.1735,-4.0682,-4.0488,-3.9217,-3.7182,0.0,0.0,0.0,0.0,0.0,0.0,0.0,0.0,0.0,0.0,0.0,0.0,0.0,-2.4787,-2.4585,-2.3474,0.0,0.0,0.0,0.0,0.0,-2.3379,-2.3551,-2.3787,-2.4331,-2.5275,-2.6084,-2.6084,-2.5339,0.0,0.0,0.0,0.0,0.0,-1.9598,-1.8728,-1.8527,-1.7989,-1.7582,-1.7582,-1.7582,-1.7582,0.0,0.0,-1.7347,-1.7213,-1.6911,-1.6616,-1.6342,-1.6126,-1.5972,-1.5791,-1.5784,-1.5784,-1.5784,-1.5784,-1.5784,-1.5784,-1.5784,-1.5784,-1.5784,-1.5784,-1.5784,-1.5784,-1.5784,-1.5784,-1.5784,0.0,-1.5784,-1.5784,-1.5784,-1.5784,-1.5784,-1.5784,-1.5784,-1.5784,-1.5784,-1.5784,-1.5784,0.0,0.0,0.0,0.0,0.0,0.0,0.0,0.0,0.0,0.0,0.0,0.0,0.0,0.0,0.0,0.0,0.0,0.0,0.0,0.0,-3.6128,-3.5432,-3.5825,-3.6329,-3.6823,-3.8565,-3.9436,-3.9386,-4.0433,-4.1405,-4.2286,-4.2472,-4.227,-4.168,-4.0983,-3.9961,-3.8705,-3.7758,-3.6451,0.0,0.0,0.0,0.0,0.0,0.0,0.0,0.0,0.0,0.0,0.0,0.0,0.0,0.0,0.0,0.0,-2.3091,-2.3091,-2.3076,-2.29,-2.2565,-2.2252,-2.2049,-2.3618,-2.5223,-2.5267,-2.4144,-2.302,0.0,0.0,0.0,0.0,-1.8297,-1.7609,-1.7675,-1.7629,-1.7582,-1.7582,-1.7522,-1.7534,-1.7534,-1.7273,-1.7072,-1.7005,-1.6583,-1.6295,-1.6172,-1.5959,-1.5784,-1.5784,-1.5784,-1.5784,-1.5784,-1.5784,-1.5784,-1.5784,-1.5784,-1.5784,-1.5784,-1.5784,-1.5784,-1.5784,-1.5784,-1.5784,-1.5784,-1.5784,-1.5784,-1.5784,-1.5784,-1.5784,-1.5784,-1.5784,-1.5784,-1.5784,-1.5784,-1.5784,-1.5784,0.0,0.0,0.0,0.0,0.0,0.0,0.0,0.0,0.0,0.0,0.0,0.0,0.0,0.0,0.0,0.0,0.0,0.0,0.0,0.0,-3.5394,-3.5317,-3.447,-3.438,-3.5169,-3.7534,-3.8478,-3.7872,-3.9424,-4.0917,-4.2303,-4.3014,-4.328,-4.3242,-4.3111,-4.2189,-4.0626,-3.9428,-3.7823,0.0,0.0,0.0,0.0,0.0,0.0,0.0,0.0,0.0,0.0,0.0,0.0,0.0,0.0,0.0,-2.3091,-2.3091,-2.3091,-2.2959,-2.2253,-2.2071,-2.1865,-2.1108,-2.1265,-2.1668,-2.1963,-2.1703,0.0,-2.0118,0.0,0.0,0.0,-1.7687,-1.7675,-1.7909,-1.7769,-1.7582,-1.7582,-1.7407,-1.7233,-1.7233,-1.6921,-1.6633,-1.6415,-1.6348,-1.6159,-1.5879,-1.5791,-1.5784,-1.5784,-1.5784,-1.5784,-1.5784,-1.5784,-1.5784,-1.5784,-1.5784,-1.5784,-1.5784,-1.5784,-1.5784,-1.5784,-1.5784,-1.5784,-1.5784,-1.5784,-1.5784,-1.5784,-1.5784,-1.5784,-1.5784,-1.5784,-1.5784,-1.5784,-1.5784,-1.5784,-1.5784,0.0,0.0,0.0,0.0,0.0,0.0,0.0,0.0,0.0,0.0,0.0,0.0,0.0,0.0,0.0,0.0,0.0,0.0,0.0,0.0,-3.4815,-3.427,-3.382,-3.3536,-3.3501,-3.5414,-3.6607,-3.7033,-3.9541,-4.1297,-4.2271,-4.3564,-4.4147,-4.4119,-4.3547,-4.2961,-4.2302,-4.0758,-3.9298,-3.7837,0.0,0.0,0.0,0.0,0.0,0.0,0.0,0.0,0.0,0.0,-2.3091,-2.3091,-2.3091,-2.3091,-2.3091,-2.3091,-2.3091,-2.2901,-2.1815,-2.1289,-2.0688,-1.9463,-1.8777,0.0,0.0,-2.0658,-1.988,-1.9663,-1.8968,0.0,0.0,0.0,-1.7622,-1.7736,-1.7662,-1.7522,-1.7387,-1.7266,-1.7132,-1.6894,-1.6613,-1.6393,-1.6335,-1.6106,-1.5952,-1.5791,-1.5784,-1.5784,-1.5784,-1.5784,-1.5784,-1.5784,-1.5784,-1.5784,-1.5784,-1.5784,-1.5784,-1.5784,-1.5784,-1.5784,-1.5784,-1.5784,-1.5784,-1.5784,-1.5784,-1.5784,-1.5784,-1.5784,-1.5784,-1.5784,-1.5784,-1.5784,-1.5784,-1.5784,-1.5784,-1.5784,0.0,0.0,0.0,0.0,0.0,0.0,0.0,0.0,0.0,0.0,0.0,0.0,0.0,0.0,0.0,0.0,0.0,0.0,0.0,-3.5926,-3.464,-3.4026,-3.3321,-3.3056,-3.3303,-3.3938,-3.501,-3.6565,-3.9352,-4.1222,-4.2219,-4.3568,-4.4327,-4.457,-4.346,-4.299,-4.287,-4.1405,-4.0001,-3.8668,0.0,0.0,0.0,0.0,0.0,0.0,0.0,0.0,0.0,0.0,-2.3091,-2.3091,0.0,0.0,0.0,0.0,-2.2818,-2.2262,-2.1069,-2.013,-1.9216,-1.7864,0.0,0.0,-1.9422,-1.9152,-1.8513,-1.8881,-1.8251,-1.7582,-1.7582,0.0,0.0,-1.7442,-1.7368,-1.7235,-1.7092,-1.6978,-1.6851,-1.6593,-1.6313,-1.6132,-1.6132,-1.5945,-1.5784,-1.5784,-1.5784,-1.5784,-1.5784,-1.5784,-1.5784,-1.5784,-1.5784,-1.5784,-1.5784,-1.5784,-1.5784,-1.5784,-1.5784,-1.5784,-1.5784,-1.5784,-1.5784,-1.5784,-1.5784,-1.5784,-1.5784,-1.5784,-1.5784,-1.5784,-1.5784,-1.5784,-1.5784,-1.5784,-1.5784,-1.5784,0.0,0.0,0.0,0.0,0.0,0.0,0.0,0.0,0.0,0.0,0.0,0.0,0.0,0.0,0.0,0.0,0.0,0.0,-3.7793,-3.5974,-3.4901,-3.4887,-3.304,-3.2928,-3.4852,-3.3402,-3.3894,-3.6492,-3.8652,-4.0563,-4.2206,-4.296,-4.3739,-4.4508,-4.2986,-4.2244,-4.2127,-4.1313,-3.9855,0.0,0.0,0.0,0.0,0.0,0.0,0.0,0.0,0.0,0.0,0.0,-2.3091,-2.3091,-2.3101,0.0,0.0,-2.3047,-2.2217,-2.1025,-1.9807,-1.8596,-1.7493,-1.6532,0.0,0.0,-1.7065,-1.6914,-1.6881,-1.7462,-1.7582,-1.7582,-1.7582,-1.7393,0.0,-1.7199,-1.6901,-1.6707,-1.67,-1.6453,-1.6321,-1.6321,-1.6012,-1.5784,-1.5784,-1.5784,-1.5784,-1.5784,-1.5784,-1.5784,-1.5784,-1.5784,-1.5784,-1.5784,-1.5784,-1.5784,-1.5784,-1.5784,-1.5784,-1.5784,-1.5784,-1.5784,-1.5784,-1.5784,-1.5784,-1.5784,-1.5784,-1.5784,-1.5784,-1.5784,-1.5784,-1.5784,-1.5784,-1.5784,-1.5784,-1.5784,-1.5784,-1.5784,0.0,0.0,0.0,0.0,0.0,0.0,0.0,0.0,0.0,0.0,0.0,0.0,0.0,0.0,0.0,0.0,0.0,0.0,-3.7793,-3.6238,-3.47,-3.3346,-3.2726,-3.269,-3.3275,-3.5062,-3.6369,-3.7135,-3.8391,-3.973,-4.1162,-4.261,-4.2859,-4.2064,-4.2226,-4.1684,0.0,0.0,0.0,0.0,0.0,0.0,0.0,0.0,0.0,0.0,0.0,0.0,0.0,0.0,0.0,0.0,-2.212,0.0,0.0,-2.0809,-2.0305,-1.9761,-1.8549,-1.813,-1.7666,-1.6273,-1.6273,0.0,0.0,-1.6837,0.0,0.0,-1.7474,-1.7333,-1.7333,-1.7034,0.0,-1.684,-1.6767,-1.6633,-1.6433,-1.6326,-1.6192,-1.5985,-1.5838,-1.5784,-1.5784,-1.5784,-1.5784,-1.5784,-1.5784,-1.5784,-1.5784,-1.5784,-1.5784,-1.5784,-1.5784,-1.5784,-1.5784,-1.5784,-1.5784,-1.5784,-1.5784,-1.5784,-1.5784,-1.5784,-1.5784,-1.5784,-1.5784,-1.5784,-1.5784,-1.5784,-1.5784,-1.5784,-1.5784,-1.5784,-1.5784,-1.5784,-1.5784,-1.5784,0.0,0.0,0.0,0.0,0.0,0.0,0.0,0.0,0.0,0.0,0.0,0.0,0.0,0.0,0.0,0.0,0.0,0.0,0.0,0.0,-3.4986,-3.3788,-3.2996,-3.2538,-3.2386,-3.503,-3.6674,-3.7155,-3.8111,-3.9164,-4.0321,-4.139,-4.1417,-4.0602,-4.0786,-4.0383,-3.9544,0.0,0.0,0.0,-3.8039,-3.6873,-3.5414,0.0,0.0,0.0,0.0,0.0,0.0,0.0,0.0,0.0,-2.098,0.0,-2.044,-1.9716,-1.9177,-1.8642,-1.7917,-1.7457,-1.7005,-1.6353,-1.644,-1.6693,-1.6683,0.0,0.0,0.0,-1.7094,-1.7025,-1.7025,-1.6734,0.0,-1.6533,-1.6433,-1.6299,-1.6119,-1.6092,-1.6032,-1.5804,-1.5784,-1.5784,-1.5784,-1.5784,-1.5784,-1.5784,-1.5784,-1.5784,-1.5784,-1.5784,-1.5784,-1.5784,-1.5784,-1.5784,-1.5784,-1.5784,-1.5784,-1.5784,-1.5784,-1.5784,-1.5784,-1.5784,-1.5784,-1.5784,-1.5784,-1.5784,-1.5784,-1.5784,-1.5784,-1.5784,-1.5784,-1.5784,-1.5784,-1.5784,-1.5784,-1.5784,0.0,0.0,0.0,0.0,0.0,0.0,0.0,0.0,0.0,0.0,0.0,0.0,0.0,0.0,0.0,0.0,0.0,0.0,0.0,0.0,-3.5522,-3.5359,-3.3638,-3.2522,-3.2183,-3.413,-3.5726,-3.6884,-3.7857,-3.8754,-3.9568,0.0,-3.9642,-3.9652,0.0,-3.8607,0.0,0.0,0.0,-3.7591,-3.8243,-3.7147,-3.5021,-3.3895,0.0,0.0,0.0,0.0,0.0,0.0,0.0,0.0,-1.9898,-1.9405,-1.9314,-1.9222,-1.8403,-1.7552,-1.7552,-1.6683,-1.5999,-1.6533,-1.6667,-1.6734,-1.7058,-1.684,-1.664,-1.6693,0.0,-1.6667,-1.6667,-1.6426,-1.6233,-1.6233,-1.6005,-1.5784,-1.5784,-1.5784,-1.5784,-1.5784,-1.5784,-1.5784,-1.5784,-1.5784,-1.5784,-1.5784,-1.5784,-1.5784,-1.5784,-1.5784,-1.5784,-1.5784,-1.5784,-1.5784,-1.5784,-1.5784,-1.5784,-1.5784,-1.5784,-1.5784,-1.5784,-1.5784,-1.5784,-1.5784,-1.5784,-1.5784,-1.5784,-1.5784,-1.5784,-1.5784,-1.5784,-1.5784,-1.5784,-1.5784,-1.5784,-1.5784,0.0,0.0,0.0,0.0,0.0,0.0,0.0,0.0,0.0,0.0,0.0,0.0,0.0,0.0,0.0,0.0,0.0,0.0,0.0,0.0,-3.574,-3.438,-3.3635,-3.3302,-3.341,-3.5367,-3.6784,-3.7575,-3.76,-3.7972,0.0,0.0,0.0,-3.7255,0.0,-3.7293,0.0,0.0,0.0,-3.6832,-3.6987,-3.6723,-3.6081,-3.4496,-3.3017,0.0,0.0,0.0,0.0,0.0,0.0,0.0,-1.9898,-1.8864,-1.7909,-1.6889,-1.6426,-1.6204,-1.6204,-1.6184,-1.6206,-1.6333,-1.6366,-1.638,-1.6496,-1.6233,-1.6146,-1.6613,-1.6526,-1.6366,-1.6366,-1.6126,-1.5925,-1.5925,-1.5872,-1.5784,-1.5784,-1.5784,-1.5784,-1.5784,-1.5784,-1.5784,-1.5784,-1.5784,-1.5784,-1.5784,-1.5784,-1.5784,-1.5784,-1.5784,-1.5784,-1.5784,-1.5784,-1.5784,-1.5784,-1.5784,-1.5784,-1.5784,-1.5784,-1.5784,-1.5784,-1.5784,-1.5784,-1.5784,-1.5784,-1.5784,-1.5784,-1.5784,-1.5784,-1.5784,-1.5784,-1.5784,-1.5784,-1.5784,-1.5784,-1.5784,0.0,0.0,0.0,0.0,0.0,0.0,0.0,0.0,0.0,0.0,0.0,0.0,0.0,0.0,0.0,0.0,0.0,0.0,0.0,0.0,-3.5837,-3.4095,-3.336,-3.2989,-3.2961,-3.4042,-3.4875,-3.5498,-3.6014,0.0,0.0,0.0,0.0,-3.6525,0.0,-3.6985,0.0,0.0,-3.6086,-3.6086,-3.6086,-3.6086,-3.5991,-3.5055,-3.4052,-3.3031,-3.2005,0.0,0.0,0.0,0.0,0.0,0.0,0.0,-1.7458,-1.615,-1.5784,-1.5784,-1.5784,-1.5945,-1.6092,-1.6239,-1.6321,-1.6321,-1.6321,-1.6046,-1.5871,-1.6226,-1.6166,-1.6059,-1.6059,-1.5932,-1.5784,-1.5784,-1.5784,-1.5784,-1.5784,-1.5784,-1.5784,-1.5784,-1.5784,-1.5784,-1.5784,-1.5784,-1.5784,-1.5784,-1.5784,-1.5784,-1.5784,-1.5784,-1.5784,-1.5784,-1.5784,-1.5784,-1.5784,-1.5784,-1.5784,-1.5784,-1.5784,-1.5784,-1.5784,-1.5784,-1.5784,-1.5784,-1.5784,-1.5784,-1.5784,-1.5784,-1.5784,-1.5784,-1.5784,-1.5784,-1.5784,-1.5784,-1.5784,-1.5784,0.0,0.0,0.0,0.0,0.0,0.0,0.0,0.0,0.0,0.0,0.0,0.0,0.0,0.0,0.0,0.0,0.0,0.0,0.0,-3.6919,-3.5753,-3.422,-3.3255,-3.254,-3.2144,-3.2261,-3.2537,-3.2987,-3.4301,0.0,0.0,0.0,0.0,-3.6507,0.0,0.0,0.0,0.0,-3.5504,-3.5504,-3.5504,-3.5504,-3.5504,-3.5504,-3.4986,-3.4245,-3.4061,-3.2793,-3.0942,-2.8958,0.0,0.0,0.0,0.0,-1.7708,-1.6473,-1.5967,-1.5784,-1.5784,-1.5818,-1.5965,-1.6213,-1.6321,0.0,-1.6206,-1.6005,-1.5784,-1.5784,-1.5784,-1.5784,-1.5784,-1.5784,-1.5784,-1.5784,-1.5784,-1.5784,-1.5784,-1.5784,-1.5784,-1.5784,-1.5784,-1.5784,-1.5784,-1.5784,-1.5784,-1.5784,-1.5784,-1.5784,-1.5784,-1.5784,-1.5784,-1.5784,-1.5784,-1.5784,-1.5784,-1.5784,-1.5784,-1.5784,-1.5784,-1.5784,-1.5784,-1.5784,-1.5784,-1.5784,-1.5784,-1.5784,-1.5784,-1.5784,-1.5784,-1.5784,-1.5784,-1.5784,-1.5784,-1.5784,-1.5784,-1.5784,0.0,0.0,0.0,0.0,0.0,0.0,0.0,0.0,0.0,0.0,0.0,-4.0926,-4.1018,-4.2038,0.0,0.0,0.0,0.0,-3.7962,0.0,0.0,-3.4827,-3.3828,-3.3115,-3.2698,-3.2816,-3.2947,-3.2987,0.0,0.0,0.0,0.0,0.0,-3.6492,0.0,0.0,0.0,0.0,0.0,-3.5504,-3.5504,-3.5504,-3.5504,-3.5504,-3.5439,-3.518,-3.4312,-3.3232,-3.2025,-3.0929,-2.847,0.0,0.0,0.0,-1.8889,-1.7747,-1.6669,-1.5784,-1.5784,-1.6019,-1.6226,-1.6308,-1.6321,-1.6206,0.0,0.0,-1.5784,0.0,-1.5784,-1.5784,-1.5784,-1.5784,-1.5784,-1.5784,-1.5784,-1.5784,-1.5784,-1.5784,-1.5784,-1.5784,-1.5784,-1.5784,-1.5784,-1.5784,-1.5784,-1.5784,-1.5784,-1.5784,-1.5784,-1.5784,-1.5784,-1.5784,-1.5784,-1.5784,-1.5784,-1.5784,-1.5784,-1.5784,-1.5784,-1.5784,-1.5784,-1.5784,-1.5784,-1.5784,-1.5784,-1.5784,-1.5784,-1.5784,-1.5784,-1.5784,-1.5784,-1.5784,-1.5784,-1.5784,-1.5784,-1.5784,0.0,0.0,0.0,0.0,0.0,0.0,0.0,0.0,0.0,0.0,0.0,-4.0577,-4.0856,-4.138,0.0,0.0,0.0,0.0,-3.7933,-3.6352,0.0,0.0,-3.3769,-3.2864,-3.2695,-3.1704,-3.1216,-3.1216,0.0,0.0,0.0,-3.5748,-3.6911,0.0,0.0,0.0,0.0,0.0,0.0,-3.5504,-3.5504,-3.5504,-3.5504,-3.5504,-3.5504,-3.5424,-3.4986,-3.4533,-3.3975,-3.3017,-3.0976,-2.8431,-2.6109,0.0,0.0,0.0,-1.7318,-1.6716,-1.5967,-1.5925,-1.6025,-1.6025,-1.6025,-1.5794,-1.4927,-1.4752,-1.4513,-1.3788,-1.422,-1.4949,-1.5683,-1.5784,-1.5784,-1.5784,-1.5784,-1.5784,-1.5784,-1.5784,-1.5784,-1.5784,-1.5784,-1.5784,-1.5784,-1.5784,-1.5784,-1.5784,-1.5784,-1.5784,-1.5784,-1.5784,-1.5784,-1.5784,-1.5784,-1.5784,-1.5784,-1.5784,-1.5784,-1.5784,-1.5784,-1.5784,-1.5784,-1.5784,-1.5784,-1.5784,-1.5784,-1.5784,-1.5784,-1.5784,-1.5784,-1.5784,-1.5784,-1.5784,-1.5784,-1.5784,-1.5784,-1.5683,0.0,0.0,0.0,0.0,0.0,0.0,0.0,0.0,0.0,0.0,0.0,0.0,-4.0655,0.0,0.0,0.0,0.0,0.0,-3.795,0.0,0.0,0.0,0.0,-3.2593,-3.2593,-3.0746,-2.9792,0.0,0.0,0.0,-3.3278,-3.4802,-3.6835,0.0,-3.8644,-3.7943,0.0,0.0,0.0,0.0,0.0,-3.5504,-3.5504,-3.5504,-3.5504,-3.5504,-3.5504,-3.5504,-3.5392,-3.461,-3.3219,-3.1249,-2.829,-2.5686,0.0,0.0,0.0,-1.7505,-1.6527,-1.6062,-1.5784,-1.5784,-1.5581,-1.5045,0.0,0.0,-1.3102,-1.2091,-1.2716,-1.3686,-1.4615,-1.5343,-1.5784,-1.5784,-1.5784,-1.5784,-1.5784,-1.5784,-1.5784,-1.5784,-1.5784,-1.5784,-1.5784,-1.5784,-1.5784,-1.5784,-1.5784,-1.5784,-1.5784,-1.5784,-1.5784,-1.5784,-1.5784,-1.5784,-1.5784,-1.5784,-1.5784,-1.5784,-1.5784,-1.5784,-1.5784,-1.5784,-1.5784,-1.5784,-1.5784,-1.5784,-1.5784,-1.5784,-1.5784,-1.5784,-1.5784,-1.5784,-1.5778,-1.5439,-1.5343,-1.5146,0.0,0.0,0.0,0.0,0.0,0.0,0.0,0.0,0.0,0.0,0.0,0.0,0.0,0.0,0.0,0.0,0.0,0.0,0.0,0.0,0.0,0.0,0.0,0.0,0.0,-3.0746,0.0,0.0,0.0,0.0,-3.3953,-3.4073,-3.5792,-3.8832,-3.8536,-3.7704,-3.6537,0.0,0.0,0.0,0.0,-3.5504,-3.5504,-3.5504,-3.5504,-3.5504,-3.5504,-3.5504,-3.5504,-3.5439,-3.4725,-3.349,-3.1386,-2.8521,-2.553,0.0,0.0,0.0,-1.7638,-1.6709,-1.5784,-1.5784,-1.4902,-1.3974,-1.3926,-1.2915,-1.1994,-1.1901,-1.1945,-1.2042,-1.2091,-1.413,-1.5784,-1.5784,-1.5784,-1.5784,-1.5784,-1.5784,-1.5784,-1.5784,-1.5784,-1.5784,-1.5784,-1.5784,-1.5784,-1.5784,-1.5784,-1.5784,-1.5784,-1.5784,-1.5784,-1.5784,-1.5784,-1.5784,-1.5784,-1.5784,-1.5784,-1.5784,-1.5784,-1.5784,-1.5784,-1.5784,-1.5784,-1.5784,-1.5784,-1.5784,-1.5784,-1.5784,-1.5784,-1.5784,-1.5784,-1.5784,-1.5635,-1.4459,-1.4022,-1.383,0.0,0.0,0.0,0.0,0.0,0.0,0.0,0.0,0.0,0.0,0.0,0.0,0.0,-4.0262,-4.0311,-4.0121,-3.9792,0.0,0.0,0.0,0.0,0.0,0.0,0.0,0.0,0.0,0.0,0.0,0.0,-3.0491,-3.1843,-3.2515,-3.3734,-3.5396,-3.6764,-3.7243,-3.703,-3.6207,0.0,0.0,0.0,-3.5504,-3.5504,-3.5504,-3.5504,-3.5504,-3.5504,-3.5504,-3.5504,-3.5504,-3.4839,-3.3571,-3.1195,-2.9212,-2.7018,-2.3176,-2.0305,-1.821,-1.7229,-1.6828,-1.6529,-1.5731,-1.4537,-1.343,-1.278,-1.1604,-1.0435,-0.9558,-1.0096,-1.0681,-1.0681,-1.2091,-1.3596,-1.4459,-1.4561,-1.4854,-1.5683,-1.5784,-1.5784,-1.5784,-1.5784,-1.5784,-1.5784,-1.5784,-1.5784,-1.5784,-1.5784,-1.5784,-1.5784,-1.5784,-1.5784,-1.5784,-1.5784,-1.5784,-1.5784,-1.5784,-1.5784,-1.5784,-1.5784,-1.5784,-1.5784,-1.5784,-1.5784,-1.5784,-1.5784,-1.5784,-1.5784,-1.5784,-1.5784,-1.5784,-1.5784,-1.5784,-1.5635,-1.4364,-1.3926,-1.3584,0.0,0.0,0.0,0.0,0.0,0.0,0.0,0.0,0.0,-4.0096,0.0,0.0,0.0,0.0,-4.0096,-4.0096,-3.961,-3.887,-3.7879,0.0,0.0,0.0,0.0,0.0,0.0,0.0,0.0,0.0,0.0,0.0,0.0,-3.1318,-3.2259,-3.3329,-3.4952,-3.62,0.0,0.0,0.0,-3.5818,0.0,0.0,-3.5504,-3.5504,-3.5504,-3.5504,-3.5504,-3.5504,-3.5504,-3.5504,-3.5067,-3.4129,-3.1813,-2.9827,-2.7542,-2.3341,-2.1048,-1.9573,-1.8143,0.0,0.0,-1.6151,-1.4328,-1.2609,-1.204,-1.0583,-0.9069,-0.8187,-0.8726,-0.9316,-0.9316,-0.9998,-1.1161,-1.2958,-1.359,-1.4214,-1.5045,-1.5534,-1.5784,-1.5784,-1.5784,-1.5784,-1.5784,-1.5784,-1.5784,-1.5784,-1.5784,-1.5784,-1.5784,-1.5784,-1.5784,-1.5784,-1.5784,-1.5784,-1.5784,-1.5784,-1.5784,-1.5784,-1.5784,-1.5784,-1.5784,-1.5784,-1.5784,-1.5784,-1.5784,-1.5784,-1.5784,-1.5784,-1.5784,-1.5784,-1.5784,-1.5784,-1.5588,-1.3878,-1.3247,-1.2861,0.0,0.0,0.0,0.0,0.0,0.0,0.0,0.0,-4.0045,-4.007,0.0,0.0,0.0,0.0,0.0,-4.0096,-4.0096,-3.9454,-3.7892,-3.7793,0.0,0.0,0.0,0.0,0.0,0.0,0.0,0.0,0.0,0.0,0.0,0.0,-3.1431,-3.2947,-3.3234,-3.4477,-3.6428,0.0,-3.6462,-3.6402,0.0,-3.5504,-3.5504,-3.5504,-3.5504,-3.5504,-3.5504,-3.5504,-3.5504,-3.5504,-3.5504,-3.5207,-3.3554,-3.0553,-2.7115,-2.415,-2.2746,0.0,0.0,0.0,0.0,0.0,0.0,-1.1637,-1.1831,-0.9891,-0.8035,-0.7988,-0.7988,-0.7988,-0.7988,-0.7988,-0.8825,-1.1365,-1.2909,-1.3824,-1.3872,-1.4949,-1.5778,-1.5784,-1.5784,-1.5784,-1.5784,-1.5784,-1.5784,-1.5784,-1.5784,-1.5784,-1.5784,-1.5784,-1.5784,-1.5784,-1.5784,-1.5784,-1.5784,-1.5784,-1.5784,-1.5784,-1.5784,-1.5784,-1.5784,-1.5784,-1.5784,-1.5784,-1.5784,-1.5784,-1.5784,-1.5784,-1.5784,-1.5784,-1.5784,-1.5784,-1.5493,-1.2915,-1.1945,-1.1507,0.0,0.0,0.0,0.0,0.0,-3.8692,-4.0015,-3.9197,-3.8624,0.0,0.0,0.0,-4.0045,-4.0096,-4.0096,-4.0096,-4.0096,-3.9454,-3.7892,-3.7793,-3.7131,-3.5569,-3.365,-3.2593,-3.2593,-3.0746,-2.9792,-2.9792,-2.9792,-2.9867,-3.0018,-3.0018,-3.0637,0.0,-3.1782,-3.2891,-3.4738,-3.5481,0.0,-3.5759,-3.5579,-3.5504,0.0,-3.5504,-3.5504,-3.5504,-3.5504,-3.5504,-3.5504,-3.5504,-3.5504,-3.5053,-3.2397,-2.9636,-2.6814,-2.4209,-2.3225,0.0,-2.0282,0.0,0.0,0.0,0.0,0.0,0.0,-1.0315,-0.887,-0.8163,-0.7988,-0.7988,-0.7988,-0.7988,-0.8233,-0.897,-1.019,-1.1745,-1.3632,-1.4214,-1.4752,-1.5683,-1.5784,-1.5784,-1.5784,-1.5784,-1.5784,0.0,-1.5784,-1.5784,-1.5784,-1.5784,-1.5784,-1.5784,-1.5784,-1.5784,-1.5784,-1.5784,-1.5784,-1.5784,-1.5784,-1.5784,-1.5784,-1.5784,-1.5784,-1.5784,-1.5784,-1.5784,-1.5784,-1.5784,-1.5784,-1.5784,-1.5784,-1.5784,-1.5581,-1.3926,-1.2716,-1.1653,0.0,0.0,0.0,0.0,-3.8921,-3.8743,-3.9645,-3.8879,-3.8354,0.0,0.0,0.0,-4.002,-4.0383,-4.0451,-4.013,-4.0096,-3.9601,-3.833,-3.7978,-3.7265,-3.6006,-3.4182,-3.2996,-3.2593,-3.1156,-3.0177,-2.9792,-2.9792,-2.9792,-2.9792,-2.9792,-3.0113,-3.062,-3.1044,-3.1815,-3.2925,-3.4293,0.0,0.0,-3.5504,-3.5504,-3.5504,-3.5504,-3.5504,-3.5504,-3.5504,-3.5504,-3.5504,-3.5504,-3.531,-3.4669,-3.2262,0.0,0.0,-2.572,-2.4834,0.0,0.0,0.0,0.0,0.0,0.0,0.0,-1.3211,-1.1166,-0.9388,-0.8936,-0.8382,-0.7988,-0.7988,-0.7988,-0.7988,-0.7988,-0.8676,-0.9899,-1.1984,-1.3193,-1.4166,-1.4902,-1.5486,-1.5784,-1.5784,-1.5784,-1.5784,-1.5784,-1.5784,-1.5784,-1.5784,-1.5784,-1.5784,-1.5784,-1.5784,-1.5784,-1.5784,-1.5784,-1.5784,-1.5784,-1.5784,-1.5784,-1.5784,-1.5784,-1.5784,-1.5771,-1.5705,-1.5718,-1.5771,-1.5698,-1.5718,-1.5784,-1.5784,-1.5784,-1.5635,-1.4364,-1.3392,-1.2474,0.0,0.0,-3.9334,-3.9373,-3.9443,-3.948,-3.948,-3.8936,-3.8594,0.0,-3.8906,-3.9307,-4.0112,-4.0702,-4.0839,-4.0257,-4.0146,-3.9756,-3.8935,-3.8206,-3.7456,-3.6646,-3.4919,-3.3567,-3.2629,-3.1669,-3.072,-2.9792,-2.9792,-2.9792,-2.9792,-2.9792,-2.9792,-2.983,-3.0658,-3.1143,-3.1462,-3.3136,-3.4476,-3.5504,-3.5504,-3.5504,-3.5504,-3.5504,-3.5504,-3.5504,-3.5504,-3.5504,-3.5504,-3.5504,-3.51,-3.433,-3.2794,-3.1674,-3.0419,-2.7956,-2.692,0.0,0.0,0.0,0.0,0.0,0.0,0.0,-1.5221,-1.2543,-1.0105,-1.0281,-0.9253,-0.8333,-0.84,-0.8259,-0.8166,-0.8233,-0.8088,-0.8482,-0.9805,-1.1989,-1.3596,-1.3913,-1.4946,-1.5681,-1.5831,-1.5879,-1.5818,-1.5784,-1.5784,-1.5784,-1.5784,-1.5784,-1.5784,-1.5784,-1.5784,-1.5784,-1.5784,-1.5784,-1.5784,-1.5784,-1.5784,-1.5784,-1.5784,-1.5751,-1.5785,-1.5718,-1.5478,-1.5491,-1.5712,-1.5491,-1.5565,-1.5784,-1.5784,-1.5784,-1.5683,-1.4507,-1.4022,-1.3584,0.0,-3.8407,-3.8766,-3.9334,-3.8983,-3.8622,-3.8622,-3.7676,-3.7371,-3.8477,-3.9215,-3.9933,-4.0727,-4.0414,-4.039,-4.0949,-4.0426,-3.9756,-3.8935,-3.8206,-3.7456,-3.6646,-3.4919,-3.3567,-3.2629,-3.1669,-3.072,-2.9792,-2.9792,-2.9792,-2.9792,-2.9792,-2.9792,-2.9792,-2.9998,-3.0921,-3.2357,-3.2713,0.0,-3.5504,-3.5504,-3.5504,-3.5504,-3.5504,-3.5504,-3.5504,-3.5504,-3.5504,-3.5504,-3.5504,-3.5415,-3.5046,-3.3496,-3.2344,-3.1103,-2.8627,-2.7557,-2.6885,-2.5666,-2.5176,0.0,0.0,-2.103,0.0,-1.6387,-1.4692,-1.345,-1.2396,-1.1281,-1.0566,-1.0777,-0.9957,-0.9296,-0.9583,-0.8726,-0.8482,-0.9805,-1.0435,-1.1614,-1.3958,-1.4429,-1.5028,-1.6082,-1.6186,-1.6086,-1.5798,-1.5784,-1.5784,-1.5784,-1.5784,-1.5784,-1.5784,-1.5784,-1.5784,-1.5784,-1.5784,-1.5784,-1.5784,-1.5784,-1.5784,-1.5771,-1.5585,-1.5478,-1.5464,-1.517,-1.5122,-1.515,-1.5324,-1.5565,-1.5784,-1.5784,-1.5784,-1.5784,-1.5534,-1.48,-1.3824,0.0,-3.8437,-3.9005,-3.9328,-3.9125,-3.8901,-3.8901,-3.8063,-3.771,-3.8405,-3.9237,-3.9913,-4.0356,-4.0102,-4.0062,-4.05,-3.9924,-3.9489,-3.9489,-3.843,-3.7632,-3.7219,-3.5612,-3.4075,-3.2629,-3.2141,-3.123,-2.9792,-2.9792,-2.9792,-2.9792,-2.9792,-2.9792,-2.9792,-2.9792,-3.0317,-3.1267,0.0,-3.315,-3.4158,-3.51,0.0,-3.5504,-3.5504,-3.5504,-3.5504,-3.5504,-3.5504,-3.5504,-3.5504,-3.5504,0.0,-3.4203,-3.3407,-3.2512,-3.0462,-2.937,-2.8586,-2.7293,-2.6753,0.0,-2.4285,-2.3461,0.0,0.0,-1.8718,-1.7434,-1.6861,-1.5194,-1.3882,-1.4012,-1.2538,-1.137,-1.1527,-1.0112,-0.9217,-0.9899,-0.9998,-1.0555,-1.2084,-1.2862,-1.3766,-1.5066,-1.5219,-1.535,-1.5757,-1.5784,-1.5784,-1.5784,-1.5784,-1.5784,-1.5784,-1.5784,-1.5784,-1.5784,-1.5685,-1.5611,-1.5611,-1.5464,-1.5398,-1.5391,-1.5251,-1.5177,-1.5164,-1.487,-1.4874,-1.5008,-1.4957,-1.513,-1.5424,-1.5718,-1.5738,-1.5631,-1.5724,-1.5391,-1.4657,0.0,-3.8377,-3.911,-3.9328,-3.9388,-3.9388,-3.9388,-3.8841,-3.8392,-3.8392,-3.9112,-3.9734,-3.9929,-3.9895,-3.9914,-4.0087,-3.9469,-3.9298,-3.9819,-3.8541,-3.7716,-3.7573,-3.6227,-3.4591,-3.2629,-3.2593,-3.1696,-2.9792,-2.9792,-2.9792,-2.9792,-2.9792,-2.9792,-2.9792,0.0,0.0,0.0,0.0,0.0,-3.2996,0.0,-3.5326,-3.5504,-3.5504,-3.5504,-3.5504,-3.5504,-3.5504,-3.5504,-3.5504,-3.5504,-3.5415,-3.4846,-3.435,0.0,0.0,-3.1469,-3.0513,-2.9091,-2.8329,0.0,0.0,-2.5309,-2.461,0.0,0.0,0.0,-2.162,-1.9675,-1.7865,-1.7829,-1.5915,-1.4344,-1.4293,0.0,0.0,0.0,-1.0529,0.0,-1.0243,-1.1166,-1.2368,-1.3672,-1.3923,-1.4552,-1.5703,-1.5784,-1.5784,-1.5784,-1.5784,-1.5784,-1.5784,-1.5784,-1.5784,-1.5784,-1.5538,-1.5398,-1.5391,-1.5149,-1.5008,-1.5008,-1.4948,-1.4877,-1.4908,-1.4563,-1.4576,-1.4827,-1.4596,-1.4629,-1.4901,-1.5438,-1.5558,-1.5424,-1.5658,-1.5785,-1.5493,-3.8048,-3.7928,-3.8018,-3.9215,-3.9388,-3.9388,-3.9388,-3.8841,-3.8392,-3.8392,-3.8987,-3.9728,-4.0492,-4.0031,-3.997,0.0,-4.0108,-3.9496,-3.8988,-3.8117,-3.7359,-3.6753,-3.5958,-3.4591,-3.2629,-3.2593,-3.1696,-2.9792,-2.9792,-2.9792,-2.9792,-2.9792,-2.9792,-2.9792,-2.9792,-3.0279,0.0,0.0,-3.2321,0.0,-3.4061,-3.4691,0.0,-3.5504,-3.5504,-3.5504,-3.5504,-3.5504,-3.5504,0.0,-3.5504,-3.5489,0.0,-3.4747,-3.3979,-3.379,0.0,0.0,0.0,0.0,0.0,0.0,-2.6356,-2.6127,-2.5701,0.0,-2.4424,-2.4786,0.0,-2.2436,0.0,0.0,0.0,0.0,0.0,0.0,-1.3458,-1.2394,-1.1344,-1.0499,-1.0521,-1.1125,-1.2479,-1.3421,-1.4448,-1.573,-1.5784,-1.5784,-1.5784,-1.5784,-1.5784,-1.5784,-1.5784,-1.5784,-1.5784,-1.5538,-1.5398,-1.5391,-1.5149,-1.5008,-1.5001,-1.4689,-1.4569,-1.4556,-1.4262,-1.4155,-1.4202,-1.4429,-1.4389,-1.4242,-1.4874,-1.5197,-1.5398,-1.5431,-1.5611,-1.5778,-3.7105,-3.7659,0.0,-3.8212,-3.8901,-3.929,-3.8886,-3.8916,-3.899,-3.899,-3.9245,-3.9688,-4.043,-3.9555,-3.9397,0.0,-3.9736,-3.9172,-3.9365,-3.8247,0.0,-3.7745,-3.6319,-3.5016,-3.4023,-3.3071,-3.1938,-3.062,-3.0075,-2.9792,-2.9792,0.0,-2.9792,-2.9792,-2.9792,-2.9998,-3.0419,-3.097,-3.1633,0.0,0.0,-3.4245,0.0,-3.5279,-3.5504,-3.5504,-3.5504,-3.5504,-3.5504,0.0,-3.5504,0.0,0.0,0.0,0.0,-3.4177,0.0,0.0,0.0,0.0,0.0,0.0,0.0,0.0,-2.8621,0.0,-2.8193,0.0,0.0,0.0,0.0,0.0,0.0,0.0,-1.9129,0.0,0.0,0.0,-1.2327,-1.049,0.0,0.0,-1.2174,-1.3247,-1.4411,-1.5683,-1.5784,-1.5784,-1.5784,-1.5784,-1.5784,-1.5784,-1.5784,-1.5784,-1.5784,-1.5378,-1.5189,-1.5137,-1.472,-1.4499,-1.4449,-1.4329,-1.4269,-1.4262,-1.4142,-1.4088,-1.4095,-1.4215,-1.4195,-1.4115,-1.4398,-1.478,-1.5209,-1.5337,-1.5097,-1.4704,-3.6118,0.0,0.0,-3.7464,-3.8377,-3.9035,-3.8721,-3.9095,-3.9388,-3.9388,-3.9388,-3.9604,-4.0083,-3.926,-3.9104,0.0,-3.9367,-3.9007,-3.9391,-3.8224,-3.7763,-3.8251,-3.6491,-3.533,-3.5018,-3.341,-3.2141,-3.1217,-3.0241,-2.9792,-2.9792,0.0,-2.9792,-2.9792,-2.9792,-2.9792,-2.9818,0.0,-3.097,-3.1315,-3.2664,-3.338,-3.3739,-3.5034,-3.5504,-3.5504,-3.5504,-3.5504,-3.5474,-3.5295,-3.5355,0.0,-3.528,-3.5355,-3.5359,0.0,0.0,0.0,-3.3199,0.0,0.0,0.0,0.0,0.0,0.0,0.0,0.0,0.0,0.0,0.0,0.0,0.0,0.0,0.0,0.0,-2.0772,0.0,-1.7667,0.0,0.0,0.0,0.0,0.0,-1.3397,-1.4411,-1.5683,-1.5784,-1.5784,-1.5784,-1.5784,-1.5784,-1.5784,-1.5784,-1.5744,-1.5712,-1.5211,-1.4968,-1.4881,-1.4329,-1.4088,-1.4088,-1.4088,-1.4088,-1.4088,-1.4088,-1.4088,-1.4088,-1.373,-1.3603,-1.3561,-1.3258,-1.3461,-1.4007,-1.4559,-1.4549,-1.4266,-3.5534,-3.6088,0.0,0.0,-3.7973,-3.8631,-3.929,-3.9373,-3.9388,-3.9388,-3.9388,-3.9388,-3.9454,-3.9373,-3.9394,-3.9409,-3.9415,-3.9101,-3.8497,-3.7803,-3.7424,-3.7439,-3.6178,-3.533,-3.5018,-3.341,-3.2141,-3.1217,-3.0241,-2.9792,0.0,0.0,-2.9792,-2.9792,-2.9792,-2.9792,-2.9792,-2.983,-3.0381,-3.1217,-3.1278,-3.1815,-3.2855,0.0,-3.5504,-3.5504,-3.5504,0.0,0.0,-3.4741,-3.4951,0.0,0.0,0.0,0.0,0.0,0.0,0.0,0.0,0.0,0.0,-3.1866,0.0,0.0,0.0,0.0,-3.3151,0.0,0.0,0.0,0.0,0.0,0.0,0.0,0.0,0.0,0.0,0.0,0.0,0.0,0.0,0.0,0.0,-1.3878,-1.4411,0.0,-1.5784,-1.5784,-1.5784,-1.5784,-1.5784,-1.5784,-1.5784,-1.5698,-1.5418,-1.5156,-1.4823,-1.4529,-1.4229,-1.4088,-1.4088,-1.4088,-1.4088,-1.4088,-1.4088,-1.4088,-1.3997,-1.2851,-1.237,-1.2242,-1.1123,-1.0927,-1.1387,-1.2615,-1.4031,-1.5213,0.0,0.0,0.0,0.0,0.0,-3.8616,-3.932,-3.9388,-3.9388,-3.9388,-3.9388,-3.9553,-4.0023,-3.9679,-3.9589,-4.0023,-3.9664,-3.932,-3.9095,-3.8437,-3.8257,-3.8686,-3.7464,-3.6716,-3.6586,-3.4384,-3.2885,-3.2141,-3.0558,-2.9792,0.0,0.0,0.0,0.0,-2.9792,-2.9792,0.0,0.0,0.0,0.0,0.0,-3.1742,-3.2664,0.0,-3.3581,-3.3581,-3.3581,-3.3581,0.0,-3.3326,-3.382,-3.4393,-3.3766,-3.4174,-3.4741,-3.4307,-3.4008,-3.3796,0.0,0.0,-3.2473,-3.2855,0.0,0.0,0.0,0.0,0.0,0.0,0.0,0.0,0.0,0.0,0.0,0.0,0.0,0.0,0.0,0.0,0.0,0.0,0.0,0.0,0.0,0.0,-1.4411,-1.5683,-1.5784,0.0,-1.5784,-1.5784,-1.5784,-1.5784,-1.5784,-1.5691,-1.5398,-1.511,-1.4816,-1.4516,-1.4222,-1.4088,-1.4088,-1.4088,-1.4088,-1.4088,-1.4088,-1.4088,-1.4088,-1.3646,-1.3027,-1.2242,-1.1895,-1.1343,-1.0835,-1.151,-1.1701,-1.1637,-3.6537,0.0,0.0,0.0,-3.7539,-3.8616,-3.932,-3.9388,-3.9388,-3.9388,-3.9388,-3.9574,-4.0008,-3.9679,-3.9553,-4.0023,-3.9664,-3.9388,-3.9388,-3.8781,-3.8691,-3.9394,-3.8138,-3.7524,-3.7749,-3.536,-3.3709,-3.296,-3.1149,-3.0139,0.0,0.0,0.0,0.0,0.0,-2.9792,-2.9792,-2.9792,-2.9792,0.0,0.0,-3.1044,0.0,0.0,-3.201,-3.2593,0.0,-3.2593,-3.2566,-3.2309,-3.2674,-3.3161,-3.2829,-3.3179,-3.3663,-3.3557,-3.332,-3.32,-3.344,-3.3021,0.0,-3.3335,-3.2856,0.0,-3.2766,0.0,-3.3215,0.0,0.0,0.0,0.0,0.0,0.0,0.0,0.0,0.0,0.0,-2.3829,0.0,0.0,0.0,0.0,0.0,-1.4561,-1.4902,-1.573,-1.5784,0.0,0.0,-1.5784,-1.5784,-1.5784,-1.5784,-1.5645,-1.5244,-1.5102,-1.4763,-1.4362,-1.4175,-1.4088,-1.4088,-1.4088,-1.4088,-1.4088,-1.4088,-1.4088,-1.4088,-1.3646,-1.2766,-1.1638,-1.1252,-1.0389,-0.9423,-1.0149,-1.0127,-0.9883,-3.6701,-3.706,-3.7236,-3.6664,-3.7594,-3.8661,-3.932,-3.9388,-3.9388,-3.9388,-3.9388,-3.9388,-3.9388,-3.9388,-3.9388,-3.9388,-3.9388,-3.9388,-3.9388,-3.8796,-3.8736,-3.9394,-3.8197,-3.7778,-3.8377,-3.6199,-3.4555,-3.3614,0.0,0.0,0.0,0.0,0.0,0.0,-2.9792,0.0,-2.9792,-2.9792,-2.9792,-2.9792,-2.9792,-2.9792,-2.9792,-2.9792,-3.0921,-3.2464,-3.2464,-3.2464,-3.2368,-3.1693,-3.1592,-3.1757,-3.1862,-3.2001,-3.2257,-3.3103,-3.2885,-3.2542,-3.323,-3.2946,-3.2617,-3.3275,-3.3425,0.0,0.0,0.0,-3.4336,0.0,0.0,0.0,0.0,0.0,0.0,0.0,0.0,0.0,0.0,0.0,-2.265,0.0,0.0,0.0,0.0,-1.5825,-1.5784,-1.5784,-1.5784,0.0,0.0,-1.5784,-1.5784,-1.5784,-1.5784,-1.5551,-1.5015,-1.5008,-1.4713,-1.4088,-1.4088,-1.4088,-1.4088,-1.4088,-1.4088,-1.4088,-1.4088,-1.4088,-1.3997,-1.2857,-1.1729,-1.0567,-0.9492,-0.8277,-0.7333,-0.8555,-0.9296,-0.9871,-3.7928,-3.8033,-3.8017,-3.7558,-3.8398,-3.9215,-3.9358,-3.9388,-3.9388,-3.9388,-3.9388,-3.9388,-3.9388,-3.9388,-3.9388,-3.9388,-3.9388,-3.9388,-3.9388,-3.9245,-3.923,-3.9373,-3.9059,-3.8736,-3.8407,-3.6672,-3.5032,-3.3614,0.0,0.0,-2.9792,0.0,0.0,0.0,0.0,-2.9792,-2.9792,-2.9792,-2.9792,-2.9792,-2.9792,-2.9792,-2.9792,0.0,-3.0113,-3.0533,-3.0533,-3.0533,-3.0405,-2.9788,-3.0118,-3.0614,-2.9713,-2.9943,-3.0636,-3.1011,-3.0992,-3.1025,-3.1797,-3.1884,-3.1914,-3.2602,-3.2363,-3.2138,0.0,0.0,0.0,0.0,0.0,0.0,0.0,0.0,0.0,0.0,0.0,0.0,0.0,0.0,0.0,-2.1551,0.0,0.0,0.0,-1.6339,-1.5784,-1.5784,-1.5784,0.0,0.0,0.0,-1.5784,-1.5784,-1.5784,-1.5551,-1.5015,-1.5008,-1.4713,-1.4088,-1.4088,-1.4088,-1.4088,-1.4088,-1.4088,-1.4088,-1.4088,-1.4088,-1.4088,-1.3779,-1.2942,-1.1809,-1.1552,-1.0221,-0.8388,-0.7982,-0.799,-0.8237,-3.8266,-3.7899,-3.76,-3.7161,-3.7992,-3.8873,-3.9354,-3.9388,-3.9269,-3.9005,-3.923,-3.9305,-3.9005,-3.923,-3.9388,-3.9388,-3.9388,-3.9388,-3.9388,-3.9388,-3.9388,-3.9388,-3.9388,-3.923,-3.8856,-3.7644,0.0,-3.403,0.0,0.0,-2.9792,0.0,0.0,0.0,0.0,-2.9792,-2.9792,-2.9792,-2.9792,-2.9792,-2.9792,-2.9792,0.0,-2.9792,-2.9792,-2.9792,-2.9792,-2.9792,-2.9704,-2.9088,-2.9122,-2.9284,-2.8685,-2.8719,-2.9089,-2.9571,-2.9721,-2.9919,-3.0748,-3.097,-3.1058,-3.1441,-3.1264,-3.1072,-3.1353,-3.1048,-3.0758,0.0,-3.1293,-3.1138,0.0,0.0,0.0,0.0,0.0,0.0,0.0,0.0,0.0,0.0,-2.1319,0.0,0.0,-1.6842,-1.5784,-1.5784,-1.5784,0.0,0.0,0.0,-1.5784,-1.5784,-1.5705,-1.5424,-1.5015,-1.4836,-1.4536,-1.4088,-1.4088,-1.4088,-1.4088,-1.4088,-1.4088,-1.4088,-1.4088,-1.4088,-1.4088,-1.4088,-1.3379,-1.2237,-1.1766,-1.0481,-0.8815,-0.8257,-0.7865,-0.7621,-3.7792,-3.7151,-3.6755,-3.6123,-3.7002,-3.8067,-3.8965,-3.9113,-3.8891,-3.8299,-3.8669,-3.8758,-3.8186,-3.8625,-3.898,-3.898,-3.898,-3.898,-3.898,-3.898,-3.9053,-3.9177,-3.9177,-3.9265,-3.9388,-3.8736,-3.7155,0.0,-3.3919,0.0,0.0,0.0,0.0,0.0,0.0,0.0,0.0,-2.9792,-2.9792,-2.9792,-2.9792,-2.9792,-2.9792,-2.9792,-2.9792,-2.9792,-2.9792,-2.9792,-2.9691,-2.9038,-2.8499,-2.8129,-2.8192,-2.7917,-2.7703,-2.8588,-2.8844,-2.9034,-2.9889,-3.0133,-3.0133,-3.0133,-3.0133,-3.0093,-2.9923,-2.9776,-2.9862,-3.0452,-3.0518,-3.0249,-2.9368,0.0,0.0,0.0,0.0,0.0,0.0,0.0,0.0,0.0,0.0,0.0,0.0,0.0,0.0,0.0,0.0,0.0,0.0,0.0,-1.5784,-1.5784,-1.5545,-1.5257,-1.5015,-1.4669,-1.4376,-1.4088,-1.4088,-1.4088,-1.4088,-1.4088,-1.4088,-1.4088,-1.4088,-1.4088,-1.4088,-1.4088,-1.347,-1.2419,-1.1257,-1.0221,-0.9318,-0.9192,-0.8591,-0.7802,-3.6387,-3.6511,0.0,-3.5195,-3.6225,-3.7315,-3.7468,-3.752,-3.7478,-3.7326,-3.6987,-3.6718,-3.6606,-3.669,-3.676,-3.676,-3.676,0.0,0.0,0.0,0.0,-3.8032,-3.8069,-3.8509,-3.9388,-3.8736,-3.7155,0.0,0.0,-3.231,-2.9792,0.0,0.0,0.0,0.0,0.0,-2.9792,-2.9792,0.0,-2.9792,-2.9792,-2.9792,-2.9792,-2.9792,-2.9792,-2.9792,-2.9792,-2.9792,-2.9628,-2.8599,-2.8185,-2.7957,-2.7113,-2.679,-2.6871,-2.7703,-2.792,-2.8117,-2.9002,-2.9223,-2.9223,-2.9223,-2.9223,-2.9219,-2.919,-2.8622,-2.8139,-2.8232,-2.8082,-2.7889,-2.7726,0.0,0.0,0.0,0.0,0.0,0.0,0.0,0.0,0.0,0.0,-2.0845,0.0,0.0,0.0,0.0,0.0,0.0,0.0,0.0,-1.5784,0.0,-1.5545,-1.5257,0.0,0.0,-1.4376,-1.4088,-1.4088,-1.4088,-1.4088,-1.4088,-1.4088,-1.4088,-1.4088,-1.4088,-1.4088,-1.4088,-1.3997,-1.3688,-1.2462,-1.1895,-1.1595,-1.0654,-0.9741,-0.8889,-3.6688,0.0,0.0,0.0,-3.5587,-3.6258,-3.6258,-3.6038,-3.6042,-3.6523,-3.6365,-3.6087,-3.5758,-3.6018,-3.6198,-3.6198,-3.6198,-3.6198,-3.6198,-3.6198,-3.6448,-3.693,-3.6982,-3.7214,-3.7724,-3.7408,-3.6104,-3.3774,0.0,-3.2102,-2.9792,-2.9792,0.0,0.0,0.0,-2.9792,0.0,0.0,0.0,-2.9792,-2.9792,-2.9792,-2.9792,-2.9792,-2.9792,-2.9792,-2.9792,-2.9792,-2.9666,-2.8812,-2.8348,-2.7959,-2.7178,-2.6725,-2.6589,-2.6973,-2.7061,-2.7263,-2.8117,-2.833,-2.833,-2.833,-2.833,-2.812,-2.7392,-2.6915,-2.6611,-2.6611,-2.6506,-2.659,-2.7168,-2.7733,0.0,0.0,0.0,0.0,0.0,0.0,-2.6307,0.0,0.0,0.0,0.0,0.0,0.0,0.0,0.0,-1.5784,-1.5784,0.0,-1.5784,0.0,0.0,0.0,-1.5008,0.0,-1.4222,-1.4088,-1.4088,-1.4088,-1.4088,-1.4088,-1.4088,-1.4088,-1.4088,-1.4088,-1.4039,-1.3421,-1.316,-1.3118,-1.2547,-1.2285,-1.2242,-1.1681,-1.0906,-0.9944,-3.6933,-3.6146,0.0,-3.4768,-3.5132,-3.5495,-3.5495,-3.5031,-3.4996,-3.572,-3.5629,-3.5371,-3.4898,-3.5276,-3.5534,-3.5534,-3.5534,-3.5534,-3.5534,-3.5534,-3.5654,-3.5854,-3.5894,-3.5974,-3.6198,-3.6198,-3.5217,0.0,0.0,0.0,-2.9967,-2.9842,0.0,0.0,0.0,0.0,0.0,0.0,-2.9792,-2.9792,-2.9792,-2.9792,-2.9792,-2.9792,-2.9792,-2.9792,-2.9792,-2.9792,-2.9729,-2.9264,-2.875,-2.816,-2.7494,-2.7014,-2.665,-2.6524,-2.6499,-2.6658,-2.7263,-2.7451,-2.7451,-2.7451,-2.7451,-2.7141,-2.5878,-2.5598,-2.5561,-2.546,-2.5523,-2.5937,-2.7067,-2.7388,0.0,0.0,0.0,0.0,0.0,0.0,0.0,0.0,0.0,0.0,-1.9716,0.0,0.0,0.0,0.0,-1.5784,-1.5784,-1.5784,-1.5784,0.0,0.0,-1.5008,-1.5008,0.0,-1.4088,-1.4088,-1.4088,-1.4088,-1.4088,-1.4088,-1.4088,-1.4088,-1.4088,-1.3955,-1.3646,-1.2674,-1.2151,-1.1943,-1.1943,-1.2109,-1.2285,-1.2285,-1.1842,-1.1024,0.0,0.0,-3.532,-3.4768,-3.5132,-3.5495,-3.5495,-3.5031,-3.472,-3.4831,-3.3976,-3.3373,-3.3322,-3.336,-3.3398,-3.3398,-3.3398,-3.3398,-3.3398,-3.3398,-3.3827,-3.4787,-3.4815,-3.5292,-3.6158,-3.6198,-3.5368,0.0,0.0,-3.2136,0.0,-3.003,0.0,0.0,0.0,0.0,0.0,-2.9792,-2.9792,-2.9792,-2.9792,-2.9792,-2.9792,-2.9792,-2.9792,-2.9792,-2.9792,-2.9792,-2.9779,-2.9729,-2.9327,-2.8662,-2.7607,-2.7291,-2.714,-2.6637,-2.6499,-2.6521,-2.6589,-2.6624,-2.6624,-2.6624,-2.6624,-2.6438,-2.5757,-2.5598,-2.546,-2.4996,-2.5272,-2.5937,-2.7067,-2.6209,-2.5577,0.0,0.0,0.0,0.0,0.0,-2.5336,-2.6389,0.0,0.0,-1.9716,-1.9497,0.0,0.0,-1.5784,-1.5784,-1.5784,-1.5784,-1.5784,-1.5784,-1.5264,-1.5008,-1.5008,-1.4382,-1.4088,-1.4088,-1.4088,-1.4088,-1.4088,-1.4088,-1.4088,-1.4088,-1.4088,-1.347,-1.2456,-1.237,-1.1681,-1.0783,-1.0783,-1.1381,-1.2285,-1.2285,-1.2362,-1.227,0.0,0.0,-3.5533,-3.568,0.0,0.0,0.0,-3.529,-3.468,-3.468,-3.3759,-3.3124,-3.3124,-3.3124,-3.3124,-3.3124,-3.3124,-3.3124,-3.3124,-3.3124,-3.3283,-3.3713,-3.3755,-3.3953,-3.4332,-3.4332,-3.3851,0.0,0.0,0.0,0.0,0.0,0.0,0.0,0.0,-2.9792,-2.9792,-2.9792,-2.9792,-2.9792,-2.9792,-2.9792,-2.9792,-2.9792,-2.9792,-2.9792,-2.9792,-2.9792,-2.9792,-2.9792,-2.9402,-2.8813,-2.8411,-2.8047,-2.767,-2.7153,-2.6989,-2.6914,-2.6587,-2.6499,-2.6499,-2.6499,-2.6499,-2.626,-2.5335,-2.5134,-2.4808,-2.3753,-2.3771,-2.4119,-2.4578,-2.4631,-2.4602,-2.4705,0.0,0.0,0.0,0.0,0.0,-2.542,0.0,-2.1817,0.0,0.0,0.0,0.0,0.0,-1.5784,-1.5784,-1.5784,-1.5784,-1.5784,0.0,-1.5008,-1.5008,-1.4382,-1.4088,-1.4088,-1.4088,-1.4088,-1.4088,-1.4088,-1.4088,-1.4088,-1.4088,-1.3421,-1.2285,-1.2285,-1.1638,-1.0611,-1.0611,-1.0869,-1.1338,-1.2066,-1.2349,-1.2284,-3.6405,0.0,-3.5906,0.0,-3.6044,-3.5918,-3.6342,-3.5567,-3.4856,-3.4705,-3.3897,-3.3257,-3.3136,-3.3124,-3.3124,-3.3124,-3.3124,-3.3124,-3.3124,-3.3124,-3.3124,-3.3124,-3.3124,0.0,-3.3124,-3.3124,-3.288,-3.2466,-3.1901,0.0,0.0,0.0,0.0,0.0,-2.9792,-2.9792,-2.9792,-2.9792,-2.9792,-2.9792,-2.9792,-2.9792,-2.9792,-2.9792,-2.9792,-2.9753,-2.9417,-2.9314,-2.9236,-2.8922,-2.877,-2.8695,-2.8862,-2.8624,-2.8235,-2.7682,-2.7215,-2.6849,-2.6769,-2.6405,-2.6129,-2.6418,-2.6499,-2.621,-2.5071,-2.4788,-2.4387,-2.2995,-2.2567,-2.2566,-2.2859,-2.3212,-2.3433,-2.3293,0.0,0.0,0.0,-2.4501,0.0,-2.4745,-2.3529,-2.1891,-1.9962,-1.9287,0.0,0.0,0.0,0.0,-1.5778,-1.5752,0.0,0.0,0.0,0.0,-1.4836,-1.4335,-1.4088,-1.4088,-1.4088,-1.4088,-1.4088,-1.4088,-1.4088,-1.4088,-1.4088,-1.3421,-1.2285,-1.2285,-1.1638,-1.0567,-1.0226,-1.0308,-1.0654,-1.1123,-1.1509,-1.1661,-3.6405,-3.6405,-3.6405,-3.6405,-3.6405,-3.6405,-3.6405,-3.5893,-3.5295,-3.4756,-3.4236,-3.3684,-3.3174,-3.3124,-3.3124,-3.3124,-3.3124,-3.3124,-3.3124,-3.3124,-3.3124,0.0,0.0,-3.3124,-3.3124,-3.3124,-3.3124,-3.3111,0.0,0.0,-3.1361,0.0,-2.9792,-2.9792,-2.9792,-2.9792,-2.9792,-2.9792,-2.9792,-2.9792,-2.9792,-2.9792,-2.9792,-2.9792,-2.9792,-2.9663,-2.8518,-2.8136,-2.7976,-2.6883,-2.7238,-2.8199,-2.8734,-2.8888,-2.8775,-2.826,-2.7005,-2.6045,-2.7007,-2.6173,-2.5264,-2.6233,-2.6499,-2.621,-2.5071,-2.4788,-2.4387,-2.2995,-2.2034,-2.1711,-2.2724,-2.2093,-2.1707,-2.2573,0.0,0.0,0.0,-2.3561,0.0,-2.466,-2.379,-2.2624,-2.1373,-2.0206,0.0,0.0,0.0,0.0,0.0,0.0,0.0,-1.5398,-1.483,0.0,-1.4522,-1.4235,-1.4088,-1.4088,-1.4088,-1.4088,-1.4088,-1.4088,-1.4088,-1.4088,-1.4088,-1.3421,-1.2285,-1.2285,-1.1638,-1.0481,-0.9362,-0.9623,-1.0481,-0.9366,-0.9666,-1.0497,-3.6405,-3.6405,-3.6405,-3.6405,-3.6405,-3.6405,-3.6405,-3.5893,-3.5307,-3.4756,-3.4248,-3.3684,-3.3174,-3.3124,-3.3124,0.0,-3.3124,-3.3124,0.0,-3.3124,-3.3124,-3.3124,-3.3124,-3.3124,-3.3124,-3.3124,-3.3124,-3.3124,0.0,0.0,0.0,-3.0131,-2.9792,-2.9792,-2.9792,-2.9792,-2.9792,-2.9792,-2.9792,-2.9792,-2.9792,-2.9792,-2.9792,-2.9792,-2.9792,-2.9753,-2.9404,-2.8767,-2.8056,-2.7695,-2.7331,-2.7052,-2.7226,-2.7779,-2.8234,-2.7702,-2.6673,-2.56,-2.5275,-2.4825,-2.4434,-2.4454,-2.4433,-2.4448,-2.441,-2.339,-2.235,-2.1926,-2.0818,-2.0063,-2.0386,-2.0653,-2.0929,-2.1209,-2.1629,0.0,-2.258,0.0,-2.3114,-2.3238,-2.2909,-2.2141,-2.0689,-1.9631,0.0,0.0,0.0,0.0,0.0,0.0,0.0,0.0,-1.4723,0.0,-1.4522,-1.4229,-1.4088,-1.4088,-1.4088,-1.3688,-1.2851,-1.2851,-1.2851,-1.2851,-1.2851,-1.3118,-1.3512,-1.3512,-1.2814,-1.1724,-1.1338,-1.0481,-0.9492,-0.9923,-0.9797,-0.942,-3.6405,-3.6405,-3.6405,-3.6405,-3.6405,-3.6405,-3.6405,-3.6069,-3.5579,-3.4781,-3.4424,-3.3922,-3.3156,-3.3124,0.0,-3.3124,-3.3124,-3.3124,-3.3124,-3.3124,-3.3124,-3.3124,-3.3124,-3.3124,-3.3124,-3.3124,0.0,-3.3124,-3.229,-3.1461,-3.0608,-3.0043,-2.9792,-2.9792,-2.9792,-2.9792,-2.9792,-2.9792,-2.9792,-2.9792,-2.9792,-2.9792,-2.9792,-2.9792,-2.9534,-2.9106,-2.8712,-2.7827,-2.6808,-2.6356,-2.6077,-2.5839,-2.5839,-2.6326,-2.6873,-2.6978,-2.6108,-2.4982,-2.4603,-2.4067,-2.3612,-2.3527,-2.3514,-2.3537,-2.3618,-2.2319,-2.1091,-2.1091,-2.0133,-1.9336,-1.9492,-1.9961,-2.043,-2.0762,-2.1416,-2.1943,-2.21,0.0,-2.2305,0.0,0.0,0.0,0.0,-1.9477,-1.8608,0.0,0.0,0.0,0.0,0.0,-1.4955,-1.4803,-1.4509,-1.4355,-1.4355,-1.4175,-1.4088,-1.4088,-1.4088,-1.3688,-1.2942,-1.2498,-1.2285,-1.2285,-1.1852,-1.2077,-1.282,-1.3252,-1.2984,-1.2285,-1.2285,-1.1166,-0.9579,-0.9836,-0.9279,-0.8374,-3.6405,-3.6405,-3.6405,-3.6405,-3.6405,-3.6405,-3.6405,-3.6405,-3.5981,-3.4914,-3.4776,-3.4361,-3.3257,-3.3174,-3.3162,-3.3124,0.0,0.0,-3.3124,-3.3124,-3.3124,-3.3124,-3.3124,-3.3124,-3.3124,-3.3124,-3.3056,-3.3061,-3.1926,-3.1122,-3.0608,-3.0043,-2.9792,-2.9792,-2.9792,-2.9792,-2.9792,-2.9792,-2.9792,-2.9792,-2.9792,-2.9792,-2.9792,-2.9702,-2.9028,-2.7976,-2.6883,-2.5755,-2.4617,-2.3594,-2.3887,-2.466,-2.466,-2.466,-2.4914,-2.6058,-2.5326,-2.4228,-2.4711,-2.3781,-2.2787,-2.3222,-2.3364,-2.3256,-2.2764,-2.1614,-2.0655,-2.0655,-1.9959,-1.9453,-1.9844,-1.9885,-2.011,-2.0934,-2.1407,-2.18,-2.2186,-2.1595,-2.1051,0.0,0.0,0.0,-2.0714,-1.9562,-1.8921,0.0,0.0,0.0,0.0,0.0,-1.4796,-1.4496,-1.4229,-1.4088,-1.4088,-1.4088,-1.4088,-1.4088,-1.4088,-1.4046,-1.3955,-1.2808,-1.2242,-1.2109,-1.108,-1.0611,-1.0697,-1.1724,-1.2242,-1.2279,-1.22,-1.1509,-1.0481,-0.9323,-0.8257,-0.7439,0.0,0.0,-3.6405,-3.6405,-3.6405,-3.6405,-3.6405,-3.6405,-3.6119,-3.5395,-3.5307,-3.4881,-3.3822,-3.3709,-3.3533,-3.3162,-3.3124,-3.3124,-3.3124,-3.3124,-3.3124,-3.3124,-3.3124,-3.3124,-3.3124,-3.3124,-3.2855,-3.2416,-3.1725,-3.1122,-3.0608,-3.0043,-2.9792,-2.9792,-2.9792,-2.9792,-2.9792,-2.9792,-2.9792,-2.9792,-2.9792,-2.9792,-2.9702,-2.8819,-2.8347,-2.7976,-2.6883,-2.5755,-2.4745,-2.45,-2.4006,-2.3507,-2.3507,-2.3507,-2.3714,-2.4882,-2.4352,-2.3302,-2.3158,-2.2842,-2.2416,-2.1879,-2.2053,-2.2334,-2.219,-2.1671,-2.1198,-2.1198,-2.0451,-1.9795,-1.9893,-1.9692,-1.9569,-1.9802,-1.9655,-1.9564,-1.9641,-1.9655,-1.9438,0.0,-1.9058,-1.9058,-1.9015,-1.8169,-1.7643,0.0,0.0,-1.5097,-1.4649,-1.4623,-1.4496,-1.4202,-1.4122,-1.4088,-1.4088,-1.4088,-1.4088,-1.4088,-1.4088,-1.3603,-1.2723,-1.2413,-1.1809,-1.0999,-1.074,-1.0611,-1.0611,-1.0907,-1.1509,-1.22,-1.1338,-1.0826,-1.0481,-0.9323,-0.8257,-0.7439,-3.6405,-3.6405,-3.6405,-3.6405,-3.6405,-3.6405,-3.6405,-3.6405,-3.6157,-3.5571,-3.5495,-3.5082,-3.4022,-3.3897,-3.3671,-3.3174,-3.3124,-3.3124,-3.3124,-3.3124,-3.3124,-3.3124,-3.3124,-3.3124,-3.3124,-3.3124,-3.2792,-3.2215,-3.1913,-3.1373,-3.0608,-3.0306,-3.003,-2.9792,-2.9792,-2.9792,-2.9753,-2.9236,-2.9028,-2.8976,-2.8502,-2.8581,-2.8897,-2.7787,-2.7371,-2.7238,-2.613,-2.501,-2.4006,-2.4006,-2.3594,-2.3091,-2.3091,-2.3091,-2.3222,-2.3844,-2.3594,-2.3003,-2.2627,-2.251,-2.2305,-2.1405,-2.1431,-2.16,-2.1387,-2.1192,-2.1019,-2.1019,-2.0614,-2.0215,-2.0215,-2.0231,-2.0107,-1.9736,-1.9554,-1.9322,-1.8971,-1.8414,-1.7918,-1.7474,-1.7434,-1.7434,-1.7434,-1.6993,-1.6772,-1.7011,-1.5763,0.0,-1.4536,-1.4396,-1.4249,-1.4088,-1.4088,-1.4088,-1.4088,-1.4088,-1.4088,-1.4088,-1.4088,-1.3779,-1.3118,-1.2547,-1.1938,-1.1338,-1.0826,-1.0611,-1.0611,-1.0611,-1.095,-1.1466,-1.0826,-1.0265,-0.9763,-0.92,-0.8373,-0.7495,-3.6405,-3.6405,-3.6405,-3.6405,-3.6405,-3.6405,-3.6405,-3.6405,-3.6194,-3.5683,-3.5621,-3.5207,-3.4148,-3.4022,-3.3771,-3.3131,-3.3124,-3.3124,-3.3124,-3.3124,-3.3124,-3.3124,-3.3124,-3.3124,-3.3124,-3.3124,-3.2792,-3.2215,-3.2215,-3.1662,-3.062,-3.062,-3.0319,-2.9792,-2.9624,-2.9534,-2.9456,-2.8347,-2.7844,-2.7763,-2.6883,-2.7046,-2.7723,-2.6666,-2.6224,-2.6099,-2.4957,-2.392,-2.3091,-2.3091,-2.3091,-2.3091,-2.3091,-2.3091,-2.3091,-2.3091,-2.3091,-2.3013,-2.2662,-2.2559,-2.2324,-2.1492,-2.1239,-2.1073,-2.0703,-2.0605,-2.0605,-2.0605,-2.0664,-2.0703,-2.0703,-2.0915,-2.086,-1.9936,-1.9821,-1.9523,-1.8653,0.0,-1.6381,-1.6056,-1.5889,-1.5874,-1.6011,-1.5933,-1.6,-1.6411,-1.5255,-1.4502,-1.4456,-1.4222,-1.4088,-1.4088,-1.4088,-1.4088,-1.4088,-1.4088,-1.4088,-1.4088,-1.4088,-1.4088,-1.4088,-1.3033,-1.2456,-1.2242,-1.1295,-1.0783,-1.0611,-1.0394,-1.0438,-1.0567,-1.0221,-0.9579,-0.8911,-0.8869,-0.8329,-0.7621,-3.6405,-3.6405,-3.6405,-3.6405,-3.6405,-3.6405,-3.6405,-3.6405,-3.638,-3.6292,-3.6279,-3.5818,-3.4713,-3.46,-3.4186,-3.3212,-3.3124,-3.3124,-3.3124,-3.3124,-3.3124,-3.3124,-3.3124,-3.3124,-3.3124,-3.3124,-3.2792,-3.2215,-3.2215,-3.1662,-3.062,-3.062,-3.0319,-2.9753,-2.8806,-2.8347,-2.8307,-2.7209,-2.676,-2.6719,-2.6565,-2.6607,-2.6637,-2.5504,-2.5041,-2.4914,-2.3757,-2.3256,-2.3091,-2.3091,-2.3091,-2.3091,-2.3091,-2.3091,-2.3091,-2.3091,-2.3091,-2.3081,-2.3013,-2.2783,-2.2402,-2.1904,-2.1504,-2.1073,-2.0703,-2.0605,-2.0605,-2.0605,-2.0869,-2.1093,-2.1093,-2.0953,-2.0381,-1.9161,-1.8459,-1.7583,-1.6186,0.0,-1.5154,-1.4804,-1.4552,-1.4491,-1.4749,-1.477,-1.479,-1.4838,-1.463,-1.4409,-1.4168,-1.4115,-1.4088,-1.4088,-1.4088,-1.4088,-1.4088,-1.4088,-1.4088,-1.4088,-1.4088,-1.4088,-1.4088,-1.3906,-1.3252,-1.2279,-1.2114,-1.1509,-1.0524,-0.9579,-0.9753,-1.0394,-0.84,-0.8145,-0.878,-0.7986,-0.7649,-0.7621,-3.5319,-3.5906,-3.6405,-3.6405,-3.6405,-3.6156,-3.5427,-3.5918,-3.6156,-3.5427,-3.5966,-3.599,-3.4839,-3.468,-3.4274,-3.3169,-3.3124,-3.3124,-3.3124,-3.3124,-3.3124,-3.3124,-3.3124,-3.3124,-3.3124,-3.3124,-3.2943,-3.2679,-3.2679,-3.2114,-3.1035,-3.1035,-3.0583,-2.9792,-2.9236,-2.8688,-2.8044,-2.6964,-2.6141,-2.5546,-2.4935,-2.5052,-2.5462,-2.4339,-2.4253,-2.467,-2.3507,-2.3091,-2.3091,-2.3091,-2.3091,-2.3091,-2.3091,-2.3091,-2.3091,-2.3091,-2.3091,-2.3091,-2.3091,-2.2955,-2.2711,-2.2324,-2.1904,-2.1465,-2.1025,-2.029,-1.9717,-1.9717,-1.9524,-1.9347,-1.9347,-1.9546,-1.9253,-1.8008,-1.7614,-1.6885,-1.5386,-1.491,-1.4616,-1.4322,-1.4168,-1.4142,-1.4275,-1.4282,-1.4282,-1.4282,-1.4282,-1.4229,-1.4095,-1.4088,-1.4088,-1.4088,-1.4088,-1.4088,-1.4088,-1.4088,-1.4088,-1.4088,-1.4088,-1.4088,-1.4088,-1.4088,-1.3779,-1.3288,-1.3288,-1.2991,-1.2345,-1.0572,-1.0139,-1.0351,-0.8009,-0.7445,-0.7915,-0.7633,-0.7539,-0.7631,-3.4337,-3.5223,-3.5918,-3.5918,-3.5918,-3.5463,-3.4117,-3.4812,-3.5102,-3.4068,-3.4812,-3.5141,-3.4313,-3.4247,-3.3948,-3.3169,-3.3124,-3.3124,-3.3124,-3.3124,-3.3124,-3.3124,-3.3124,-3.3124,-3.3124,-3.3124,-3.3124,-3.3124,-3.3124,-3.2566,-3.1574,-3.1449,-3.0884,-2.998,-2.9596,-2.8779,-2.7643,-2.6584,-2.5473,-2.4339,-2.3464,-2.3637,-2.4296,-2.342,-2.3637,-2.4296,-2.343,-2.3091,-2.3091,-2.3091,-2.3091,-2.3091,-2.3091,-2.3091,-2.3091,-2.3091,-2.3091,-2.3091,-2.3091,-2.3091,-2.2994,-2.2617,-2.2197,-2.1726,-2.0995,-1.9866,-1.8944,-1.8754,-1.8293,-1.7951,-1.8033,-1.8559,-1.8583,-1.7371,0.0,-1.6791,-1.5235,-1.477,-1.4489,-1.4128,-1.4088,-1.4088,-1.4088,-1.4088,-1.4088,-1.4088,-1.4088,-1.4088,-1.4088,-1.3822,-1.3688,-1.3688,-1.3955,-1.4088,-1.4088,-1.3822,-1.3822,-1.4088,-1.3822,-1.3822,-1.4088,-1.4088,-1.4088,-1.4088,-1.4088,-1.3955,-1.3512,-1.1434,-1.0438,-1.0009,-0.7921,-0.7119,-0.7227,-0.7499,-0.7621,-0.7685,-3.4129,-3.4483,-3.4532,-3.4532,-3.4532,-3.4068,-3.2694,-3.2532,-3.2582,-3.2493,-3.2532,-3.2654,-3.2806,-3.2839,-3.2904,-3.3082,-3.3124,-3.3124,-3.3124,-3.3124,-3.3124,-3.3124,-3.3124,-3.3124,-3.3124,-3.3124,-3.3124,-3.3124,-3.3124,-3.2754,-3.2139,-3.1625,-3.1085,-3.0493,-2.8906,-2.7614,-2.6554,-2.542,-2.4253,-2.3222,-2.3135,-2.3135,-2.3222,-2.3135,-2.3135,-2.3222,-2.3135,-2.3091,-2.3091,-2.3091,-2.3091,-2.3091,-2.3091,-2.3091,-2.3091,-2.3091,-2.3091,-2.3091,-2.3091,-2.3091,-2.2994,-2.2617,-2.2197,-2.1511,-2.0053,-1.9357,-1.8776,-1.8029,-1.8126,-1.8438,-1.8671,-1.9101,-1.9045,-1.7825,0.0,0.0,-1.5262,-1.4988,-1.4767,-1.4155,-1.4088,-1.4088,-1.4088,-1.4088,-1.4088,-1.4088,-1.4088,-1.4088,-1.4088,-1.3033,-1.2413,-1.2413,-1.3512,-1.4088,-1.4088,-1.2984,-1.2984,-1.4088,-1.2984,-1.3027,-1.4088,-1.4088,-1.4088,-1.4088,-1.4088,-1.347,-1.2328,-1.1123,-0.9966,-0.889,-0.7621,-0.7227,-0.7373,-0.7539,-0.7682,-0.7818,-3.1735,-3.3216,-3.4129,-3.3254,-3.3822,-3.3613,-3.1378,-3.1774,-3.1977,-3.1173,-3.1774,-3.211,-3.1611,-3.1603,-3.1378,-3.0871,-3.0822,-3.1134,-3.1865,-3.1921,-3.2283,-3.3068,-3.3124,-3.3124,-3.3124,-3.3124,-3.3124,-3.3124,-3.3124,-3.278,-3.2202,-3.2001,-3.1612,-3.1044,-2.9673,-2.8435,-2.7272,-2.5819,-2.4553,-2.3516,-2.3198,-2.3091,-2.3091,-2.3091,-2.3091,-2.3091,-2.3091,-2.3091,-2.3091,-2.3091,-2.3091,-2.3091,-2.3091,-2.3091,-2.3091,-2.3091,-2.3091,-2.3091,-2.3091,-2.3091,-2.3052,-2.2896,-2.2588,-2.1922,-2.0607,-1.9412,-1.8339,-1.7286,-1.6765,-1.6592,-1.6663,-1.6832,-1.6827,-1.6334,0.0,-1.5732,-1.4831,-1.4689,-1.4536,-1.4135,-1.4088,-1.4088,-1.4088,-1.4088,-1.4088,-1.4088,-1.4088,-1.3779,-1.3027,-1.1901,-1.1252,-1.1252,-1.1692,-1.265,-1.4088,-1.2899,-1.2547,-1.2984,-1.1815,-1.1858,-1.2984,-1.2984,-1.3379,-1.4088,-1.4088,-1.3421,-1.22,-1.108,-0.9993,-0.8921,-0.7728,-0.7377,-0.7533,-0.7678,-0.7767,-0.7831,-3.0214,-3.1836,-3.2805,-3.1836,-3.2443,-3.2353,-3.0016,-3.0463,-3.0721,-2.9817,-3.0473,-3.0817,-3.0307,-3.0246,-3.0006,-2.9451,-2.9407,-2.9772,-3.0586,-3.0631,-3.1368,-3.3025,-3.3124,-3.2896,-3.2513,-3.2513,-3.2339,-3.1933,-3.2339,-3.2272,-3.1889,-3.2122,-3.2001,-3.1596,-3.0211,-2.8974,-2.7819,-2.6288,-2.4988,-2.3945,-2.3516,-2.3305,-2.3286,-2.3149,-2.3091,-2.3091,-2.3091,-2.3091,-2.3091,-2.3091,-2.3091,-2.3091,-2.3091,-2.3091,-2.3091,-2.3091,-2.3091,-2.3091,-2.3091,-2.3091,-2.3091,-2.3091,-2.2779,-2.2107,-2.0542,-1.9289,-1.7972,-1.6507,-1.5784,-1.5424,-1.5518,-1.5458,-1.5398,-1.5398,-1.515,-1.4863,-1.4563,-1.4522,-1.4409,-1.4122,-1.4088,-1.4088,-1.4088,-1.4088,-1.4088,-1.4088,-1.4088,-1.3428,-1.1858,-1.1338,-1.0826,-1.0096,-1.0394,-1.1391,-1.2997,-1.1821,-1.1423,-1.1766,-1.0611,-1.0654,-1.1766,-1.2157,-1.2766,-1.3561,-1.3609,-1.2942,-1.176,-1.0656,-0.9575,-0.8569,-0.776,-0.7536,-0.7678,-0.7777,-0.7841,-0.7896,-3.0016,-3.0266,-3.0317,-3.0266,-3.0317,-2.9869,-2.8495,-2.8291,-2.8291,-2.8291,-2.8291,-2.8413,-2.8749,-2.8783,-2.8945,-2.9359,-2.9361,-2.9361,-2.9407,-2.9407,-3.0508,-3.2939,-3.3068,-3.2469,-3.1223,-3.1178,-3.0586,-2.9407,-3.0586,-3.1178,-3.1211,-3.1889,-3.2173,-3.2106,-3.038,-2.8974,-2.7809,-2.6596,-2.5447,-2.4385,-2.3965,-2.3799,-2.375,-2.3266,-2.3101,-2.3101,-2.3091,-2.3091,-2.3091,-2.3091,-2.3091,-2.3091,-2.3091,-2.3091,-2.3091,-2.3091,-2.3091,-2.3091,-2.3091,-2.3091,-2.3091,-2.3091,-2.2779,-2.1893,-1.9631,-1.8731,-1.7834,-1.5828,-1.5398,-1.5484,-1.5724,-1.5591,-1.5398,-1.5391,-1.515,-1.4901,-1.4556,-1.4516,-1.4409,-1.4122,-1.4088,-1.4088,-1.4088,-1.4088,-1.4088,-1.4088,-1.4088,-1.3082,-1.074,-1.1686,-1.1252,-0.8978,-1.0009,-1.0567,-1.0567,-0.9449,-0.9449,-1.0567,-0.9449,-0.9492,-1.0611,-1.1766,-1.2285,-1.2303,-1.2479,-1.1882,-1.0701,-0.9727,-0.861,-0.76,-0.76,-0.7689,-0.7814,-0.7814,-0.7909,-0.7988,-2.8804,-2.966,-3.0016,-2.9059,-2.966,-2.9869,-2.8495,-2.8291,-2.8291,-2.8291,-2.8291,-2.8235,-2.8069,-2.7731,-2.7462,-2.7321,-2.6975,-2.7163,-2.8085,-2.8958,-2.9727,-3.0463,-3.0496,-3.0328,-2.9954,-2.9954,-2.9772,-2.9407,-2.9772,-3.0361,-3.1211,-3.142,-3.1479,-3.1436,-3.0068,-2.8789,-2.7601,-2.6048,-2.5191,-2.4834,-2.4404,-2.4228,-2.418,-2.376,-2.3594,-2.3555,-2.3208,-2.3091,-2.3091,-2.3091,-2.3091,-2.3091,-2.3091,-2.3091,-2.3091,-2.3091,-2.3091,-2.3091,-2.3091,-2.3091,-2.3091,-2.3091,-2.3003,-2.2539,-2.0988,-1.9877,-1.8757,-1.7289,-1.6301,-1.5732,-1.5764,-1.5591,-1.5331,-1.5169,-1.4843,-1.4549,-1.4255,-1.4215,-1.4182,-1.4095,-1.4088,-1.4088,-1.4088,-1.4088,-1.4088,-1.4088,-1.3336,-1.2547,-1.1809,-1.0611,-0.9623,-0.8934,-0.8404,-0.8141,-0.8141,-0.8667,-0.9061,-0.9405,-0.8189,-0.8277,-0.941,-0.9753,-1.0396,-1.1245,-1.1318,-1.072,-0.9723,-0.9414,-0.8679,-0.7746,-0.7746,-0.7838,-0.7921,-0.7921,-0.7951,-0.7988,-2.8291,-2.8953,-2.925,-2.8441,-2.8953,-2.926,-2.8441,-2.8291,-2.8291,-2.8291,-2.8291,-2.8066,-2.7471,-2.7334,-2.6963,-2.6201,-2.584,-2.6014,-2.6802,-2.7531,-2.7945,-2.7945,-2.7945,-2.8168,-2.868,-2.868,-2.8448,-2.7945,-2.8448,-2.9039,-2.9772,-3.0271,-3.0496,-3.0451,-2.9223,-2.8272,-2.7484,-2.5994,-2.5332,-2.5293,-2.4853,-2.4678,-2.4609,-2.4014,-2.3789,-2.373,-2.3247,-2.3091,-2.3091,-2.3091,-2.3091,-2.3091,-2.3091,-2.3091,-2.3091,-2.3091,-2.3091,-2.3091,-2.3091,-2.3091,-2.3003,-2.2492,-2.2775,-2.2677,-2.098,-2.0034,-1.8993,-1.7311,-1.6339,-1.5784,-1.5784,-1.5591,-1.5304,-1.5055,-1.471,-1.4422,-1.4128,-1.4088,-1.4088,-1.4088,-1.4088,-1.4088,-1.4088,-1.4088,-1.4088,-1.4088,-1.3421,-1.2808,-1.2328,-1.0994,-1.0053,-0.9579,-0.8404,-0.7797,-0.7797,-0.8061,-0.8193,-0.8189,-0.7445,-0.7492,-0.8193,-0.8741,-0.9407,-1.015,-1.0227,-0.9954,-0.937,-0.8969,-0.8438,-0.7899,-0.7899,-0.7911,-0.7988,-0.7988,-0.8333,-0.8726,-2.8291,-2.8291,-2.8291,-2.8291,-2.8291,-2.8291,-2.8291,-2.8291,-2.8291,-2.8291,-2.8291,-2.7998,-2.7217,-2.7451,-2.7178,-2.5908,-2.5732,-2.5693,-2.5693,-2.5693,-2.5693,-2.5693,-2.5693,-2.6245,-2.74,-2.7458,-2.6849,-2.5693,-2.6849,-2.7494,-2.7636,-2.8727,-2.9223,-2.9177,-2.8096,-2.7542,-2.7363,-2.6197,-2.5693,-2.5654,-2.5293,-2.5127,-2.5086,-2.4219,-2.3887,-2.3789,-2.3305,-2.313,-2.3091,-2.3091,-2.3091,-2.3091,-2.3091,-2.3091,-2.3091,-2.3091,-2.3091,-2.3091,-2.3091,-2.3003,-2.2677,-2.1569,-2.2031,-2.2183,-1.9988,-1.9405,-1.8718,-1.6426,-1.5879,-1.5784,-1.5784,-1.5611,-1.5337,-1.5095,-1.475,-1.4462,-1.4168,-1.4108,-1.4088,-1.4088,-1.4088,-1.4088,-1.4088,-1.4088,-1.4088,-1.4088,-1.4088,-1.3603,-1.2504,-1.237,-1.1809,-1.0783,-0.9666,-0.9065,-0.9065,-0.7841,-0.7228,-0.7095,-0.7095,-0.7095,-0.7146,-0.836,-0.8939,-0.8972,-0.9237,-0.9348,-0.928,-0.8371,-0.8088,-0.8187,-0.8187,-0.8237,-0.8333,-0.8333,-0.9069,-0.9805,-2.8291,-2.8291,-2.8291,-2.8291,-2.8291,-2.8291,-2.8291,-2.8291,-2.8291,-2.8291,-2.8291,-2.8223,-2.8037,-2.7803,-2.7412,-2.6797,-2.6074,-2.5693,-2.5693,-2.5693,-2.5693,-2.5693,-2.5693,-2.583,-2.611,-2.611,-2.5965,-2.5693,-2.5965,-2.662,-2.7589,-2.7861,-2.8002,-2.8002,-2.7731,-2.704,-2.611,-2.583,-2.5693,-2.5674,-2.5635,-2.5596,-2.5537,-2.499,-2.458,-2.4228,-2.3799,-2.3428,-2.3091,-2.3091,-2.3091,-2.3091,-2.3091,-2.3091,-2.3091,-2.3091,-2.3091,-2.3091,-2.3091,-2.2403,-2.1614,-2.1382,-2.08,-2.0133,-1.9625,-1.8772,-1.7956,-1.7404,-1.648,-1.5784,-1.5784,-1.5731,-1.5645,-1.5351,-1.5102,-1.4763,-1.4469,-1.4229,-1.4088,-1.4088,-1.4088,-1.4088,-1.4088,-1.4088,-1.4088,-1.4088,-1.4088,-1.3997,-1.373,-1.2808,-1.2194,-1.1943,-1.0826,-1.0226,-1.0226,-0.9104,-0.8013,-0.7095,-0.7095,-0.7095,-0.7102,-0.7566,-0.7841,-0.7927,-0.8115,-0.8216,-0.8287,-0.8074,-0.863,-0.9558,-0.9558,-1.0194,-1.1068,-1.1068,-1.0632,-0.9805,-2.8291,-2.8291,-2.8291,-2.8291,-2.8291,-2.8291,-2.8291,-2.8291,-2.8291,-2.8291,-2.8291,-2.8223,-2.8018,-2.7978,-2.7715,-2.707,-2.6426,-2.5967,-2.5703,-2.5693,-2.5693,-2.5693,-2.5693,-2.5693,-2.5693,-2.5693,-2.5693,-2.5693,-2.5693,-2.6062,-2.6706,-2.6706,-2.6706,-2.6706,-2.6706,-2.6342,-2.5693,-2.5693,-2.5693,-2.5693,-2.5693,-2.5693,-2.5615,-2.501,-2.4619,-2.4336,-2.3711,-2.3286,-2.3091,-2.3091,-2.3091,-2.3091,-2.3091,-2.3091,-2.3091,-2.3091,-2.3091,-2.296,-2.2403,-2.18,-2.1025,-1.9852,-1.9093,-1.8634,-1.8634,-1.8141,-1.7552,-1.6897,-1.6244,-1.5784,-1.5784,-1.5784,-1.5684,-1.5444,-1.5271,-1.5017,-1.4583,-1.4389,-1.4242,-1.4108,-1.4088,-1.4088,-1.4088,-1.4088,-1.4088,-1.4088,-1.4088,-1.4088,-1.4088,-1.3512,-1.316,-1.316,-1.2029,-1.1423,-1.1423,-1.0455,-0.9323,-0.8038,-0.7513,-0.7251,-0.7258,-0.7478,-0.7624,-0.7709,-0.7855,-0.7917,-0.7988,-0.7988,-0.8775,-0.9998,-0.9998,-1.0779,-1.1848,-1.1219,-1.0194,-0.9019,-2.8291,-2.8291,-2.8291,-2.8291,-2.8291,-2.8291,-2.8291,-2.8291,-2.8291,-2.8291,-2.8291,-2.8164,-2.7865,-2.7959,-2.7822,-2.7178,-2.6602,-2.6162,-2.582,-2.5732,-2.5723,-2.5801,-2.5732,-2.5723,-2.5801,-2.5723,-2.5693,-2.5693,-2.5693,-2.5693,-2.5693,-2.5693,-2.5693,-2.5693,-2.5693,-2.5693,-2.5693,-2.5693,-2.5693,-2.5693,-2.5693,-2.5693,-2.5606,-2.4922,-2.46,-2.4424,-2.3598,-2.3218,-2.3091,-2.3091,-2.3091,-2.3091,-2.3091,-2.3091,-2.3091,-2.3091,-2.3091,-2.2818,-2.1614,-2.1159,-2.044,-1.8226,-1.7552,-1.7365,-1.7365,-1.7365,-1.7084,-1.6015,-1.5784,-1.5784,-1.5784,-1.5784,-1.5752,-1.5504,-1.5431,-1.5211,-1.4669,-1.4596,-1.4469,-1.4128,-1.4088,-1.4088,-1.4088,-1.4088,-1.4088,-1.4088,-1.4088,-1.4088,-1.4088,-1.4088,-1.4088,-1.4088,-1.3118,-1.2613,-1.2698,-1.1817,-1.087,-0.9786,-0.8653,-0.7887,-0.7463,-0.7689,-0.7811,-0.7821,-0.7924,-0.7988,-0.7988,-0.7988,-0.8775,-0.9998,-0.9998,-1.0779,-1.175,-1.0489,-0.941,-0.8775,-2.8291,-2.8291,-2.8291,-2.8291,-2.8291,-2.8291,-2.8291,-2.8291,-2.8291,-2.8291,-2.8291,-2.8271,-2.8213,-2.7598,-2.7295,-2.7559,-2.6504,-2.5967,-2.6279,-2.5947,-2.5908,-2.6279,-2.5937,-2.5869,-2.6299,-2.5937,-2.5693,-2.5693,-2.5693,-2.5693,-2.5693,-2.5693,-2.5693,-2.5693,-2.5693,-2.5693,-2.5693,-2.5693,-2.5693,-2.5693,-2.5693,-2.5693,-2.5674,-2.5557,-2.5322,-2.4959,-2.4414,-2.3725,-2.3091,-2.3091,-2.3091,-2.3091,-2.3091,-2.3091,-2.3091,-2.3091,-2.3091,-2.2818,-2.1614,-2.0531,-1.9397,-1.8048,-1.685,-1.6062,-1.6062,-1.6062,-1.6015,-1.5832,-1.5784,-1.5784,-1.5784,-1.5784,-1.5764,-1.5731,-1.5558,-1.5284,-1.4995,-1.4948,-1.4747,-1.4155,-1.4088,-1.4088,-1.4088,-1.4088,-1.4088,-1.4088,-1.4088,-1.4088,-1.4088,-1.4088,-1.4088,-1.4088,-1.3955,-1.3982,-1.4189,-1.3105,-1.2611,-1.2609,-1.1615,-0.9887,-0.7577,-0.7736,-0.7811,-0.7821,-0.7924,-0.7988,-0.7988,-0.7988,-0.8775,-0.9998,-0.9998,-1.0779,-1.175,-1.0489,-1.0583,-1.1068,-2.8291,-2.8291,-2.8291,-2.8291,-2.8291,-2.8291,-2.8291,-2.8291,-2.8291,-2.8291,-2.8291,-2.8291,-2.8291,-2.7959,-2.7715,-2.7718,-2.7148,-2.6797,-2.6738,-2.6562,-2.6435,-2.6387,-2.6201,-2.6074,-2.6025,-2.5791,-2.5693,-2.5693,-2.5693,-2.5693,-2.5693,-2.5693,-2.5693,-2.5693,-2.5693,-2.5693,-2.5693,-2.5693,-2.5693,-2.5693,-2.5693,-2.5693,-2.5664,-2.5459,-2.5244,-2.5028,-2.4307,-2.3662,-2.3091,-2.3091,-2.3091,-2.3091,-2.3091,-2.3091,-2.3091,-2.3091,-2.3091,-2.2677,-2.0809,-1.9898,-1.9039,-1.7124,-1.6197,-1.5784,-1.5784,-1.5784,-1.5784,-1.5784,-1.5784,-1.5784,-1.5784,-1.5784,-1.5784,-1.5784,-1.5718,-1.5538,-1.5244,-1.5204,-1.505,-1.4673,-1.462,-1.4509,-1.4342,-1.4329,-1.4262,-1.4095,-1.4088,-1.4088,-1.4088,-1.4088,-1.4162,-1.4322,-1.4329,-1.4469,-1.4763,-1.4417,-1.395,-1.3326,-1.3067,-1.1862,-0.9883,-1.0027,-0.9676,-0.9006,-0.9083,-0.8676,-0.7988,-0.7988,-0.8775,-0.9998,-0.9998,-1.0342,-1.0779,-1.0194,-0.9899,-0.9554]},{"header":{"parameterUnit":"m.s-1","parameterCategory":1,"la1":30.6,"la2":28.766,"lo1":-90.7593,"lo2":-88.6598,"dy":0.0162,"dx":0.0183,"nx":116,"ny":114,"refTime":"2024-05-29T12:00:00:Z","depth":0,"parameterNumber":3,"parameterNumberName":"V-component_of_WINDS"},"data":[0.0,0.0,0.0,0.0,0.0,0.0,0.0,0.0,0.0,0.0,0.0,0.0,0.0,0.0,0.0,0.0,0.0,0.0,0.0,0.0,0.0,0.0,0.0,0.0,0.0,0.0,0.0,0.0,0.0,0.0,0.0,0.0,0.0,0.0,0.0,0.0,0.0,0.0,0.0,0.0,0.0,0.0,0.0,0.0,0.0,0.0,0.0,0.0,0.0,0.0,0.0,0.0,0.0,0.0,0.0,0.0,0.0,0.0,0.0,0.0,0.0,0.0,0.0,0.0,0.0,0.0,0.0,0.0,0.0,0.0,0.0,0.0,0.0,0.0,0.0,0.0,0.0,0.0,0.0,0.0,0.0,0.0,0.0,0.0,0.0,0.0,0.0,0.0,0.0,0.0,0.0,0.0,0.0,0.0,0.0,0.0,0.0,0.0,0.0,0.0,0.0,0.0,0.0,0.0,0.0,0.0,0.0,0.0,0.0,0.0,0.0,0.0,0.0,0.0,0.0,0.0,0.0,0.0,0.0,0.0,0.0,0.0,0.0,0.0,0.0,0.0,0.0,0.0,0.0,0.0,0.0,0.0,0.0,0.0,0.0,0.0,0.0,0.0,0.0,0.0,0.0,0.0,0.0,0.0,0.0,0.0,0.0,0.0,0.0,0.0,0.0,0.0,0.0,0.0,0.0,0.0,0.0,0.0,0.0,0.0,0.0,0.0,0.0,0.0,0.0,0.0,0.0,0.0,0.0,0.0,0.0,0.0,0.0,0.0,0.0,0.0,0.0,0.0,0.0,0.0,0.0,0.0,0.0,0.0,0.0,0.0,0.0,0.0,0.0,0.0,0.0,0.0,0.0,0.0,0.0,0.0,0.0,0.0,0.0,0.0,0.0,0.0,0.0,0.0,0.0,0.0,0.0,0.0,0.0,0.0,0.0,0.0,0.0,0.0,0.0,0.0,0.0,0.0,0.0,0.0,0.0,0.0,0.0,0.0,0.0,0.0,0.0,0.0,0.0,0.0,0.0,0.0,0.0,0.0,0.0,0.0,0.0,0.0,0.0,0.0,0.0,0.0,0.0,0.0,0.0,0.0,0.0,0.0,0.0,0.0,0.0,0.0,0.0,0.0,0.0,0.0,0.0,0.0,0.0,0.0,0.0,0.0,0.0,0.0,0.0,0.0,0.0,0.0,0.0,0.0,0.0,0.0,0.0,0.0,0.0,0.0,0.0,0.0,0.0,0.0,0.0,0.0,0.0,0.0,0.0,0.0,0.0,0.0,0.0,0.0,0.0,0.0,0.0,0.0,0.0,0.0,0.0,0.0,0.0,0.0,0.0,0.0,0.0,0.0,0.0,0.0,0.0,0.0,0.0,0.0,0.0,0.0,0.0,0.0,0.0,0.0,0.0,0.0,0.0,0.0,0.0,0.0,0.0,0.0,0.0,0.0,0.0,0.0,0.0,0.0,0.0,0.0,0.0,0.0,0.0,0.0,0.0,0.0,0.0,0.0,0.0,0.0,0.0,0.0,0.0,0.0,0.0,0.0,0.0,0.0,0.0,0.0,0.0,0.0,0.0,0.0,0.0,0.0,0.0,0.0,0.0,0.0,0.0,0.0,0.0,0.0,0.0,0.0,0.0,0.0,0.0,0.0,0.0,0.0,0.0,0.0,0.0,0.0,0.0,0.0,0.0,0.0,0.0,0.0,0.0,0.0,0.0,0.0,0.0,0.0,0.0,0.0,0.0,0.0,0.0,0.0,0.0,0.0,0.0,0.0,0.0,0.0,0.0,0.0,0.0,0.0,0.0,0.0,0.0,0.0,0.0,0.0,0.0,0.0,0.0,0.0,0.0,0.0,0.0,0.0,0.0,0.0,0.0,0.0,0.0,0.0,0.0,0.0,0.0,0.0,0.0,0.0,0.0,0.0,0.0,0.0,0.0,0.0,0.0,0.0,0.0,0.0,0.0,0.0,0.0,0.0,0.0,0.0,0.0,0.0,0.0,0.0,0.0,0.0,0.0,0.0,0.0,0.0,0.0,0.0,0.0,0.0,0.0,0.0,0.0,0.0,0.0,0.0,0.0,0.0,0.0,0.0,0.0,0.0,0.0,0.0,0.0,0.0,0.0,0.0,0.0,0.0,0.0,0.0,0.0,0.0,0.0,0.0,0.0,0.0,0.0,0.0,0.0,0.0,0.0,0.0,0.0,0.0,0.0,0.0,0.0,0.0,0.0,0.0,0.0,0.0,0.0,0.0,0.0,0.0,0.0,0.0,0.0,0.0,0.0,0.0,0.0,0.0,0.0,0.0,0.0,0.0,0.0,0.0,0.0,0.0,0.0,0.0,0.0,0.0,0.0,0.0,0.0,0.0,0.0,0.0,0.0,0.0,0.0,0.0,0.0,0.0,0.0,0.0,0.0,0.0,0.0,0.0,0.0,0.0,0.0,0.0,0.0,0.0,0.0,0.0,0.0,0.0,0.0,0.0,0.0,0.0,0.0,0.0,0.0,0.0,0.0,0.0,0.0,0.0,0.0,0.0,0.0,0.0,0.0,0.0,0.0,0.0,0.0,0.0,0.0,0.0,0.0,0.0,0.0,0.0,0.0,0.0,0.0,0.0,0.0,0.0,0.0,0.0,0.0,0.0,0.0,0.0,0.0,0.0,0.0,0.0,0.0,0.0,0.0,0.0,0.0,0.0,0.0,0.0,0.0,0.0,0.0,0.0,0.0,0.0,0.0,0.0,0.0,0.0,0.0,0.0,0.0,0.0,0.0,0.0,0.0,0.0,0.0,0.0,0.0,0.0,0.0,0.0,0.0,0.0,0.0,0.0,0.0,0.0,0.0,0.0,0.0,0.0,0.0,0.0,0.0,0.0,0.0,0.0,0.0,0.0,0.0,0.0,0.0,0.0,0.0,0.0,0.0,0.0,0.0,0.0,0.0,0.0,0.0,0.0,0.0,0.0,0.0,0.0,0.0,0.0,0.0,0.0,0.0,0.0,0.0,0.0,0.0,0.0,0.0,0.0,0.0,0.0,0.0,0.0,0.0,0.0,0.0,0.0,0.0,0.0,0.0,0.0,0.0,0.0,0.0,0.0,0.0,0.0,0.0,0.0,0.0,0.0,0.0,0.0,0.0,0.0,0.0,0.0,0.0,0.0,0.0,0.0,0.0,0.0,0.0,0.0,0.0,0.0,0.0,0.0,0.0,0.0,0.0,0.0,0.0,0.0,0.0,0.0,0.0,0.0,0.0,0.0,0.0,0.0,0.0,0.0,0.0,0.0,0.0,0.0,0.0,0.0,0.0,0.0,0.0,0.0,0.0,0.0,0.0,0.0,0.0,0.0,0.0,0.0,0.0,0.0,0.0,0.0,0.0,0.0,0.0,0.0,0.0,0.0,0.0,0.0,0.0,0.0,0.0,0.0,0.0,0.0,0.0,0.0,0.0,0.0,0.0,0.0,0.0,0.0,0.0,0.0,0.0,0.0,0.0,0.0,0.0,0.0,0.0,0.0,0.0,0.0,0.0,0.0,0.0,0.0,0.0,0.0,0.0,0.0,0.0,0.0,0.0,0.0,0.0,0.0,0.0,0.0,0.0,0.0,0.0,0.0,0.0,0.0,0.0,0.0,0.0,0.0,0.0,0.0,0.0,0.0,0.0,0.0,0.0,0.0,0.0,0.0,0.0,0.0,0.0,0.0,0.0,0.0,0.0,0.0,0.0,0.0,0.0,0.0,0.0,0.0,0.0,0.0,0.0,0.0,0.0,0.0,0.0,0.0,0.0,0.0,0.0,0.0,0.0,0.0,0.0,0.0,0.0,0.0,0.0,0.0,0.0,0.0,0.0,0.0,0.0,0.0,0.0,0.0,0.0,0.0,0.0,0.0,0.0,0.0,0.0,0.0,0.0,0.0,0.0,0.0,0.0,0.0,0.0,0.0,0.0,0.0,0.0,0.0,0.0,0.0,0.0,0.0,0.0,0.0,0.0,0.0,0.0,0.0,0.0,0.0,0.0,0.0,0.0,0.0,0.0,0.0,0.0,0.0,0.0,0.0,0.0,0.0,0.0,0.0,0.0,0.0,0.0,0.0,0.0,0.0,0.0,0.0,0.0,0.0,0.0,0.0,0.0,0.0,0.0,0.0,0.0,0.0,0.0,0.0,0.0,0.0,0.0,0.0,0.0,0.0,0.0,0.0,0.0,0.0,0.0,0.0,0.0,0.0,0.0,0.0,0.0,0.0,0.0,0.0,0.0,0.0,0.0,0.0,0.0,0.0,0.0,0.0,0.0,0.0,0.0,0.0,0.0,0.0,0.0,0.0,0.0,0.0,0.0,0.0,0.0,0.0,0.0,0.0,0.0,0.0,0.0,0.0,0.0,0.0,0.0,0.0,0.0,0.0,0.0,0.0,0.0,0.0,0.0,0.0,0.0,0.0,0.0,0.0,0.0,0.0,0.0,0.0,0.0,0.0,0.0,0.0,0.0,0.0,0.0,0.0,0.0,0.0,0.0,0.0,0.0,0.0,0.0,0.0,0.0,0.0,0.0,0.0,0.0,0.0,0.0,0.0,0.0,0.0,0.0,0.0,0.0,0.0,0.0,0.0,0.0,0.0,0.0,0.0,0.0,0.0,0.0,0.0,0.0,0.0,0.0,0.0,0.0,0.0,0.0,0.0,0.0,0.0,0.0,0.0,0.0,0.0,0.0,0.0,0.0,0.0,0.0,0.0,0.0,0.0,0.0,0.0,0.0,0.0,0.0,0.0,0.0,0.0,0.0,0.0,0.0,0.0,0.0,0.0,0.0,0.0,0.0,0.0,0.0,0.0,0.0,0.0,0.0,0.0,0.0,0.0,0.0,0.0,0.0,0.0,0.0,0.0,0.0,0.0,0.0,0.0,0.0,0.0,0.0,0.0,0.0,0.0,0.0,0.0,0.0,0.0,0.0,0.0,0.0,0.0,0.0,0.0,0.0,0.0,0.0,0.0,0.0,0.0,0.0,0.0,0.0,0.0,0.0,0.0,0.0,0.0,0.0,0.0,0.0,0.0,0.0,0.0,0.0,0.0,0.0,0.0,0.0,0.0,0.0,0.0,0.0,0.0,0.0,0.0,0.0,0.0,0.0,0.0,0.0,0.0,0.0,0.0,0.0,0.0,0.0,0.0,0.0,0.0,0.0,0.0,0.0,0.0,0.0,0.0,0.0,0.0,0.0,0.0,0.0,0.0,0.0,0.0,0.0,0.0,0.0,0.0,0.0,0.0,0.0,0.0,0.0,0.0,0.0,0.0,0.0,0.0,0.0,0.0,0.0,0.0,0.0,0.0,0.0,0.0,0.0,0.0,0.0,0.0,0.0,0.0,0.0,0.0,0.0,0.0,0.0,0.0,0.0,0.0,0.0,0.0,0.0,0.0,0.0,0.0,0.0,0.0,0.0,0.0,0.0,0.0,0.0,0.0,0.0,0.0,0.0,0.0,0.0,0.0,0.0,0.0,0.0,0.0,0.0,0.0,0.0,0.0,0.0,0.0,0.0,0.0,0.0,0.0,0.0,0.0,0.0,0.0,0.0,0.0,0.0,0.0,0.0,0.0,0.0,0.0,0.0,0.0,0.0,0.0,0.0,0.0,0.0,0.0,0.0,0.0,0.0,0.0,0.0,0.0,0.0,0.0,0.0,0.0,0.0,0.0,0.0,0.0,0.0,0.0,0.0,0.0,0.0,0.0,0.0,0.0,0.0,0.0,0.0,0.0,0.0,0.0,0.0,0.0,0.0,0.0,0.0,0.0,0.0,0.0,0.0,0.0,0.0,0.0,0.0,0.0,0.0,0.0,0.0,0.0,0.0,0.0,0.0,0.0,0.0,0.0,0.0,0.0,0.0,0.0,0.0,0.0,0.0,0.0,0.0,0.0,0.0,0.0,0.0,0.0,0.0,0.0,0.0,0.0,0.0,0.0,0.0,0.0,0.0,0.0,0.0,0.0,0.0,0.0,0.0,0.0,0.0,0.0,0.0,0.0,0.0,0.0,0.0,0.0,0.0,0.0,0.0,0.0,0.0,0.0,0.0,0.0,0.0,0.0,0.0,0.0,0.0,0.0,0.0,0.0,0.0,0.0,0.0,0.0,2.224,2.1069,0.0,0.0,0.0,0.0,0.0,0.0,0.0,0.0,0.0,0.0,0.0,0.0,0.0,0.0,0.0,0.0,0.0,0.0,0.0,0.0,0.0,0.0,0.0,2.301,2.3816,2.5089,2.5817,2.6544,2.7242,0.0,0.0,0.0,0.0,0.0,2.6899,2.6885,2.6703,2.6355,2.6688,2.6226,2.5021,2.3405,2.1298,1.8858,0.0,0.0,0.0,0.0,0.0,0.0,0.0,0.0,0.0,0.0,0.0,0.0,0.0,0.0,0.0,0.0,0.0,0.0,0.0,0.0,0.0,0.0,0.0,0.0,0.0,0.0,0.0,0.0,0.0,0.0,0.0,0.0,0.0,0.0,0.0,0.0,0.0,0.0,0.0,0.0,0.0,0.0,0.0,0.0,0.0,0.0,0.0,0.0,0.0,0.0,0.0,0.0,0.0,0.0,0.0,0.0,0.0,0.0,0.0,0.0,0.0,0.0,0.0,0.0,0.0,0.0,0.0,0.0,0.0,0.0,2.4575,2.3796,0.0,0.0,0.0,0.0,0.0,0.0,0.0,0.0,0.0,0.0,0.0,0.0,0.0,0.0,0.0,0.0,0.0,0.0,0.0,0.0,0.0,2.275,2.3587,2.4209,2.4988,2.6087,2.6849,2.7512,2.8109,2.8844,0.0,0.0,0.0,2.8733,2.8223,2.834,2.8355,2.8211,2.7867,2.768,2.7651,2.5985,2.4016,2.1678,1.9591,0.0,0.0,0.0,0.0,0.0,0.0,0.0,0.0,0.0,0.0,0.0,0.0,0.0,0.0,0.0,0.0,0.0,0.0,0.0,0.0,0.0,0.0,0.0,0.0,0.0,0.0,0.0,0.0,0.0,0.0,0.0,0.0,0.0,0.0,0.0,0.0,0.0,0.0,0.0,0.0,0.0,0.0,0.0,0.0,0.0,0.0,0.0,0.0,0.0,0.0,0.0,0.0,0.0,0.0,0.0,0.0,0.0,0.0,0.0,0.0,0.0,0.0,0.0,2.8878,2.8433,2.7556,2.7556,2.7556,2.7556,2.7556,2.7174,2.6524,2.6524,0.0,0.0,0.0,0.0,0.0,0.0,0.0,0.0,0.0,0.0,0.0,0.0,0.0,0.0,0.0,0.0,0.0,0.0,0.0,2.3281,2.4957,2.6091,2.7264,2.8452,2.8657,2.9077,2.9905,3.0042,0.0,0.0,3.1671,3.1986,3.191,3.2471,3.2499,3.1899,3.0091,2.9217,2.919,2.7667,2.6774,2.6269,2.3069,2.1675,2.1677,0.0,0.0,0.0,0.0,0.0,0.0,0.0,0.0,0.0,0.0,0.0,0.0,0.0,0.0,0.0,0.0,0.0,0.0,0.0,0.0,0.0,0.0,0.0,0.0,0.0,0.0,0.0,0.0,0.0,0.0,0.0,0.0,0.0,0.0,0.0,0.0,0.0,0.0,0.0,0.0,0.0,2.6844,2.7964,0.0,0.0,0.0,0.0,0.0,0.0,0.0,0.0,0.0,0.0,0.0,0.0,0.0,3.2245,3.2006,3.2164,3.2164,3.2006,3.2006,3.192,3.1798,3.1798,3.1798,3.1798,3.1798,0.0,2.6524,2.6524,0.0,0.0,0.0,0.0,0.0,0.0,0.0,0.0,0.0,0.0,0.0,0.0,0.0,0.0,0.0,0.0,0.0,0.0,0.0,0.0,0.0,2.7185,2.7915,2.8408,2.9588,3.0468,3.0852,3.1673,3.2514,3.3251,3.3217,3.3361,3.3767,3.366,3.3463,3.3159,3.2258,3.1784,3.1758,3.0251,2.9552,2.945,2.7067,2.5144,2.3556,2.1845,0.0,0.0,0.0,0.0,0.0,0.0,0.0,0.0,0.0,0.0,0.0,0.0,0.0,0.0,0.0,0.0,0.0,0.0,0.0,0.0,0.0,0.0,0.0,0.0,0.0,0.0,0.0,0.0,0.0,0.0,0.0,0.0,0.0,0.0,0.0,0.0,0.0,0.0,0.0,2.9535,2.947,2.9091,2.9325,2.9781,0.0,0.0,0.0,0.0,0.0,0.0,0.0,0.0,0.0,3.3702,3.3716,3.3716,3.3716,3.3716,3.3536,3.3176,3.3176,3.296,3.2593,3.2593,3.2593,3.2593,3.2593,3.1566,2.9923,2.9923,3.0201,3.0628,0.0,0.0,0.0,0.0,3.0011,2.9701,0.0,0.0,0.0,0.0,0.0,0.0,0.0,0.0,0.0,0.0,0.0,0.0,2.7951,2.8592,2.9103,2.9405,3.093,3.182,3.1625,3.2867,3.3768,3.4136,3.3954,3.4104,3.4652,3.4288,3.4128,3.4128,3.3937,3.3862,3.3836,3.2501,3.1881,3.1825,3.0454,2.8381,2.5761,2.3924,2.2971,0.0,0.0,0.0,0.0,0.0,0.0,0.0,0.0,0.0,0.0,0.0,0.0,0.0,0.0,0.0,0.0,0.0,0.0,0.0,0.0,0.0,0.0,0.0,0.0,0.0,0.0,0.0,0.0,0.0,0.0,0.0,0.0,0.0,0.0,0.0,0.0,0.0,0.0,3.203,3.194,3.0673,3.1035,3.1434,0.0,0.0,0.0,0.0,0.0,0.0,3.4186,3.4214,3.4534,3.5283,3.5311,3.5311,3.5311,3.5311,3.4986,3.4349,3.4349,3.3988,3.3359,3.3359,3.3359,3.3359,3.3359,3.3359,3.329,3.282,3.2593,3.2593,3.2593,3.2366,3.2,3.2,3.1744,3.1459,0.0,0.0,0.0,0.0,0.0,0.0,0.0,0.0,0.0,0.0,0.0,2.8804,3.0183,3.0935,3.1867,3.321,3.3421,3.3208,0.0,3.3179,3.331,3.2652,3.3844,3.4568,3.4601,3.5201,3.5492,3.5492,3.4871,3.4552,3.4528,3.382,3.3463,3.3437,3.2558,3.0893,2.877,2.8119,2.7858,2.7659,0.0,0.0,0.0,0.0,0.0,0.0,0.0,0.0,0.0,0.0,0.0,0.0,0.0,0.0,0.0,0.0,0.0,0.0,0.0,0.0,0.0,0.0,0.0,0.0,0.0,0.0,0.0,0.0,0.0,0.0,0.0,0.0,0.0,0.0,0.0,0.0,0.0,0.0,0.0,3.2533,3.3073,0.0,0.0,0.0,0.0,3.3559,3.4127,3.4918,3.582,3.5892,3.6291,3.7218,3.7267,3.7267,3.7267,3.7267,3.6939,3.6328,3.6328,3.5985,3.5359,3.5359,3.5359,3.5359,3.5359,3.5359,3.5213,3.3359,3.2593,3.2593,3.2593,3.2579,3.2552,3.2552,3.2538,3.251,0.0,0.0,0.0,0.0,0.0,2.4557,2.5365,2.6771,2.7992,2.8733,2.9695,3.0547,3.114,3.1537,3.1792,3.1915,3.2485,3.2829,3.2811,3.3996,3.4914,3.5446,3.599,3.6271,3.6271,3.6507,3.6643,3.6643,3.6391,3.61,3.5747,3.5057,3.4565,3.4211,3.3467,3.2978,3.2501,2.993,2.8852,2.8693,2.7154,2.6433,0.0,0.0,0.0,0.0,0.0,0.0,0.0,0.0,0.0,0.0,0.0,0.0,0.0,0.0,0.0,0.0,0.0,0.0,0.0,0.0,0.0,0.0,0.0,0.0,0.0,0.0,0.0,0.0,0.0,0.0,0.0,0.0,0.0,0.0,0.0,0.0,0.0,3.3401,3.4145,0.0,3.4782,3.4982,3.5375,3.602,3.6274,3.6737,3.7517,3.7532,3.7896,3.8656,3.8706,3.8706,3.8706,3.8706,3.8362,3.7704,3.7285,3.6746,3.6118,3.5699,3.5504,3.5504,3.5504,3.5504,3.5439,3.4739,3.4457,3.4457,3.4457,3.4457,3.4457,3.4457,3.4457,3.4457,0.0,0.0,0.0,0.0,2.5007,2.5791,2.6667,2.833,2.9644,3.0145,3.1117,3.1888,3.2249,3.2389,3.2403,3.2266,3.282,3.3185,3.3205,3.4653,3.5754,3.6303,3.6889,3.7209,3.7209,3.7209,3.7209,3.7209,3.7209,3.7018,3.6664,3.6229,3.5814,3.5475,3.5017,3.5231,3.575,3.2872,3.1567,3.1351,3.0191,2.9479,2.8985,0.0,0.0,0.0,0.0,0.0,0.0,0.0,0.0,0.0,0.0,0.0,0.0,0.0,0.0,0.0,0.0,0.0,0.0,0.0,0.0,0.0,0.0,0.0,0.0,0.0,0.0,0.0,0.0,0.0,0.0,0.0,0.0,0.0,0.0,0.0,3.6033,3.4989,3.5801,3.6435,3.6449,3.6666,3.7061,3.7699,3.7958,3.8272,3.8706,3.8736,3.8945,3.9373,3.9388,3.9388,3.9388,3.9388,3.9065,3.8377,3.7943,3.73,3.6477,3.6028,3.5714,3.5504,3.5504,3.5636,3.5863,3.5863,3.6038,3.6227,3.5701,3.5504,3.5504,3.5504,3.5504,3.5504,0.0,0.0,0.0,2.433,2.505,2.583,2.6739,2.8802,3.026,3.0275,3.1608,3.2849,3.356,3.3614,3.3881,3.4606,3.4641,3.4341,3.3669,3.5066,3.5615,3.4995,3.6451,3.7268,3.7268,3.7268,3.7268,3.7268,3.7267,3.7248,3.7229,3.7229,3.721,3.7209,3.7209,3.7652,3.8337,3.7131,3.6347,3.59,3.4923,3.3794,3.2521,0.0,0.0,0.0,0.0,0.0,0.0,0.0,0.0,0.0,0.0,0.0,0.0,0.0,0.0,0.0,0.0,0.0,0.0,0.0,0.0,0.0,0.0,0.0,0.0,0.0,0.0,0.0,0.0,0.0,0.0,0.0,0.0,0.0,3.6778,3.7098,3.7469,3.7469,3.8053,3.8167,3.7539,3.8048,3.8422,3.8422,3.9035,3.9388,3.9388,3.9403,3.9454,3.9475,3.9475,3.9475,3.9475,3.946,3.9116,3.8422,3.8427,3.7788,3.6573,3.6558,3.6217,3.5569,3.5569,3.5975,3.6646,3.6646,3.71,3.7648,3.6148,3.5537,3.5537,3.5504,3.5504,3.5537,0.0,0.0,2.4364,2.5747,2.6154,2.6833,2.843,3.0206,3.1431,3.1619,3.3073,3.4159,3.437,3.3917,3.3687,3.3873,3.3412,3.3414,3.4132,3.5346,3.6714,3.8202,3.8704,3.8946,3.8946,3.8946,3.8946,3.8946,3.8703,3.8386,3.8051,3.7823,3.7524,3.7209,3.7209,3.7935,3.9173,3.8816,3.9255,3.9871,3.6712,3.5213,3.4873,0.0,0.0,0.0,0.0,0.0,0.0,0.0,0.0,0.0,0.0,0.0,0.0,0.0,0.0,0.0,0.0,0.0,0.0,0.0,0.0,0.0,0.0,0.0,0.0,0.0,0.0,0.0,0.0,0.0,0.0,0.0,3.8777,3.8756,3.8304,3.8709,3.9072,3.9072,3.9113,3.9065,3.8886,3.9035,3.914,3.914,3.932,3.9388,3.9388,3.9873,4.0426,4.1115,4.1096,4.1096,4.1151,4.0624,3.9919,3.914,3.9268,3.8885,3.8023,3.8185,3.785,3.7191,3.7191,3.7294,3.7485,3.7485,3.7602,3.7706,3.6692,3.6306,3.6228,3.5701,3.5846,3.6368,0.0,2.4201,2.4866,2.6553,2.6851,2.7577,2.9738,3.1154,3.2152,3.2638,3.3874,3.4694,3.4694,3.4319,3.4054,3.4054,3.3979,3.4248,3.4984,3.6313,3.7823,3.9531,3.9599,3.9599,3.9599,3.9599,3.9599,3.9599,3.9401,3.9162,3.8892,3.8699,3.8389,3.8006,3.8006,3.8811,4.0165,3.9903,4.0717,4.1952,3.9356,3.7986,3.742,3.69,3.5924,3.4757,3.4133,3.3587,3.3137,3.3226,0.0,0.0,0.0,0.0,0.0,0.0,0.0,0.0,0.0,0.0,0.0,0.0,0.0,0.0,0.0,0.0,0.0,0.0,0.0,0.0,0.0,0.0,0.0,0.0,4.059,4.0803,4.0803,4.0475,4.0222,4.0122,4.001,3.9955,3.9955,3.9955,4.0095,4.0447,4.0481,4.0481,4.0481,4.0867,4.1329,4.1859,4.1859,4.1826,4.1877,4.1451,4.0995,4.0481,4.0622,4.0288,3.9612,3.9415,3.8923,3.8251,3.7934,3.7978,3.8246,3.8246,3.8458,0.0,0.0,0.0,0.0,0.0,3.6738,3.7174,0.0,2.4733,2.5358,2.704,2.7355,2.8183,3.0662,3.1711,3.2533,3.3374,3.4245,3.4784,3.4784,3.4754,3.4753,3.4753,3.5442,3.6019,0.0,0.0,3.8977,3.9832,3.9775,3.9719,3.9719,3.9705,3.9701,3.9701,3.9668,3.9656,3.9656,3.9622,3.9438,3.9165,3.9272,4.0016,4.1172,4.0703,4.1415,4.279,4.2144,4.1153,3.9898,3.8832,3.7883,3.7067,3.6465,3.6147,3.6027,3.6027,0.0,0.0,0.0,0.0,0.0,0.0,0.0,0.0,0.0,0.0,0.0,0.0,0.0,0.0,0.0,0.0,0.0,0.0,0.0,0.0,0.0,0.0,0.0,0.0,4.298,4.3426,4.3511,4.2318,4.1293,4.1035,4.0912,4.086,4.086,4.086,4.118,4.1933,4.1997,4.2029,4.2109,4.2109,0.0,0.0,0.0,4.227,4.227,4.2205,4.2093,4.1997,4.2093,4.1788,4.1112,4.048,3.9801,3.9121,3.837,3.843,3.9032,3.9032,3.9463,3.9969,3.8486,3.7863,3.7806,3.7892,3.7921,3.7921,0.0,2.6172,2.7072,2.8078,2.8248,2.8936,3.0936,3.1976,3.2897,3.3909,3.4805,3.5354,3.5354,3.5147,3.5016,3.5016,3.5571,3.6867,0.0,0.0,4.0372,4.1487,4.0858,4.0491,4.0491,4.038,4.0328,4.0328,4.011,4.0002,4.0002,3.9731,3.9564,3.9536,4.0238,4.1055,4.1916,4.2188,4.2857,4.3684,4.2848,4.2083,4.1394,4.1165,4.0311,3.9201,3.905,3.8344,3.7406,3.7406,3.7062,3.6609,3.6609,0.0,0.0,0.0,0.0,0.0,0.0,0.0,0.0,0.0,0.0,0.0,0.0,0.0,0.0,0.0,0.0,0.0,0.0,0.0,0.0,4.3081,4.3291,4.3639,4.4265,4.4091,4.3619,4.2892,4.2157,4.1739,4.1739,4.1739,4.1836,4.1997,4.1997,4.227,4.2863,4.2829,4.3428,4.4781,4.4194,4.3868,4.3961,4.3356,4.2693,4.1997,4.2707,0.0,4.1963,4.1888,4.1446,4.0709,3.9971,3.9731,3.9876,3.9876,3.9952,4.002,3.9059,3.833,3.7863,3.8469,3.869,3.8772,2.6251,2.6758,2.739,2.829,2.8566,2.9403,3.1615,3.24,3.3259,3.4666,3.5231,3.55,3.55,3.5376,3.5297,3.5297,3.6374,0.0,0.0,4.0713,4.0951,4.1995,4.1218,4.0747,4.0747,4.0685,4.0645,4.0645,4.0489,4.0404,4.0404,4.0605,4.0613,4.0496,4.1372,4.2098,4.2712,4.294,4.3535,4.4261,4.3822,4.3345,4.2813,4.207,4.1372,4.0799,4.0799,4.0381,3.9817,3.9817,3.9588,3.9291,3.9291,3.9291,3.9291,0.0,0.0,0.0,0.0,0.0,0.0,0.0,0.0,0.0,0.0,0.0,0.0,0.0,0.0,4.2963,0.0,0.0,4.3673,4.4434,4.4248,4.413,4.4547,4.4615,4.4281,4.3396,4.2909,4.2645,4.2645,4.2645,4.2831,4.3259,4.3619,4.4012,4.4375,4.4737,4.5138,4.5598,4.5203,4.4836,4.4511,4.4115,4.3739,4.332,4.3739,4.3747,4.3375,4.2631,4.21,4.1677,4.0587,4.0096,4.0096,4.0096,4.0096,4.0045,3.9662,3.9279,3.8995,3.9358,3.9489,3.9558,2.6829,2.6974,2.7278,2.8351,2.8704,2.968,3.2159,3.266,3.3379,3.5124,3.5335,3.5335,3.5335,3.5383,3.5573,0.0,0.0,0.0,0.0,4.1678,4.1668,4.2353,4.1551,4.1006,4.0847,4.0809,4.0797,4.0797,4.0917,4.0965,4.0969,4.1714,4.192,4.1695,4.2546,4.315,4.3504,4.3615,4.4052,4.4682,4.4637,4.4419,4.3979,4.272,4.2129,4.1979,4.1979,4.1895,4.181,4.181,4.181,4.181,4.181,4.181,4.181,4.181,4.181,0.0,0.0,0.0,0.0,0.0,0.0,0.0,0.0,0.0,4.2726,4.2746,4.3335,4.4096,4.4874,4.5038,4.5213,4.5821,4.528,4.479,4.479,4.4699,4.4355,4.3621,4.3562,4.3562,4.3562,4.3562,4.3844,4.4542,4.5145,4.5551,4.5703,4.6126,4.616,4.572,4.5568,4.5196,4.4615,4.4615,4.4615,4.4615,4.4615,4.4615,4.4564,4.3132,4.2439,4.2202,4.0756,4.0096,4.0096,4.0096,4.0096,4.0096,4.0096,4.0096,4.0096,4.0096,4.0096,4.0096,0.0,2.7083,2.7494,2.8785,2.9043,2.9785,3.192,3.2259,3.2873,3.4576,3.4784,3.4784,3.4784,3.4999,3.5832,3.757,0.0,0.0,4.2942,4.319,4.3331,4.3422,4.2607,4.1768,4.0986,4.0864,4.0797,4.0797,4.1571,4.1917,4.1879,4.2666,4.2985,4.2936,4.3744,4.413,4.4228,4.4703,4.4957,4.503,4.4707,4.4567,4.4487,4.3945,4.328,4.2596,4.2596,4.2244,4.181,4.181,4.181,4.181,4.181,4.181,4.181,4.181,0.0,4.181,4.181,4.181,4.197,4.2599,4.2785,4.2848,0.0,0.0,4.4199,4.433,4.4925,4.5669,4.6413,4.6532,4.6566,4.665,4.6058,4.5585,4.5585,4.4993,4.457,4.4485,4.444,4.444,4.444,4.444,4.4514,4.4598,4.4682,4.4993,4.5669,4.5145,4.5094,4.5686,4.506,4.4682,4.4615,4.4615,4.4615,4.4615,4.4615,4.4615,4.4581,4.369,4.2929,4.2202,4.0756,4.0096,4.0096,4.0096,4.0096,4.0096,4.0096,4.0096,4.0096,4.0096,4.0096,4.0096,0.0,2.6251,2.6702,2.7462,2.8487,2.9763,3.1433,3.1953,3.2762,3.4484,3.4465,3.4403,3.4674,3.5362,3.6521,3.8299,3.9913,4.1528,4.3214,4.3522,4.388,4.4387,4.3587,4.2943,4.2572,4.2521,4.2494,4.2494,4.2815,4.2925,4.2825,4.3598,4.3909,4.3835,4.4682,4.5056,4.5066,4.5313,4.54,4.539,4.5243,4.4954,4.458,4.4401,4.3862,4.3178,4.3178,4.2995,0.0,0.0,4.2791,4.2791,4.2791,4.2791,4.2791,4.2791,4.2791,0.0,4.2791,4.2904,4.3115,0.0,4.3939,4.4355,4.4437,4.4778,4.5053,4.511,4.5778,4.643,4.6735,4.7141,4.7445,0.0,4.6819,4.6194,4.5771,4.5432,4.5077,4.4649,4.4615,4.4615,4.4615,4.4615,4.4615,4.4615,4.4993,4.5365,4.5686,4.5805,4.5821,4.5703,4.5399,4.5026,4.4615,4.4615,4.4615,4.4615,4.4615,4.4615,4.4581,4.3775,4.275,4.1627,4.1001,4.0519,4.0096,4.0096,4.0096,4.0096,4.0096,4.0096,4.0096,4.0096,4.0096,4.0096,0.0,2.5169,2.573,2.6284,2.7639,2.9158,3.0483,3.1205,3.2117,3.3596,3.3784,3.3993,3.45,3.5751,3.7071,3.8356,4.0169,4.1754,4.2957,4.3671,4.4238,4.4629,4.4277,4.3945,4.3711,4.3691,4.3691,4.3691,4.3898,4.3912,4.3774,4.4524,4.4808,4.4682,4.5325,4.5594,4.5594,4.5594,4.555,4.5457,4.5457,4.5118,4.458,4.4474,4.4091,4.3631,4.3531,4.3515,0.0,0.0,4.3515,4.3515,4.3515,4.3515,4.3515,4.3515,4.3515,4.3515,4.3515,4.3798,4.4173,4.439,4.5122,4.5805,4.5887,4.5953,4.5985,4.5831,4.6309,4.6827,4.7052,4.7547,4.7956,4.8159,4.7581,4.6921,4.6397,4.5974,4.5585,4.5258,4.5038,4.4919,4.4919,4.4733,4.4615,4.4615,4.5077,4.5399,4.5399,4.5889,4.594,4.5415,4.5399,4.5128,4.4615,4.4615,4.4615,4.4615,4.4615,4.4615,4.4581,4.3555,4.2523,4.1474,4.1068,4.0578,4.0096,4.0096,4.0096,4.0096,4.0096,4.0096,4.0096,4.0096,4.0096,4.0096,0.0,0.0,2.4776,2.5817,2.6662,2.7617,2.8973,2.9781,3.0546,3.1404,3.2496,3.3482,3.414,3.5971,3.7306,3.7612,4.0343,4.2093,4.2132,4.3905,4.4609,4.3789,4.4512,4.4551,4.3711,4.3691,4.3691,4.3691,4.4531,4.486,4.4684,4.5486,4.5749,4.5556,4.5594,4.5594,4.5594,4.5594,4.541,4.5126,4.5126,4.4908,4.4553,4.4161,4.3998,4.394,4.3631,0.0,0.0,0.0,4.3515,4.3515,4.3515,4.3515,0.0,4.3515,4.3515,4.3515,4.3515,4.4085,4.4856,4.5645,4.6452,4.7106,4.7292,4.7345,4.7192,4.6673,4.6593,4.6869,4.7717,4.7872,4.8125,4.8849,4.8359,4.7838,4.7821,4.6616,4.5957,4.665,4.6109,4.5669,0.0,4.501,4.4615,4.4615,4.4632,4.4632,4.4632,4.4649,4.4666,4.4632,4.4632,4.4632,4.4615,4.4615,4.4615,4.4615,4.4615,4.4615,4.4564,4.3041,4.2303,4.2185,4.0756,4.013,4.0096,4.0096,4.0096,4.0096,4.0096,4.0096,4.0096,4.0096,4.0096,4.0096,0.0,0.0,0.0,2.6138,2.7389,2.8514,2.8956,2.9661,3.0612,3.1956,3.3223,0.0,0.0,0.0,0.0,0.0,4.0633,4.1817,4.2085,4.3875,4.4816,4.457,4.5391,4.5723,4.543,4.543,4.543,4.543,4.5636,4.5648,4.5505,4.5733,4.5743,4.5594,4.5594,4.5594,4.5586,4.5352,4.581,4.6572,4.5285,4.5181,4.566,4.4472,4.3865,4.3646,0.0,0.0,0.0,0.0,4.3515,4.3515,4.3515,0.0,0.0,4.3775,4.3818,4.3818,4.3818,4.4411,4.5033,4.5092,4.6104,4.713,4.7195,4.7314,4.7349,4.7181,4.7197,4.7219,4.7059,4.7848,4.8448,4.8284,4.8477,4.8477,4.7956,4.7466,4.7073,4.6819,4.6583,0.0,0.0,0.0,0.0,4.4649,4.4615,4.4615,4.4615,4.4615,4.4615,4.4615,4.4615,4.4615,4.4615,4.4615,4.4615,4.4615,4.4615,4.4615,4.4564,4.3504,4.276,4.2236,4.1255,4.0544,4.0096,4.0096,4.0096,4.0096,4.0096,4.0096,4.0096,4.0096,4.0096,4.0096,0.0,0.0,0.0,0.0,0.0,0.0,0.0,0.0,0.0,0.0,0.0,0.0,0.0,0.0,0.0,0.0,0.0,4.1201,4.1568,4.3097,4.4136,4.4487,4.5307,4.5913,4.6225,4.6177,4.6103,4.5984,4.5898,4.5711,4.5466,4.5422,4.5357,4.5243,4.5243,4.5243,4.5232,4.5011,4.5444,4.6144,4.4888,4.4786,4.5249,4.4209,4.3695,0.0,0.0,0.0,0.0,0.0,0.0,0.0,0.0,0.0,4.3582,4.3893,4.4001,4.4028,4.4194,4.47,4.5148,4.4927,4.5771,4.6746,4.7021,4.7192,4.7309,4.7373,4.7275,4.7037,4.6673,4.7414,4.8054,4.7928,4.8528,4.8832,4.8376,4.8058,4.7834,4.7614,4.7344,4.7192,0.0,0.0,0.0,4.506,4.4976,4.4874,4.4615,4.4615,4.4615,4.4615,4.4615,4.4615,4.4615,4.4615,4.4615,4.4615,4.4615,4.4557,4.447,4.3685,4.3031,4.2479,4.1739,4.1016,4.0392,4.0392,4.0262,4.0096,4.0096,4.0096,4.0096,4.0096,4.0096,4.0096,0.0,0.0,0.0,0.0,0.0,0.0,0.0,0.0,0.0,0.0,0.0,0.0,0.0,0.0,0.0,0.0,0.0,0.0,4.0623,4.1657,0.0,4.3446,4.428,4.5116,4.5916,4.585,4.5626,4.5239,4.5225,4.4977,4.4494,4.4482,4.4421,4.431,4.431,4.431,4.431,4.4329,4.4195,4.3965,4.3909,4.3761,4.3554,4.3481,0.0,0.0,0.0,0.0,0.0,0.0,0.0,0.0,0.0,0.0,4.3582,4.3893,4.4001,4.4073,4.4474,4.4857,4.5137,4.5121,4.5482,4.6049,4.6801,4.7003,4.7108,4.7334,4.6878,4.6464,0.0,0.0,4.717,4.78,4.8558,4.9032,4.9052,4.8426,4.824,0.0,0.0,0.0,0.0,0.0,0.0,4.5923,0.0,4.5399,4.4699,4.4632,4.4615,4.4615,4.4615,4.4615,4.4615,4.4626,4.4654,4.4654,4.4631,4.4517,4.4317,4.3554,4.3074,4.2846,4.2108,4.1468,4.0949,4.0949,4.0648,4.0196,4.0196,4.0196,4.0179,4.0146,4.0146,4.0146,0.0,0.0,0.0,0.0,0.0,0.0,0.0,0.0,0.0,0.0,0.0,0.0,0.0,0.0,0.0,0.0,0.0,0.0,0.0,0.0,0.0,0.0,4.3208,4.3875,4.3654,4.4252,4.3999,4.2881,4.2817,4.2415,4.1715,4.163,4.1194,4.0517,4.0517,4.0517,4.0535,4.0818,4.2014,4.3616,0.0,4.3287,4.4554,0.0,0.0,0.0,0.0,0.0,0.0,0.0,0.0,0.0,0.0,4.3515,4.3582,4.3893,4.4001,4.4013,4.4136,4.424,4.4256,4.3991,4.4466,4.5057,4.526,4.5792,4.6397,4.7033,4.7042,4.6837,0.0,0.0,0.0,4.8018,4.8941,0.0,4.9805,4.9187,0.0,4.8984,0.0,4.8731,4.8731,4.8731,0.0,0.0,4.6329,4.5618,4.5432,4.4919,4.4615,4.4615,4.4615,4.4615,4.4615,4.5052,4.5267,4.5267,4.5132,4.5008,4.4923,4.3592,4.2961,4.2846,4.2108,4.1707,4.1578,4.1578,4.149,4.1375,4.1375,4.1375,4.1308,4.085,4.0703,4.0631,0.0,0.0,0.0,0.0,0.0,0.0,0.0,0.0,0.0,0.0,0.0,0.0,0.0,0.0,0.0,0.0,0.0,0.0,0.0,0.0,3.9977,4.0435,4.1344,4.1657,4.1277,4.1693,4.1255,3.9895,0.0,0.0,3.8894,3.8828,3.8505,3.8011,3.8011,3.8011,3.8027,0.0,0.0,0.0,0.0,0.0,0.0,0.0,0.0,0.0,0.0,0.0,0.0,0.0,0.0,4.4085,4.4433,4.4544,4.4539,4.4544,0.0,4.4494,4.4298,4.4132,4.3955,4.3775,4.3964,4.4268,4.4618,4.5333,4.614,4.6929,4.7179,0.0,4.6905,4.8197,4.9081,0.0,0.0,0.0,5.0039,4.9437,4.9001,0.0,4.9001,0.0,4.9419,4.8893,4.8476,0.0,4.7244,4.6458,4.6116,4.5644,4.5381,4.5381,4.5381,4.5381,4.5381,4.5732,4.589,4.589,4.5423,4.5159,4.5071,4.3857,4.325,4.3134,4.2722,4.2424,4.2183,4.2183,4.2041,4.181,4.181,4.181,4.175,4.1424,4.1133,4.0874,0.0,0.0,0.0,0.0,0.0,0.0,0.0,0.0,0.0,0.0,0.0,0.0,0.0,0.0,0.0,0.0,0.0,0.0,0.0,0.0,0.0,3.8948,3.9096,3.8993,3.8692,3.8675,3.7958,3.6513,0.0,0.0,0.0,0.0,0.0,0.0,0.0,0.0,0.0,0.0,0.0,0.0,0.0,0.0,0.0,0.0,0.0,0.0,0.0,0.0,0.0,0.0,4.451,4.4711,4.5535,4.5718,4.5571,4.5171,4.4973,4.4814,4.4475,4.4046,4.3712,4.3712,4.354,4.3575,4.4272,4.5114,4.5975,4.6764,0.0,4.7362,4.7388,4.8217,4.8917,4.8941,0.0,5.0031,5.0126,4.9471,4.9001,4.9001,4.9001,4.9256,4.9919,4.8795,4.8309,4.8983,4.8265,4.7447,4.6655,4.6467,4.6354,4.6248,4.6248,4.6195,4.6065,4.6159,4.6205,4.6205,4.5475,4.5072,4.4921,4.4124,4.3668,4.3515,4.3515,4.3232,4.2807,4.2807,4.2501,4.2041,4.2041,4.2041,4.2021,4.1958,4.1599,4.1133,0.0,0.0,0.0,0.0,0.0,0.0,0.0,0.0,0.0,0.0,3.3059,3.3489,0.0,0.0,0.0,0.0,0.0,0.0,0.0,0.0,0.0,0.0,3.6971,3.6744,3.5439,3.6033,3.5262,0.0,0.0,0.0,0.0,0.0,0.0,0.0,0.0,0.0,0.0,0.0,0.0,0.0,0.0,0.0,0.0,0.0,0.0,0.0,0.0,0.0,0.0,0.0,4.3591,4.4109,4.4907,4.4797,4.432,4.4228,4.3793,4.3281,4.3222,4.2698,4.2192,4.2192,4.2505,4.2881,4.3026,4.4017,0.0,0.0,4.6671,4.7211,4.7362,4.8535,4.9503,4.9678,4.9817,5.0162,5.0887,4.9842,4.9001,0.0,4.9001,4.9256,4.9919,4.9188,0.0,0.0,4.8894,4.7855,4.6673,4.6467,4.6106,4.5428,4.5411,4.5087,4.4428,4.4979,4.5252,4.5234,4.4937,4.4766,4.4711,4.3924,4.3538,4.3515,4.3515,0.0,4.3375,4.3375,4.3303,4.3214,4.3214,4.3214,4.316,4.2713,4.248,4.2322,0.0,0.0,0.0,0.0,0.0,0.0,0.0,3.0183,3.0505,3.1813,3.2861,3.3639,3.4032,3.5214,3.5967,0.0,0.0,0.0,0.0,0.0,0.0,0.0,0.0,3.3842,3.1976,0.0,0.0,0.0,0.0,0.0,0.0,0.0,0.0,0.0,0.0,0.0,0.0,0.0,0.0,0.0,0.0,0.0,0.0,0.0,0.0,0.0,0.0,0.0,0.0,0.0,4.2961,4.3187,4.4692,4.52,4.5158,4.4751,4.4362,4.3925,4.3112,4.2656,4.2373,4.2373,4.2302,4.2331,4.2721,0.0,0.0,0.0,4.6436,4.7381,4.7804,4.8828,0.0,4.9734,4.9762,4.9966,5.046,4.991,4.9475,4.9529,4.9493,4.9722,5.0389,4.909,4.8481,4.9186,4.8412,4.7819,4.7605,4.7474,4.7027,4.6212,4.6194,4.5797,4.4983,4.5299,4.5453,4.5453,4.4949,4.4691,4.4654,4.3864,4.3515,4.3515,4.3515,4.3515,4.3515,4.3515,4.3515,4.3515,4.3515,4.3515,4.3462,4.3214,4.2939,4.2655,0.0,0.0,0.0,0.0,0.0,0.0,0.0,3.0667,3.1005,3.1824,3.2982,3.3923,3.4526,3.5201,3.5568,0.0,0.0,0.0,0.0,0.0,0.0,0.0,0.0,0.0,0.0,0.0,0.0,0.0,0.0,0.0,0.0,0.0,0.0,0.0,0.0,0.0,0.0,0.0,0.0,0.0,0.0,0.0,0.0,0.0,0.0,0.0,0.0,0.0,0.0,0.0,4.2107,4.2127,4.3885,4.4922,4.5418,4.4938,4.4692,4.4313,4.3097,4.2764,4.2729,4.2594,4.2316,4.2194,4.2634,4.3575,0.0,4.4996,4.6344,4.7593,4.8191,4.8857,4.939,0.0,4.9668,4.9813,5.008,5.0145,5.018,0.0,5.0048,0.0,5.0829,4.9037,0.0,4.8764,4.8064,4.7844,4.8435,4.8362,4.7865,4.6856,4.6837,4.6379,4.5388,4.5388,4.5388,4.5369,4.4745,4.4452,4.4415,4.3791,4.3515,4.3515,4.3515,4.3515,4.3515,4.3515,4.3515,4.3515,4.3515,4.3515,4.3515,4.3515,4.3232,4.2883,0.0,0.0,0.0,0.0,0.0,0.0,0.0,3.1398,3.1858,3.315,3.3957,3.4432,3.4514,3.5125,3.5507,0.0,0.0,0.0,0.0,0.0,0.0,0.0,0.0,0.0,0.0,0.0,0.0,0.0,0.0,0.0,0.0,0.0,0.0,0.0,0.0,0.0,0.0,0.0,0.0,0.0,0.0,0.0,0.0,0.0,0.0,0.0,0.0,0.0,0.0,0.0,0.0,4.107,4.1469,4.209,4.2804,4.3406,0.0,0.0,4.2387,4.2353,4.2183,4.152,4.2232,4.2909,4.2302,0.0,4.5102,4.5104,4.6344,4.7593,4.8191,4.8379,4.8673,4.9482,0.0,4.9974,5.0703,5.0916,5.0989,5.1008,0.0,0.0,5.0834,4.9388,4.8721,4.9455,4.8705,4.8247,4.832,4.8304,4.7609,4.6067,4.6012,4.5259,4.3753,4.3735,4.3735,4.3735,4.3662,4.3608,4.3625,4.3533,4.3515,4.3515,4.3515,4.3515,0.0,4.3515,4.3515,4.3515,4.3515,4.3515,4.3515,4.3515,4.3462,4.3427,0.0,0.0,0.0,0.0,0.0,0.0,3.1899,3.2427,3.3037,3.3973,3.4342,3.4664,3.5061,3.5326,3.5495,3.5507,0.0,0.0,0.0,0.0,0.0,0.0,0.0,0.0,0.0,0.0,0.0,0.0,0.0,0.0,0.0,0.0,0.0,0.0,0.0,0.0,0.0,0.0,0.0,0.0,0.0,0.0,0.0,0.0,0.0,0.0,0.0,0.0,0.0,0.0,0.0,0.0,3.9263,3.9649,0.0,0.0,4.2844,4.2878,4.2422,4.2625,4.2895,4.2608,4.2573,4.2697,4.2868,0.0,4.4221,4.4613,4.5523,4.6566,4.7572,4.7428,4.7518,4.8649,4.8541,4.8734,4.9997,5.0615,5.0926,5.097,5.0654,0.0,0.0,0.0,4.849,4.88,4.8508,4.8104,4.759,4.7571,4.7058,4.5938,4.5424,4.4635,4.3515,4.3515,4.3515,4.3515,4.3515,4.3515,4.3515,4.3515,4.3515,4.3515,4.3515,4.3515,0.0,4.3515,4.3515,4.3515,4.3515,4.3515,4.3515,4.3515,4.3515,4.3515,0.0,0.0,0.0,0.0,0.0,3.1099,3.1994,3.2735,3.3521,3.4405,3.4496,3.4772,3.5419,3.5504,3.5504,3.5504,3.3719,0.0,0.0,0.0,0.0,0.0,0.0,0.0,0.0,0.0,0.0,0.0,0.0,0.0,0.0,0.0,0.0,0.0,0.0,0.0,0.0,0.0,0.0,0.0,0.0,0.0,0.0,0.0,0.0,0.0,0.0,0.0,0.0,0.0,0.0,0.0,0.0,0.0,0.0,0.0,4.2159,4.2692,4.2371,4.2844,4.3392,4.3392,4.32,4.3047,4.3352,4.3589,4.3892,4.4301,4.5,4.5833,4.691,4.671,4.6687,4.7596,4.7764,4.8268,4.9541,5.0573,5.1292,5.1542,0.0,5.0582,5.0014,4.8948,4.8306,4.8306,4.8306,4.7957,4.7131,4.6874,4.6379,4.5571,4.5002,4.4305,4.3515,4.3515,4.3515,4.3515,4.3515,4.3515,4.3515,4.3515,4.3515,4.3515,4.3515,4.3515,0.0,4.3515,4.3515,4.3515,4.3515,4.3515,4.3515,4.3515,4.3515,4.3515,0.0,0.0,0.0,0.0,0.0,0.0,3.1286,3.207,3.2976,3.4319,3.4496,3.4772,3.5419,3.5504,3.5504,3.5504,3.3719,0.0,0.0,0.0,0.0,0.0,0.0,0.0,0.0,0.0,0.0,2.3834,2.4199,0.0,0.0,0.0,0.0,0.0,0.0,0.0,0.0,0.0,0.0,0.0,0.0,0.0,0.0,0.0,0.0,0.0,0.0,0.0,0.0,0.0,0.0,0.0,0.0,0.0,0.0,0.0,4.0642,4.139,4.21,4.2844,4.3392,4.3392,4.3995,4.4378,4.3589,4.4012,4.4538,4.4422,4.5,4.5699,4.6288,4.6389,4.6389,4.643,4.7765,4.9019,4.9704,5.1125,5.2363,0.0,0.0,5.0802,5.0802,4.9279,4.8306,4.8306,4.8306,4.7957,4.7131,4.6361,4.5535,4.4745,4.4691,4.4305,4.3515,4.3515,4.3515,4.3515,4.3515,4.3515,4.3515,4.3515,4.3515,4.3515,4.3515,4.3515,0.0,4.3515,4.3515,4.3515,4.3515,4.3515,4.3515,4.3515,4.3515,4.3515,0.0,0.0,0.0,0.0,0.0,0.0,0.0,3.1006,3.176,3.2535,3.2648,3.2876,3.3445,3.4075,3.4461,3.4461,3.3925,0.0,0.0,0.0,0.0,0.0,0.0,0.0,0.0,0.0,2.393,2.2852,2.2705,2.3483,2.5126,2.4699,0.0,0.0,0.0,0.0,0.0,0.0,0.0,0.0,0.0,0.0,0.0,0.0,0.0,0.0,0.0,0.0,0.0,0.0,0.0,0.0,0.0,0.0,0.0,3.7575,3.8621,0.0,4.0586,4.1328,4.2005,4.2534,4.3217,4.3724,4.3443,4.4012,4.4586,4.4562,4.4709,4.5062,4.5656,4.5783,4.6239,4.767,4.8344,0.0,5.1058,5.1247,0.0,5.1534,5.0105,4.9095,0.0,0.0,4.8306,4.8306,4.7791,4.7131,4.6324,4.5516,4.4966,4.4727,4.4176,4.3754,4.3515,4.3515,4.3515,4.3515,4.3515,4.3515,4.3515,4.3515,4.3515,4.3515,4.3515,4.3515,4.3515,4.3515,4.3515,4.3515,4.3515,4.3515,4.3515,4.3515,4.3515,4.3515,0.0,0.0,0.0,0.0,0.0,0.0,0.0,2.8677,2.9425,3.0168,3.0621,3.1162,3.1923,3.2884,3.3736,3.4324,3.4373,0.0,0.0,0.0,0.0,0.0,0.0,0.0,0.0,2.569,2.4579,2.313,2.2706,2.3398,2.5052,2.4577,2.5892,2.8723,0.0,0.0,0.0,0.0,0.0,0.0,0.0,0.0,0.0,0.0,0.0,0.0,0.0,0.0,0.0,0.0,0.0,0.0,0.0,0.0,0.0,0.0,3.7292,3.8257,3.9349,4.0217,4.1021,4.2033,4.2856,4.3477,4.3792,4.4231,4.4615,4.4615,4.4615,4.472,4.5089,4.5346,4.5914,4.7222,4.8138,4.9257,0.0,0.0,0.0,5.0397,4.9426,0.0,0.0,4.8306,4.8306,4.8306,4.7553,4.6746,4.5938,4.5149,4.4562,4.4268,4.3754,4.3515,4.3515,4.3515,4.3515,4.3515,4.3515,4.3515,4.3515,4.3515,4.3515,4.3515,4.3515,4.3515,0.0,4.3515,4.3515,4.3515,4.3515,4.3515,4.3515,4.3515,4.3515,4.3515,0.0,0.0,0.0,0.0,0.0,0.0,0.0,2.5502,2.6292,2.7354,2.8366,2.9415,3.0555,3.1684,3.3006,3.4526,0.0,0.0,0.0,0.0,0.0,0.0,0.0,0.0,0.0,2.6313,2.5552,2.4314,2.3879,2.4325,2.5518,2.487,2.5976,2.8455,2.8618,0.0,0.0,0.0,0.0,0.0,0.0,0.0,0.0,0.0,0.0,0.0,0.0,0.0,0.0,0.0,0.0,0.0,0.0,0.0,0.0,0.0,0.0,0.0,0.0,3.9397,4.0374,4.1844,4.2819,4.3606,4.4333,4.4564,0.0,4.4615,4.4615,4.4615,4.4615,4.5142,4.5588,4.5658,4.7462,4.9079,0.0,5.0412,0.0,0.0,4.9519,0.0,4.8379,4.8306,4.8288,4.8233,4.7461,4.6654,4.5865,4.5057,4.4268,4.3533,4.3515,4.3515,4.3515,4.3515,4.3515,4.3515,4.3515,4.3515,4.3515,4.3515,4.3515,0.0,4.3515,4.3515,4.3515,4.3515,4.3515,4.3515,4.3515,4.3515,4.3515,4.3515,4.3515,4.3515,0.0,0.0,0.0,0.0,0.0,0.0,0.0,0.0,0.0,0.0,2.5838,2.6426,2.7427,2.9142,3.0558,0.0,0.0,0.0,0.0,0.0,0.0,0.0,0.0,0.0,0.0,2.6915,2.5695,2.3345,2.3238,2.3492,2.4137,2.3648,2.4725,2.7154,2.7378,2.9365,0.0,0.0,0.0,0.0,0.0,0.0,0.0,0.0,0.0,0.0,3.6088,3.5863,0.0,0.0,0.0,0.0,0.0,0.0,0.0,0.0,3.7515,3.7605,3.7956,0.0,3.9525,4.0943,4.235,4.3443,0.0,4.4147,4.4615,4.4615,4.4615,4.4615,4.4615,4.5459,4.6403,4.7068,4.8452,4.9688,5.0451,5.0179,4.958,4.8709,4.8618,4.8526,4.8324,4.8306,4.8049,4.7424,4.6654,4.5828,4.5021,4.4213,4.3699,4.3515,4.3515,4.3515,4.3515,4.3515,4.3515,4.3515,4.3515,4.3515,4.3515,4.3515,4.3515,4.3515,4.3515,4.3515,4.3515,4.3515,4.3515,4.3515,4.3515,4.3515,4.3515,4.3515,4.3515,4.3515,0.0,0.0,0.0,0.0,0.0,0.0,0.0,0.0,0.0,0.0,0.0,2.4658,2.5616,2.718,0.0,0.0,0.0,0.0,0.0,0.0,0.0,0.0,0.0,0.0,2.7946,2.7852,2.6824,2.4801,2.3802,2.3678,2.4309,2.3438,2.426,2.6564,2.798,3.0272,0.0,0.0,0.0,0.0,0.0,0.0,0.0,0.0,0.0,0.0,3.5624,3.5504,0.0,3.6783,3.716,3.7352,0.0,0.0,0.0,0.0,3.8302,3.8298,3.8264,3.9092,4.0212,4.1325,4.279,4.4045,4.4384,4.4519,4.4615,4.4615,4.4814,4.5025,4.5025,4.6014,4.7007,4.7477,4.8696,4.9757,5.0178,4.9867,4.928,4.8398,4.8306,4.8306,0.0,4.7957,4.7571,4.7131,4.5993,4.5168,4.4709,4.3938,4.3515,4.3515,4.3515,4.3515,4.3515,4.3515,4.3515,4.3515,4.3515,4.3515,4.3515,4.3515,4.3515,4.3515,4.3515,4.3515,4.3515,4.3515,4.3515,4.3515,4.3515,4.3515,4.3515,4.3515,4.3515,4.3515,0.0,0.0,0.0,0.0,0.0,0.0,0.0,0.0,0.0,0.0,0.0,0.0,0.0,0.0,0.0,0.0,0.0,0.0,0.0,0.0,0.0,0.0,0.0,3.0659,2.9041,2.8722,2.805,2.6886,2.4881,2.4328,2.5068,2.3821,2.4285,2.628,2.8923,3.1241,0.0,0.0,0.0,0.0,0.0,0.0,0.0,0.0,0.0,0.0,0.0,0.0,0.0,3.7485,3.7978,3.8234,3.9653,0.0,0.0,0.0,0.0,0.0,3.9149,4.0324,4.1645,4.2154,4.3437,4.4767,4.5382,0.0,0.0,0.0,0.0,0.0,0.0,4.6701,4.7551,4.7424,4.8518,4.9408,4.9408,4.9408,4.9133,4.8398,4.8306,0.0,4.8141,4.7498,4.7003,4.6746,4.5461,4.4636,4.4525,4.3864,4.3515,4.3515,4.3515,4.3515,4.3515,4.3515,4.3515,4.3515,4.3515,4.3515,4.3515,4.3515,4.3515,4.3515,0.0,0.0,4.3515,4.3515,4.3515,4.3515,4.3515,4.3515,4.3515,4.3515,4.3515,4.3515,0.0,0.0,0.0,0.0,0.0,0.0,0.0,0.0,0.0,0.0,0.0,0.0,0.0,0.0,0.0,0.0,0.0,0.0,0.0,0.0,0.0,0.0,3.2683,3.0791,2.9534,2.8904,2.8005,2.6737,2.5476,2.4984,2.5106,2.4444,2.4669,2.5637,2.7866,2.9618,3.1073,0.0,0.0,0.0,0.0,0.0,0.0,0.0,0.0,0.0,0.0,0.0,0.0,3.8442,3.8745,3.8881,3.9808,0.0,0.0,0.0,0.0,0.0,4.068,4.1917,4.292,4.2361,4.3425,4.4632,4.475,4.4682,0.0,0.0,0.0,0.0,0.0,4.7441,4.8201,4.7493,4.8026,4.8508,4.8508,4.8508,4.8453,4.8324,0.0,4.8031,4.7351,4.7168,4.6544,4.5168,4.4838,4.4415,4.3718,4.357,4.3515,4.3515,4.3515,4.3515,4.3515,4.3515,4.3515,4.3515,4.3515,4.3515,4.3515,4.3515,4.3515,4.3515,0.0,4.3515,4.3515,4.3515,4.3515,4.3515,4.3515,4.3515,4.3515,4.3515,4.3515,4.3515,0.0,0.0,0.0,0.0,0.0,0.0,0.0,0.0,0.0,0.0,0.0,0.0,0.0,0.0,0.0,0.0,0.0,0.0,0.0,0.0,0.0,3.5317,3.3635,3.2047,3.0609,2.9907,2.8843,2.7332,2.619,2.5311,2.4717,2.4512,2.4891,2.5855,2.7502,2.9351,3.1407,0.0,0.0,0.0,0.0,0.0,0.0,0.0,0.0,0.0,0.0,0.0,0.0,0.0,3.8908,3.9059,3.985,0.0,0.0,0.0,0.0,0.0,4.0493,4.1946,4.3245,4.2896,4.3999,4.5179,4.5179,4.5131,0.0,0.0,0.0,0.0,0.0,4.7756,4.8314,4.7951,4.8114,4.8306,4.8306,4.8306,4.8306,0.0,0.0,4.7498,4.7131,4.6305,4.5498,4.4746,4.4305,4.3883,4.3533,4.3515,4.3515,4.3515,4.3515,4.3515,4.3515,4.3515,4.3515,4.3515,4.3515,4.3515,4.3515,4.3515,4.3515,4.3515,0.0,4.3515,4.3515,4.3515,4.3515,4.3515,4.3515,4.3515,4.3515,4.3515,4.3515,4.3515,0.0,0.0,0.0,0.0,0.0,0.0,0.0,0.0,0.0,0.0,0.0,0.0,0.0,0.0,0.0,0.0,0.0,0.0,0.0,0.0,3.4509,3.5278,3.4823,3.3582,3.1589,3.0676,2.9515,2.8094,2.6635,2.5435,2.4414,2.4521,2.5023,2.5919,2.7255,2.91,3.1343,3.2895,3.5047,0.0,0.0,0.0,0.0,0.0,0.0,0.0,0.0,0.0,0.0,0.0,0.0,0.0,0.0,0.0,0.0,4.0096,4.0096,4.0172,4.0475,4.1776,4.309,4.3391,4.4535,4.562,4.5819,4.5649,4.5548,0.0,0.0,0.0,0.0,4.7977,4.8379,4.8563,4.8434,4.8306,4.8306,4.8141,4.8012,4.8012,4.7296,4.6746,4.6562,4.5406,4.4618,4.4433,4.3846,4.3515,4.3515,4.3515,4.3515,4.3515,4.3515,4.3515,4.3515,4.3515,4.3515,4.3515,4.3515,4.3515,4.3515,4.3515,4.3515,4.3515,4.3515,4.3515,4.3515,4.3515,4.3515,4.3515,4.3515,4.3515,4.3515,4.3515,4.3515,4.3515,0.0,0.0,0.0,0.0,0.0,0.0,0.0,0.0,0.0,0.0,0.0,0.0,0.0,0.0,0.0,0.0,0.0,0.0,0.0,0.0,3.5317,3.5394,3.6165,3.5139,3.2015,3.0462,2.9325,2.8734,2.653,2.5074,2.4424,2.4834,2.5114,2.5218,2.6873,2.8123,2.918,3.1786,3.4206,0.0,0.0,0.0,0.0,0.0,0.0,0.0,0.0,0.0,0.0,0.0,0.0,0.0,0.0,0.0,4.0096,4.0096,4.0096,4.0374,4.1633,4.2061,4.2454,4.364,4.4583,4.5429,4.6176,4.5758,0.0,4.6966,0.0,0.0,0.0,4.8267,4.8563,4.9372,4.882,4.8306,4.8306,4.7663,4.7186,4.7186,4.6489,4.57,4.4948,4.4764,4.4397,4.3626,4.3533,4.3515,4.3515,4.3515,4.3515,4.3515,4.3515,4.3515,4.3515,4.3515,4.3515,4.3515,4.3515,4.3515,4.3515,4.3515,4.3515,4.3515,4.3515,4.3515,4.3515,4.3515,4.3515,4.3515,4.3515,4.3515,4.3515,4.3515,4.3515,4.3515,0.0,0.0,0.0,0.0,0.0,0.0,0.0,0.0,0.0,0.0,0.0,0.0,0.0,0.0,0.0,0.0,0.0,0.0,0.0,0.0,3.362,3.412,3.4566,3.4052,3.2422,3.1539,3.0176,2.8353,2.6671,2.5868,2.5967,2.5597,2.5488,2.5536,2.6948,2.7766,2.8199,3.0714,3.2684,3.4219,0.0,0.0,0.0,0.0,0.0,0.0,0.0,0.0,0.0,0.0,4.0096,4.0096,4.0096,4.0096,4.0096,4.0096,4.0096,4.0272,4.1136,4.2352,4.3495,4.3843,4.4777,0.0,0.0,4.5726,4.6133,4.718,4.7695,0.0,0.0,0.0,4.8416,4.8728,4.8526,4.8141,4.7608,4.7278,4.6911,4.6416,4.5645,4.5039,4.4728,4.425,4.3828,4.3533,4.3515,4.3515,4.3515,4.3515,4.3515,4.3515,4.3515,4.3515,4.3515,4.3515,4.3515,4.3515,4.3515,4.3515,4.3515,4.3515,4.3515,4.3515,4.3515,4.3515,4.3515,4.3515,4.3515,4.3515,4.3515,4.3515,4.3515,4.3515,4.3515,4.3515,0.0,0.0,0.0,0.0,0.0,0.0,0.0,0.0,0.0,0.0,0.0,0.0,0.0,0.0,0.0,0.0,0.0,0.0,0.0,3.0684,3.2444,3.3003,3.3687,3.3565,3.2514,3.2277,3.1111,2.8891,2.794,2.7284,2.6896,2.6503,2.611,2.5732,2.6829,2.7322,2.7509,2.9534,3.1252,3.2735,0.0,0.0,0.0,0.0,0.0,0.0,0.0,0.0,0.0,0.0,4.0096,4.0096,0.0,0.0,0.0,0.0,4.0229,4.0473,4.1018,4.2441,4.3802,4.4076,0.0,0.0,4.5755,4.5954,4.6404,4.7477,4.8015,4.8306,4.8306,0.0,0.0,4.7921,4.7719,4.7352,4.6801,4.6489,4.614,4.559,4.4819,4.4323,4.4323,4.3809,4.3515,4.3515,4.3515,4.3515,4.3515,4.3515,4.3515,4.3515,4.3515,4.3515,4.3515,4.3515,4.3515,4.3515,4.3515,4.3515,4.3515,4.3515,4.3515,4.3515,4.3515,4.3515,4.3515,4.3515,4.3515,4.3515,4.3515,4.3515,4.3515,4.3515,4.3515,4.3515,0.0,0.0,0.0,0.0,0.0,0.0,0.0,0.0,0.0,0.0,0.0,0.0,0.0,0.0,0.0,0.0,0.0,0.0,2.6524,3.0052,3.2192,3.2178,3.399,3.4098,3.2216,3.2468,3.1954,3.062,3.0471,2.9201,2.6953,2.7369,2.6935,2.5761,2.6406,2.6783,2.6967,2.8129,2.9965,0.0,0.0,0.0,0.0,0.0,0.0,0.0,0.0,0.0,0.0,0.0,4.0096,4.0096,4.0113,0.0,0.0,4.0121,4.0497,4.1041,4.1643,4.2262,4.3025,4.4364,0.0,0.0,4.6727,4.6471,4.6379,4.7976,4.8306,4.8306,4.8306,4.7626,0.0,4.7094,4.6434,4.5902,4.5883,4.5204,4.4691,4.4691,4.3993,4.3515,4.3515,4.3515,4.3515,4.3515,4.3515,4.3515,4.3515,4.3515,4.3515,4.3515,4.3515,4.3515,4.3515,4.3515,4.3515,4.3515,4.3515,4.3515,4.3515,4.3515,4.3515,4.3515,4.3515,4.3515,4.3515,4.3515,4.3515,4.3515,4.3515,4.3515,4.3515,4.3515,4.3515,4.3515,0.0,0.0,0.0,0.0,0.0,0.0,0.0,0.0,0.0,0.0,0.0,0.0,0.0,0.0,0.0,0.0,0.0,0.0,2.6524,2.9019,3.1107,3.2414,3.3012,3.3048,3.2486,3.1988,3.1546,3.116,3.0265,2.9871,2.9906,2.8337,2.7634,2.771,2.7031,2.7006,0.0,0.0,0.0,0.0,0.0,0.0,0.0,0.0,0.0,0.0,0.0,0.0,0.0,0.0,0.0,0.0,4.0528,0.0,0.0,4.1173,4.1402,4.1664,4.2282,4.2972,4.3587,4.3814,4.4709,0.0,0.0,4.6104,0.0,0.0,4.7846,4.7461,4.7461,4.6801,0.0,4.6269,4.6067,4.57,4.5149,4.4856,4.4488,4.392,4.3662,4.3515,4.3515,4.3515,4.3515,4.3515,4.3515,4.3515,4.3515,4.3515,4.3515,4.3515,4.3515,4.3515,4.3515,4.3515,4.3515,4.3515,4.3515,4.3515,4.3515,4.3515,4.3515,4.3515,4.3515,4.3515,4.3515,4.3515,4.3515,4.3515,4.3515,4.3515,4.3515,4.3515,4.3515,4.3515,0.0,0.0,0.0,0.0,0.0,0.0,0.0,0.0,0.0,0.0,0.0,0.0,0.0,0.0,0.0,0.0,0.0,0.0,0.0,0.0,3.0279,3.1439,3.2213,3.2895,3.3536,3.2311,3.188,3.2369,3.1207,3.0736,3.087,2.9387,2.8531,2.8232,2.7966,2.769,2.7496,0.0,0.0,0.0,2.9987,3.0803,3.1332,0.0,0.0,0.0,0.0,0.0,0.0,0.0,0.0,0.0,4.1064,0.0,4.1335,4.1686,4.1958,4.2241,4.2596,4.3208,4.387,4.4326,4.5168,4.5865,4.5682,0.0,0.0,0.0,4.6966,4.6617,4.6617,4.5975,0.0,4.5424,4.5149,4.4782,4.4287,4.4213,4.4048,4.357,4.3515,4.3515,4.3515,4.3515,4.3515,4.3515,4.3515,4.3515,4.3515,4.3515,4.3515,4.3515,4.3515,4.3515,4.3515,4.3515,4.3515,4.3515,4.3515,4.3515,4.3515,4.3515,4.3515,4.3515,4.3515,4.3515,4.3515,4.3515,4.3515,4.3515,4.3515,4.3515,4.3515,4.3515,4.3515,4.3515,0.0,0.0,0.0,0.0,0.0,0.0,0.0,0.0,0.0,0.0,0.0,0.0,0.0,0.0,0.0,0.0,0.0,0.0,0.0,0.0,2.974,2.9934,3.1713,3.3458,3.5121,3.3176,3.2737,3.3872,3.2692,3.1593,3.0568,0.0,2.9467,2.8023,0.0,2.8698,0.0,0.0,0.0,2.8845,2.9279,3.035,3.1742,3.2661,0.0,0.0,0.0,0.0,0.0,0.0,0.0,0.0,4.1599,4.1853,4.1895,4.1937,4.2324,4.2769,4.2769,4.3178,4.3956,4.5424,4.5792,4.5975,4.6709,4.6269,4.5718,4.5865,0.0,4.5792,4.5792,4.5131,4.4599,4.4599,4.3975,4.3515,4.3515,4.3515,4.3515,4.3515,4.3515,4.3515,4.3515,4.3515,4.3515,4.3515,4.3515,4.3515,4.3515,4.3515,4.3515,4.3515,4.3515,4.3515,4.3515,4.3515,4.3515,4.3515,4.3515,4.3515,4.3515,4.3515,4.3515,4.3515,4.3515,4.3515,4.3515,4.3515,4.3515,4.3515,4.3515,4.3515,4.3515,4.3515,4.3515,4.3515,0.0,0.0,0.0,0.0,0.0,0.0,0.0,0.0,0.0,0.0,0.0,0.0,0.0,0.0,0.0,0.0,0.0,0.0,0.0,0.0,2.9201,3.082,3.2481,3.4335,3.6381,3.4453,3.378,3.4507,3.2542,3.1651,0.0,0.0,0.0,2.9968,0.0,2.9071,0.0,0.0,0.0,2.8262,2.8381,2.8627,2.9153,3.0924,3.2164,0.0,0.0,0.0,0.0,0.0,0.0,0.0,4.1599,4.2121,4.2578,4.3014,4.3214,4.3339,4.3339,4.3868,4.4525,4.4874,4.4966,4.5002,4.5168,4.4599,4.436,4.5645,4.5406,4.4966,4.4966,4.4305,4.3754,4.3754,4.3608,4.3515,4.3515,4.3515,4.3515,4.3515,4.3515,4.3515,4.3515,4.3515,4.3515,4.3515,4.3515,4.3515,4.3515,4.3515,4.3515,4.3515,4.3515,4.3515,4.3515,4.3515,4.3515,4.3515,4.3515,4.3515,4.3515,4.3515,4.3515,4.3515,4.3515,4.3515,4.3515,4.3515,4.3515,4.3515,4.3515,4.3515,4.3515,4.3515,4.3515,4.3515,0.0,0.0,0.0,0.0,0.0,0.0,0.0,0.0,0.0,0.0,0.0,0.0,0.0,0.0,0.0,0.0,0.0,0.0,0.0,0.0,2.902,3.1106,3.2427,3.4012,3.5892,3.4869,3.4647,3.5267,3.2856,0.0,0.0,0.0,0.0,3.058,0.0,3.0084,0.0,0.0,2.8897,2.8897,2.8897,2.8897,2.9015,3.0139,3.1066,3.1897,3.2926,0.0,0.0,0.0,0.0,0.0,0.0,0.0,4.2807,4.3339,4.3515,4.3515,4.3515,4.3809,4.4213,4.4617,4.4691,4.4691,4.4691,4.4085,4.3753,4.458,4.4415,4.4121,4.4121,4.3773,4.3515,4.3515,4.3515,4.3515,4.3515,4.3515,4.3515,4.3515,4.3515,4.3515,4.3515,4.3515,4.3515,4.3515,4.3515,4.3515,4.3515,4.3515,4.3515,4.3515,4.3515,4.3515,4.3515,4.3515,4.3515,4.3515,4.3515,4.3515,4.3515,4.3515,4.3515,4.3515,4.3515,4.3515,4.3515,4.3515,4.3515,4.3515,4.3515,4.3515,4.3515,4.3515,4.3515,4.3515,0.0,0.0,0.0,0.0,0.0,0.0,0.0,0.0,0.0,0.0,0.0,0.0,0.0,0.0,0.0,0.0,0.0,0.0,0.0,2.7695,2.9277,3.1288,3.2255,3.355,3.5156,3.5129,3.5353,3.5921,3.3561,0.0,0.0,0.0,0.0,3.0633,0.0,0.0,0.0,0.0,2.9792,2.9792,2.9792,2.9792,2.9792,2.9792,3.0279,3.097,3.1143,3.2225,3.3768,3.5207,0.0,0.0,0.0,0.0,4.262,4.3196,4.3427,4.3515,4.3515,4.3606,4.3864,4.4544,4.4691,0.0,4.4525,4.3975,4.3515,4.3515,4.3515,4.3515,4.3515,4.3515,4.3515,4.3515,4.3515,4.3515,4.3515,4.3515,4.3515,4.3515,4.3515,4.3515,4.3515,4.3515,4.3515,4.3515,4.3515,4.3515,4.3515,4.3515,4.3515,4.3515,4.3515,4.3515,4.3515,4.3515,4.3515,4.3515,4.3515,4.3515,4.3515,4.3515,4.3515,4.3515,4.3515,4.3515,4.3515,4.3515,4.3515,4.3515,4.3515,4.3515,4.3515,4.3515,4.3515,4.3515,0.0,0.0,0.0,0.0,0.0,0.0,0.0,0.0,0.0,0.0,0.0,2.1248,2.1069,1.9047,0.0,0.0,0.0,0.0,2.6213,0.0,0.0,3.1983,3.2954,3.4217,3.5841,3.5813,3.5798,3.5921,0.0,0.0,0.0,0.0,0.0,3.062,0.0,0.0,0.0,0.0,0.0,2.9792,2.9792,2.9792,2.9792,2.9792,2.9869,3.0113,3.0895,3.1744,3.2661,3.3753,3.5552,0.0,0.0,0.0,4.181,4.2582,4.3142,4.3515,4.3515,4.4011,4.458,4.4654,4.4691,4.4525,0.0,0.0,4.3515,0.0,4.3515,4.3515,4.3515,4.3515,4.3515,4.3515,4.3515,4.3515,4.3515,4.3515,4.3515,4.3515,4.3515,4.3515,4.3515,4.3515,4.3515,4.3515,4.3515,4.3515,4.3515,4.3515,4.3515,4.3515,4.3515,4.3515,4.3515,4.3515,4.3515,4.3515,4.3515,4.3515,4.3515,4.3515,4.3515,4.3515,4.3515,4.3515,4.3515,4.3515,4.3515,4.3515,4.3515,4.3515,4.3515,4.3515,4.3515,4.3515,0.0,0.0,0.0,0.0,0.0,0.0,0.0,0.0,0.0,0.0,0.0,2.2031,2.1382,2.035,0.0,0.0,0.0,0.0,2.6254,2.8593,0.0,0.0,3.2256,3.337,3.4079,3.5134,3.5673,3.5673,0.0,0.0,0.0,3.2829,3.1875,0.0,0.0,0.0,0.0,0.0,0.0,2.9792,2.9792,2.9792,2.9792,2.9792,2.9792,2.9856,3.0279,3.0619,3.1064,3.2024,3.3657,3.5583,3.7201,0.0,0.0,0.0,4.2864,4.3124,4.3427,4.3754,4.403,4.403,4.403,4.3989,4.3816,4.3772,4.3852,4.4065,4.3927,4.3726,4.3531,4.3515,4.3515,4.3515,4.3515,4.3515,4.3515,4.3515,4.3515,4.3515,4.3515,4.3515,4.3515,4.3515,4.3515,4.3515,4.3515,4.3515,4.3515,4.3515,4.3515,4.3515,4.3515,4.3515,4.3515,4.3515,4.3515,4.3515,4.3515,4.3515,4.3515,4.3515,4.3515,4.3515,4.3515,4.3515,4.3515,4.3515,4.3515,4.3515,4.3515,4.3515,4.3515,4.3515,4.3515,4.3531,0.0,0.0,0.0,0.0,0.0,0.0,0.0,0.0,0.0,0.0,0.0,0.0,2.1845,0.0,0.0,0.0,0.0,0.0,2.6265,0.0,0.0,0.0,0.0,3.2593,3.2593,3.4524,3.5504,0.0,0.0,0.0,3.6078,3.4499,3.3753,0.0,3.2643,3.1838,0.0,0.0,0.0,0.0,0.0,2.9792,2.9792,2.9792,2.9792,2.9792,2.9792,2.9792,2.9895,3.062,3.187,3.3511,3.5646,3.7637,0.0,0.0,0.0,4.2788,4.3196,4.3392,4.3515,4.3515,4.3546,4.3693,0.0,0.0,4.4233,4.454,4.4346,4.4076,4.3839,4.3631,4.3515,4.3515,4.3515,4.3515,4.3515,4.3515,4.3515,4.3515,4.3515,4.3515,4.3515,4.3515,4.3515,4.3515,4.3515,4.3515,4.3515,4.3515,4.3515,4.3515,4.3515,4.3515,4.3515,4.3515,4.3515,4.3515,4.3515,4.3515,4.3515,4.3515,4.3515,4.3515,4.3515,4.3515,4.3515,4.3515,4.3515,4.3515,4.3515,4.3515,4.3496,4.3597,4.3631,4.3679,0.0,0.0,0.0,0.0,0.0,0.0,0.0,0.0,0.0,0.0,0.0,0.0,0.0,0.0,0.0,0.0,0.0,0.0,0.0,0.0,0.0,0.0,0.0,0.0,0.0,3.4524,0.0,0.0,0.0,0.0,3.665,3.6539,3.6106,3.5273,3.3131,3.1637,3.0658,0.0,0.0,0.0,0.0,2.9792,2.9792,2.9792,2.9792,2.9792,2.9792,2.9792,2.9792,2.9869,3.052,3.1642,3.3437,3.5536,3.7672,0.0,0.0,0.0,4.2713,4.3105,4.3515,4.3515,4.3742,4.3986,4.4001,4.4308,4.4567,4.4612,4.458,4.4553,4.454,4.3977,4.3515,4.3515,4.3515,4.3515,4.3515,4.3515,4.3515,4.3515,4.3515,4.3515,4.3515,4.3515,4.3515,4.3515,4.3515,4.3515,4.3515,4.3515,4.3515,4.3515,4.3515,4.3515,4.3515,4.3515,4.3515,4.3515,4.3515,4.3515,4.3515,4.3515,4.3515,4.3515,4.3515,4.3515,4.3515,4.3515,4.3515,4.3515,4.3515,4.3515,4.3548,4.3849,4.3971,4.4031,0.0,0.0,0.0,0.0,0.0,0.0,0.0,0.0,0.0,0.0,0.0,0.0,0.0,2.2721,2.2633,2.3047,2.3381,0.0,0.0,0.0,0.0,0.0,0.0,0.0,0.0,0.0,0.0,0.0,0.0,3.5859,3.6551,3.5875,3.5085,3.4256,3.3541,3.2446,3.1072,3.0382,0.0,0.0,0.0,2.9792,2.9792,2.9792,2.9792,2.9792,2.9792,2.9792,2.9792,2.9792,3.0419,3.1443,3.273,3.4127,3.5692,3.7819,3.9852,4.1386,4.1212,4.1651,4.2232,4.264,4.2979,4.3419,4.4205,4.467,4.4977,4.5211,4.5074,4.4919,4.4919,4.454,4.4125,4.3849,4.3836,4.3758,4.3531,4.3515,4.3515,4.3515,4.3515,4.3515,4.3515,4.3515,4.3515,4.3515,4.3515,4.3515,4.3515,4.3515,4.3515,4.3515,4.3515,4.3515,4.3515,4.3515,4.3515,4.3515,4.3515,4.3515,4.3515,4.3515,4.3515,4.3515,4.3515,4.3515,4.3515,4.3515,4.3515,4.3515,4.3515,4.3515,4.3548,4.3881,4.4001,4.4087,0.0,0.0,0.0,0.0,0.0,0.0,0.0,0.0,0.0,2.3091,0.0,0.0,0.0,0.0,2.3091,2.3091,2.38,2.4882,2.64,0.0,0.0,0.0,0.0,0.0,0.0,0.0,0.0,0.0,0.0,0.0,0.0,3.5791,3.5051,3.4363,3.39,3.2738,0.0,0.0,0.0,3.0055,0.0,0.0,2.9792,2.9792,2.9792,2.9792,2.9792,2.9792,2.9792,2.9792,3.0216,3.0865,3.1744,3.2909,3.4394,3.6726,3.8666,4.0021,3.9811,0.0,0.0,4.1939,4.2514,4.3258,4.4352,4.4943,4.5332,4.5559,4.5419,4.5282,4.5282,4.5096,4.4762,4.4276,4.4106,4.3909,4.3693,4.3563,4.3515,4.3515,4.3515,4.3515,4.3515,4.3515,4.3515,4.3515,4.3515,4.3515,4.3515,4.3515,4.3515,4.3515,4.3515,4.3515,4.3515,4.3515,4.3515,4.3515,4.3515,4.3515,4.3515,4.3515,4.3515,4.3515,4.3515,4.3515,4.3515,4.3515,4.3515,4.3515,4.3515,4.3515,4.3565,4.4016,4.419,4.4304,0.0,0.0,0.0,0.0,0.0,0.0,0.0,0.0,2.3178,2.3135,0.0,0.0,0.0,0.0,0.0,2.3091,2.3091,2.4059,2.6348,2.6524,0.0,0.0,0.0,0.0,0.0,0.0,0.0,0.0,0.0,0.0,0.0,0.0,3.6237,3.5798,3.4265,3.2503,3.0635,0.0,3.0595,3.0545,0.0,2.9792,2.9792,2.9792,2.9792,2.9792,2.9792,2.9792,2.9792,2.9792,2.9792,2.9871,3.0278,3.1777,3.3785,3.6058,3.7669,0.0,0.0,0.0,0.0,0.0,0.0,4.3429,4.4347,4.508,4.5566,4.5594,4.5594,4.5594,4.5594,4.5594,4.54,4.4751,4.429,4.4013,4.3998,4.3726,4.3496,4.3515,4.3515,4.3515,4.3515,4.3515,4.3515,4.3515,4.3515,4.3515,4.3515,4.3515,4.3515,4.3515,4.3515,4.3515,4.3515,4.3515,4.3515,4.3515,4.3515,4.3515,4.3515,4.3515,4.3515,4.3515,4.3515,4.3515,4.3515,4.3515,4.3515,4.3515,4.3515,4.3515,4.3599,4.4308,4.458,4.4695,0.0,0.0,0.0,0.0,0.0,2.7854,2.7502,2.6377,2.5263,0.0,0.0,0.0,2.3178,2.3091,2.3091,2.3091,2.3091,2.4059,2.6348,2.6524,2.7476,2.9714,3.1586,3.2593,3.2593,3.4524,3.5504,3.5504,3.5504,3.5594,3.5774,3.5774,3.5322,0.0,3.4082,3.282,3.1005,3.0303,0.0,3.0005,2.9854,2.9792,0.0,2.9792,2.9792,2.9792,2.9792,2.9792,2.9792,2.9792,2.9792,2.9872,3.041,3.1436,3.2746,3.4096,3.5849,0.0,3.7747,0.0,0.0,0.0,0.0,0.0,0.0,4.4022,4.4595,4.5425,4.5594,4.5594,4.5594,4.5594,4.5531,4.5352,4.5033,4.4612,4.4073,4.3909,4.3772,4.3531,4.3515,4.3515,4.3515,4.3515,4.3515,0.0,4.3515,4.3515,4.3515,4.3515,4.3515,4.3515,4.3515,4.3515,4.3515,4.3515,4.3515,4.3515,4.3515,4.3515,4.3515,4.3515,4.3515,4.3515,4.3515,4.3515,4.3515,4.3515,4.3515,4.3515,4.3515,4.3515,4.3546,4.4001,4.4346,4.4657,0.0,0.0,0.0,0.0,3.0477,2.9461,2.9069,2.7796,2.6607,0.0,0.0,0.0,2.3222,2.3257,2.3296,2.311,2.3091,2.3854,2.5672,2.6224,2.7261,2.9028,3.0981,3.2213,3.2593,3.4075,3.51,3.5504,3.5504,3.5504,3.5504,3.5504,3.518,3.461,3.4177,3.338,3.2285,3.0945,0.0,0.0,2.9792,2.9792,2.9792,2.9792,2.9792,2.9792,2.9792,2.9792,2.9792,2.9792,2.9628,2.9479,2.9954,0.0,0.0,3.2773,3.4417,0.0,0.0,0.0,0.0,0.0,0.0,0.0,4.2383,4.3371,4.4169,4.5179,4.5504,4.5594,4.5594,4.5594,4.5594,4.5594,4.5429,4.5118,4.4529,4.4186,4.3924,4.3742,4.358,4.3515,4.3515,4.3515,4.3515,4.3515,4.3515,4.3515,4.3515,4.3515,4.3515,4.3515,4.3515,4.3515,4.3515,4.3515,4.3515,4.3515,4.3515,4.3515,4.3515,4.3515,4.3515,4.3478,4.3149,4.3185,4.3478,4.313,4.3185,4.3515,4.3515,4.3515,4.3548,4.3881,4.4146,4.4414,0.0,0.0,3.3006,3.3111,3.1798,3.0776,3.0776,2.9009,2.7656,0.0,2.6181,2.4741,2.3569,2.3797,2.3757,2.3242,2.312,2.3594,2.4745,2.5891,2.6964,2.8056,3.0088,3.1646,3.2558,3.3518,3.4495,3.5504,3.5504,3.5504,3.5504,3.5504,3.5504,3.5472,3.4576,3.4061,3.3739,3.2069,3.0771,2.9792,2.9792,2.9792,2.9792,2.9792,2.9792,2.9792,2.9792,2.9792,2.9792,2.9792,2.9453,2.9063,2.9399,3.0123,3.109,3.2089,3.3541,0.0,0.0,0.0,0.0,0.0,0.0,0.0,4.1537,4.2687,4.377,4.4532,4.4976,4.5235,4.5322,4.5387,4.5444,4.5531,4.5577,4.5485,4.5159,4.4548,4.4125,4.4128,4.3872,4.3676,4.3643,4.3626,4.3606,4.3515,4.3515,4.3515,4.3515,4.3515,4.3515,4.3515,4.3515,4.3515,4.3515,4.3515,4.3515,4.3515,4.3515,4.3515,4.3515,4.3423,4.3369,4.3331,4.2525,4.2561,4.3167,4.2561,4.2763,4.3515,4.3515,4.3515,4.3531,4.3833,4.3971,4.4087,0.0,3.2227,3.2528,3.3006,3.2421,3.1908,3.1908,3.0783,2.9793,2.9391,2.8231,2.6998,2.5821,2.5438,2.4812,2.3761,2.334,2.3594,2.4745,2.5891,2.6964,2.8056,3.0088,3.1646,3.2558,3.3518,3.4495,3.5504,3.5504,3.5504,3.5504,3.5504,3.5504,3.5504,3.5279,3.4341,3.2855,3.25,0.0,2.9792,2.9792,2.9792,2.9792,2.9792,2.9792,2.9792,2.9792,2.9792,2.9792,2.9792,2.9716,2.9669,2.9962,3.0694,3.165,3.2643,3.4106,3.5597,3.6486,3.6803,0.0,0.0,3.794,0.0,3.9319,4.0503,4.1549,4.2018,4.2473,4.2978,4.363,4.4005,4.4448,4.5086,4.5419,4.5485,4.5159,4.4977,4.4909,4.4953,4.4907,4.4751,4.4487,4.447,4.4195,4.3551,4.3515,4.3515,4.3515,4.3515,4.3515,4.3515,4.3515,4.3515,4.3515,4.3515,4.3515,4.3515,4.3515,4.3515,4.3478,4.2818,4.2525,4.2488,4.168,4.1407,4.1625,4.2103,4.2763,4.3515,4.3515,4.3515,4.3515,4.3563,4.3756,4.4013,0.0,3.2252,3.2729,3.3074,3.283,3.2641,3.2641,3.1938,3.1294,3.1031,2.9972,2.8733,2.7349,2.6922,2.6204,2.4819,2.4226,2.3963,2.3963,2.5557,2.6719,2.729,2.9356,3.1156,3.2558,3.3066,3.4007,3.5504,3.5504,3.5504,3.5504,3.5504,3.5504,3.5504,3.5504,3.4953,3.3973,0.0,3.2083,3.1095,3.0177,0.0,2.9792,2.9792,2.9792,2.9792,2.9792,2.9792,2.9792,2.9792,2.9792,0.0,2.9602,3.0411,3.1534,3.2241,3.3343,3.4678,3.6219,3.6403,0.0,3.6953,3.7274,0.0,0.0,3.9024,3.9977,4.0582,4.1048,4.1489,4.1878,4.2669,4.3378,4.3781,4.469,4.5302,4.5118,4.5096,4.527,4.5695,4.5604,4.538,4.5027,4.4996,4.458,4.3587,4.3515,4.3515,4.3515,4.3515,4.3515,4.3515,4.3515,4.3515,4.3515,4.3094,4.2892,4.2892,4.2488,4.2304,4.2286,4.1901,4.1699,4.1662,4.0855,4.0728,4.1095,4.1093,4.157,4.2378,4.3185,4.324,4.2947,4.3349,4.3614,4.3804,0.0,3.2202,3.2817,3.3074,3.3124,3.3124,3.3124,3.2591,3.2215,3.2215,3.1461,3.0351,2.8877,2.8523,2.7819,2.6345,2.5754,2.4975,2.3985,2.5813,2.6903,2.6801,2.8752,3.0671,3.2558,3.2593,3.3547,3.5504,3.5504,3.5504,3.5504,3.5504,3.5504,3.5504,0.0,0.0,0.0,0.0,0.0,3.2213,0.0,2.9972,2.9792,2.9792,2.9792,2.9792,2.9792,2.9792,2.9792,2.9792,2.9792,2.9716,2.9239,3.0058,0.0,0.0,3.2303,3.3446,3.5527,3.5615,0.0,0.0,3.6568,3.6831,0.0,0.0,0.0,3.8506,3.9142,3.9658,3.9695,4.0794,4.1807,4.2257,0.0,0.0,0.0,4.4935,0.0,4.6202,4.6068,4.576,4.5428,4.5189,4.4621,4.3586,4.3515,4.3515,4.3515,4.3515,4.3515,4.3515,4.3515,4.3515,4.3515,4.269,4.2304,4.2286,4.148,4.1095,4.1095,4.093,4.0873,4.082,4.001,4.0047,4.06,4.0102,4.0194,4.0802,4.2415,4.2745,4.2378,4.302,4.3369,4.3599,3.1926,3.1825,3.1901,3.2905,3.3124,3.3124,3.3124,3.2591,3.2215,3.2215,3.2569,3.2315,3.1,3.0509,2.9779,0.0,2.8019,2.7463,2.6858,2.7949,2.8409,2.7947,2.9118,3.0671,3.2558,3.2593,3.3547,3.5504,3.5504,3.5504,3.5504,3.5504,3.5504,3.5504,3.5504,3.4986,0.0,0.0,3.289,0.0,3.1143,3.0558,0.0,2.9792,2.9792,2.9792,2.9792,2.9792,2.9792,0.0,2.9792,2.9779,0.0,3.0405,3.1204,3.1235,0.0,0.0,0.0,0.0,0.0,0.0,3.4896,3.475,3.3799,0.0,3.5043,3.3727,0.0,3.6256,0.0,0.0,0.0,0.0,0.0,0.0,4.3677,4.4315,4.5079,4.6165,4.626,4.6118,4.5771,4.477,4.3976,4.3513,4.3515,4.3515,4.3515,4.3515,4.3515,4.3515,4.3515,4.3515,4.3515,4.269,4.2304,4.2286,4.148,4.1095,4.1077,4.0359,4.0029,3.9992,3.9184,3.8891,3.9019,3.9643,3.9533,3.9129,4.0728,4.1754,4.2304,4.2396,4.2892,4.3496,3.1135,3.1599,0.0,3.2064,3.2641,3.2968,3.2629,3.2654,3.2717,3.2717,3.293,3.3008,3.2813,3.2031,3.1198,0.0,2.9537,2.8722,2.782,2.8496,0.0,2.9094,2.9542,3.0573,3.2216,3.2499,3.329,3.461,3.5213,3.5504,3.5504,0.0,3.5504,3.5504,3.5504,3.5279,3.4839,3.4245,3.3553,0.0,0.0,3.097,0.0,2.9998,2.9792,2.9792,2.9792,2.9792,2.9792,0.0,2.9792,0.0,0.0,0.0,0.0,3.1044,0.0,0.0,0.0,0.0,0.0,0.0,0.0,0.0,3.1997,0.0,3.2504,0.0,0.0,0.0,0.0,0.0,0.0,0.0,4.0105,0.0,0.0,0.0,4.4638,4.6127,0.0,0.0,4.5833,4.472,4.3865,4.3531,4.3515,4.3515,4.3515,4.3515,4.3515,4.3515,4.3515,4.3515,4.3515,4.2249,4.159,4.1589,4.0306,3.9701,3.9698,3.9368,3.9203,3.9184,3.8854,3.8707,3.8726,3.9056,3.9001,3.8781,3.9426,4.0471,4.1645,4.2139,4.293,4.3788,3.0306,0.0,0.0,3.1436,3.2202,3.2754,3.2491,3.2805,3.3124,3.3124,3.3124,3.3232,3.3633,3.2943,3.2306,0.0,3.1174,3.0271,2.9281,2.9463,2.977,3.0223,2.9948,3.0509,3.1948,3.2404,3.3066,3.3993,3.5019,3.5504,3.5504,0.0,3.5504,3.5504,3.5504,3.5504,3.5457,0.0,3.4245,3.3876,3.2522,3.1815,3.1462,3.0254,2.9792,2.9792,2.9792,2.9792,2.9767,2.9616,2.9666,0.0,2.9603,2.9666,2.9934,0.0,0.0,0.0,3.192,0.0,0.0,0.0,0.0,0.0,0.0,0.0,0.0,0.0,0.0,0.0,0.0,0.0,0.0,0.0,0.0,4.0117,0.0,4.2002,0.0,0.0,0.0,0.0,0.0,4.4512,4.3865,4.3531,4.3515,4.3515,4.3515,4.3515,4.3515,4.3515,4.3515,4.3404,4.3167,4.1791,4.0985,4.0747,3.9368,3.8707,3.8707,3.8707,3.8707,3.8707,3.8707,3.8707,3.8707,3.8773,3.8818,3.8833,3.8917,3.9797,4.1117,4.1836,4.2707,4.3584,2.9817,3.0281,0.0,0.0,3.1863,3.2416,3.2968,3.3111,3.3124,3.3124,3.3124,3.3124,3.3106,3.3111,3.3056,3.3068,3.3,3.2737,3.2089,3.158,3.1333,3.1345,3.0357,3.0509,3.1948,3.2404,3.3066,3.3993,3.5019,3.5504,0.0,0.0,3.5504,3.5504,3.5504,3.5504,3.5504,3.5472,3.4872,3.3993,3.391,3.338,3.2357,0.0,2.9792,2.9792,2.9792,0.0,0.0,2.9151,2.9327,0.0,0.0,0.0,0.0,0.0,0.0,0.0,0.0,0.0,0.0,3.1246,0.0,0.0,0.0,0.0,2.9849,0.0,0.0,0.0,0.0,0.0,0.0,0.0,0.0,0.0,0.0,0.0,0.0,0.0,0.0,0.0,0.0,4.4016,4.3865,0.0,4.3515,4.3515,4.3515,4.3515,4.3515,4.3515,4.3515,4.313,4.2359,4.1499,4.0726,3.9918,3.9093,3.8707,3.8707,3.8707,3.8707,3.8707,3.8707,3.8707,3.8719,3.8971,3.9085,3.9125,3.9438,4.008,4.0885,4.1422,4.1934,4.2516,0.0,0.0,0.0,0.0,0.0,3.2403,3.2993,3.3124,3.3124,3.3124,3.3124,3.3262,3.3583,3.3294,3.3219,3.3583,3.3282,3.2993,3.2805,3.2252,3.2102,3.2533,3.1436,3.1082,3.1594,3.263,3.3101,3.3066,3.4691,3.5504,0.0,0.0,0.0,0.0,3.5504,3.5504,0.0,0.0,0.0,0.0,0.0,3.3449,3.2522,0.0,3.1659,3.1659,3.1659,3.1659,0.0,3.1418,3.1059,3.0629,3.0071,2.9576,2.9151,2.8787,2.8536,2.8484,0.0,0.0,2.8228,2.9067,0.0,0.0,0.0,0.0,0.0,0.0,0.0,0.0,0.0,0.0,0.0,0.0,0.0,0.0,0.0,0.0,0.0,0.0,0.0,0.0,0.0,0.0,4.3865,4.3531,4.3515,0.0,4.3515,4.3515,4.3515,4.3515,4.3515,4.3112,4.2304,4.1515,4.0708,3.9882,3.9074,3.8707,3.8707,3.8707,3.8707,3.8707,3.8707,3.8707,3.8707,3.8803,3.8933,3.9125,3.9212,3.9558,4.0085,4.081,4.2014,4.3429,3.0658,0.0,0.0,0.0,3.1499,3.2403,3.2993,3.3124,3.3124,3.3124,3.3124,3.3206,3.3571,3.3294,3.3262,3.3583,3.3282,3.3124,3.3124,3.2541,3.2466,3.3056,3.2001,3.1486,3.1675,3.2472,3.2909,3.2889,3.4293,3.5133,0.0,0.0,0.0,0.0,0.0,3.5504,3.5504,3.5504,3.5504,0.0,0.0,3.4177,0.0,0.0,3.322,3.2593,0.0,3.2593,3.2566,3.238,3.19,3.1194,3.0347,2.9613,2.8942,2.8283,2.7959,2.7858,2.8059,2.7708,0.0,2.7971,2.757,0.0,2.7494,0.0,2.7871,0.0,0.0,0.0,0.0,0.0,0.0,0.0,0.0,0.0,0.0,3.9365,0.0,0.0,0.0,0.0,0.0,4.3836,4.3742,4.3513,4.3515,0.0,0.0,4.3515,4.3515,4.3515,4.3515,4.2983,4.1882,4.1352,4.0561,3.946,3.8946,3.8707,3.8707,3.8707,3.8707,3.8707,3.8707,3.8707,3.8707,3.8803,3.8999,3.9289,3.9401,3.9637,4.0019,4.0707,4.218,4.3901,3.0796,3.1097,3.1314,3.0901,3.1615,3.2441,3.2993,3.3124,3.3124,3.3124,3.3124,3.3124,3.3124,3.3124,3.3124,3.3124,3.3124,3.3124,3.3124,3.2554,3.2503,3.3056,3.2051,3.17,3.2202,3.2096,3.2506,3.3395,0.0,0.0,0.0,0.0,0.0,0.0,3.5504,0.0,3.5504,3.5504,3.5504,3.5504,3.5504,3.5504,3.5504,3.5504,3.4341,3.2749,3.2749,3.2749,3.2652,3.2111,3.1799,3.1412,3.0038,2.9517,2.9236,2.8335,2.7717,2.7427,2.7883,2.7645,2.7369,2.7921,2.8047,0.0,0.0,0.0,2.8875,0.0,0.0,0.0,0.0,0.0,0.0,0.0,0.0,0.0,0.0,0.0,4.0033,0.0,0.0,0.0,0.0,4.3479,4.3515,4.3515,4.3515,0.0,0.0,4.3515,4.3515,4.3515,4.3515,4.2727,4.1113,4.1095,4.0288,3.8707,3.8707,3.8707,3.8707,3.8707,3.8707,3.8707,3.8707,3.8707,3.8719,3.899,3.9282,3.9611,3.9922,4.0232,4.0553,4.1131,4.2371,4.3844,3.1825,3.1913,3.2326,3.3448,3.3232,3.2905,3.3099,3.3124,3.3124,3.3124,3.3124,3.3124,3.3124,3.3124,3.3124,3.3124,3.3124,3.3124,3.3124,3.293,3.2918,3.3111,3.2847,3.2503,3.2227,3.2445,3.2883,3.3395,0.0,0.0,3.5504,0.0,0.0,0.0,0.0,3.5504,3.5504,3.5504,3.5504,3.5504,3.5504,3.5504,3.5504,0.0,3.518,3.4739,3.4739,3.4739,3.467,3.4041,3.3303,3.2473,3.1174,3.0271,2.9456,2.8168,2.7722,2.7509,2.7037,2.6813,2.6839,2.7356,2.7216,2.7027,0.0,0.0,0.0,0.0,0.0,0.0,0.0,0.0,0.0,0.0,0.0,0.0,0.0,0.0,0.0,4.0745,0.0,0.0,0.0,4.3268,4.3515,4.3515,4.3515,0.0,0.0,0.0,4.3515,4.3515,4.3515,4.2727,4.1113,4.1095,4.0288,3.8707,3.8707,3.8707,3.8707,3.8707,3.8707,3.8707,3.8707,3.8707,3.8707,3.8777,3.8961,3.9238,3.9314,3.9701,4.0328,4.1306,4.2338,4.3385,3.3264,3.3975,3.4681,3.5265,3.535,3.4849,3.3316,3.3124,3.3023,3.2729,3.2918,3.298,3.2729,3.2918,3.3124,3.3124,3.3124,3.3124,3.3124,3.3124,3.3124,3.3124,3.3124,3.2918,3.2604,3.258,0.0,3.3808,0.0,0.0,3.5504,0.0,0.0,0.0,0.0,3.5504,3.5504,3.5504,3.5504,3.5504,3.5504,3.5504,0.0,3.5504,3.5504,3.5504,3.5504,3.5504,3.54,3.4743,3.3947,3.3027,3.165,3.0663,2.9795,2.8619,2.8266,2.8084,2.7263,2.704,2.7117,2.7391,2.7237,2.7249,2.8169,2.8764,2.9188,0.0,3.0351,3.1479,0.0,0.0,0.0,0.0,0.0,0.0,0.0,0.0,0.0,0.0,4.0845,0.0,0.0,4.3032,4.3515,4.3515,4.3515,0.0,0.0,0.0,4.3515,4.3515,4.3149,4.2378,4.1113,4.0763,3.9937,3.8707,3.8707,3.8707,3.8707,3.8707,3.8707,3.8707,3.8707,3.8707,3.8707,3.8707,3.8855,3.9107,3.9251,3.9634,4.0177,4.0814,4.1925,4.322,3.5164,3.6429,3.7158,3.652,3.7326,3.7084,3.4097,3.3628,3.3437,3.2928,3.3246,3.3322,3.2759,3.3208,3.3513,3.3513,3.3513,3.3513,3.3513,3.3513,3.3428,3.3313,3.3313,3.324,3.3124,3.2503,3.2872,0.0,3.3698,0.0,0.0,0.0,0.0,0.0,0.0,0.0,0.0,3.5504,3.5504,3.5504,3.5504,3.5504,3.5504,3.5504,3.5504,3.5504,3.5504,3.5504,3.5385,3.4607,3.3963,3.3227,3.1725,3.087,3.0299,2.9411,2.916,2.8971,2.8117,2.7855,2.7855,2.7855,2.7855,2.8185,2.9405,2.9776,2.9993,3.0452,3.0718,3.1119,3.1979,0.0,0.0,0.0,0.0,0.0,0.0,0.0,0.0,0.0,0.0,0.0,0.0,0.0,0.0,0.0,0.0,0.0,0.0,0.0,4.3515,4.3515,4.2708,4.1919,4.1113,4.0304,3.9496,3.8707,3.8707,3.8707,3.8707,3.8707,3.8707,3.8707,3.8707,3.8707,3.8707,3.8707,3.8844,3.909,3.942,3.9701,3.9963,4.0012,4.1303,4.3148,3.7845,3.7644,0.0,3.7495,3.7431,3.7152,3.6579,3.647,3.643,3.6361,3.5953,3.5614,3.5505,3.5586,3.5654,3.5654,3.5654,0.0,0.0,0.0,0.0,3.447,3.4428,3.3995,3.3124,3.2503,3.2872,0.0,0.0,3.4122,3.5504,0.0,0.0,0.0,0.0,0.0,3.5504,3.5504,0.0,3.5504,3.5504,3.5504,3.5504,3.5504,3.5504,3.5504,3.5504,3.5504,3.531,3.4083,3.3589,3.3245,3.1886,3.1367,3.1117,3.0299,3.0072,2.9889,2.9002,2.878,2.878,2.878,2.878,2.8839,2.9063,2.9704,3.0242,3.0342,3.1326,3.2224,3.2391,0.0,0.0,0.0,0.0,0.0,0.0,0.0,0.0,0.0,0.0,4.1133,0.0,0.0,0.0,0.0,0.0,0.0,0.0,0.0,4.3515,0.0,4.2708,4.1919,0.0,0.0,3.9496,3.8707,3.8707,3.8707,3.8707,3.8707,3.8707,3.8707,3.8707,3.8707,3.8707,3.8707,3.8719,3.8788,3.9077,3.9212,3.9302,3.9587,4.0967,4.2738,3.9602,0.0,0.0,0.0,3.9785,3.9917,3.9917,3.9588,3.8735,3.7004,3.6445,3.6087,3.5836,3.6018,3.6198,3.6198,3.6198,3.6198,3.6198,3.6198,3.5974,3.5507,3.548,3.5238,3.4719,3.4429,3.4562,3.5127,0.0,3.4957,3.5504,3.5504,0.0,0.0,0.0,3.5504,0.0,0.0,0.0,3.5504,3.5504,3.5504,3.5504,3.5504,3.5504,3.5504,3.5504,3.5504,3.5355,3.4337,3.3784,3.332,3.2318,3.178,3.1409,3.1029,3.0925,3.0748,2.9889,2.9659,2.9659,2.9659,2.9659,2.9697,2.9763,3.009,3.0411,3.0411,3.0966,3.1689,3.2377,3.3051,0.0,0.0,0.0,0.0,0.0,0.0,3.7921,0.0,0.0,0.0,0.0,0.0,0.0,0.0,0.0,4.3515,4.3515,0.0,4.3515,0.0,0.0,0.0,4.1095,0.0,3.9074,3.8707,3.8707,3.8707,3.8707,3.8707,3.8707,3.8707,3.8707,3.8707,3.8704,3.884,3.8909,3.8923,3.9049,3.9112,3.9125,3.9276,4.0349,4.1822,4.1018,4.1765,0.0,4.1527,4.1961,4.2396,4.2396,4.1841,4.0436,3.7806,3.7137,3.6708,3.6296,3.661,3.6877,3.6877,3.6877,3.6877,3.6877,3.6877,3.676,3.6565,3.6526,3.6448,3.6198,3.6198,3.6151,0.0,0.0,0.0,3.5714,3.5564,0.0,0.0,0.0,0.0,0.0,0.0,3.5504,3.5504,3.5504,3.5504,3.5504,3.5504,3.5504,3.5504,3.5504,3.5504,3.5429,3.4876,3.4262,3.3559,3.2766,3.2123,3.169,3.154,3.1511,3.1351,3.0748,3.0554,3.0554,3.0554,3.0554,3.0543,3.0501,3.0507,3.0462,3.0342,3.0417,3.0911,3.2258,3.2931,0.0,0.0,0.0,0.0,0.0,0.0,0.0,0.0,0.0,0.0,4.1686,0.0,0.0,0.0,0.0,4.3515,4.3515,4.3515,4.3515,0.0,0.0,4.1095,4.1095,0.0,3.8707,3.8707,3.8707,3.8707,3.8707,3.8707,3.8707,3.8707,3.8707,3.8735,3.8803,3.9008,3.9133,3.9218,3.9218,3.9147,3.9112,3.9112,3.9819,4.0964,0.0,0.0,4.2186,4.1527,4.1961,4.2396,4.2396,4.1841,4.1287,4.0963,3.9869,3.9075,3.9015,3.906,3.9104,3.9104,3.9104,3.9104,3.9104,3.9104,3.8657,3.7715,3.7663,3.719,3.6237,3.6198,3.6385,0.0,0.0,3.6085,0.0,3.5789,0.0,0.0,0.0,0.0,0.0,3.5504,3.5504,3.5504,3.5504,3.5504,3.5504,3.5504,3.5504,3.5504,3.5504,3.5504,3.5489,3.5429,3.4951,3.4158,3.2901,3.2452,3.2273,3.1675,3.1511,3.1467,3.1409,3.138,3.138,3.138,3.138,3.123,3.0629,3.0507,3.0342,2.9789,3.0118,3.0911,3.2258,3.2583,3.3107,0.0,0.0,0.0,0.0,0.0,3.8553,3.7863,0.0,0.0,4.1686,4.181,0.0,0.0,4.3515,4.3515,4.3515,4.3515,4.3515,4.3515,4.1937,4.1095,4.1095,3.9515,3.8707,3.8707,3.8707,3.8707,3.8707,3.8707,3.8707,3.8707,3.8707,3.8844,3.9058,3.9085,3.9276,3.9552,3.9552,3.9364,3.9112,3.9112,3.9661,4.0609,0.0,0.0,4.244,4.2521,0.0,0.0,0.0,4.2058,4.1422,4.1422,4.0232,3.9388,3.9388,3.9388,3.9388,3.9388,3.9388,3.9388,3.9388,3.9388,3.9228,3.8782,3.8745,3.8546,3.813,3.813,3.801,0.0,0.0,0.0,0.0,0.0,0.0,0.0,0.0,3.5504,3.5504,3.5504,3.5504,3.5504,3.5504,3.5504,3.5504,3.5504,3.5504,3.5504,3.5504,3.5504,3.5504,3.5504,3.504,3.4414,3.3858,3.3425,3.2976,3.2288,3.2093,3.2004,3.1615,3.1511,3.1511,3.1511,3.1511,3.1227,3.0193,2.9953,2.9895,2.9596,3.0701,3.1862,3.2395,3.3211,3.3862,3.4004,0.0,0.0,0.0,0.0,0.0,3.8497,0.0,3.987,0.0,0.0,0.0,0.0,0.0,4.3515,4.3515,4.3515,4.3515,4.3515,0.0,4.1095,4.1095,3.9515,3.8707,3.8707,3.8707,3.8707,3.8707,3.8707,3.8707,3.8707,3.8707,3.884,3.9112,3.9112,3.9289,3.9599,3.9599,3.9529,3.9377,3.916,3.9317,3.9869,4.329,0.0,4.2791,0.0,4.2955,4.2806,4.3215,4.2387,4.1632,4.1452,4.0397,3.9634,3.9403,3.9388,3.9388,3.9388,3.9388,3.9388,3.9388,3.9388,3.9388,3.9388,3.9388,0.0,3.9388,3.9388,3.9185,3.8691,3.8018,0.0,0.0,0.0,0.0,0.0,3.5504,3.5504,3.5504,3.5504,3.5504,3.5504,3.5504,3.5504,3.5504,3.5504,3.5504,3.5537,3.5765,3.5799,3.5863,3.6116,3.5687,3.5043,3.4626,3.4189,3.3649,3.2991,3.2796,3.2642,3.1973,3.1819,3.1768,3.1553,3.1511,3.1167,2.9879,2.9606,2.9584,2.9498,3.0777,3.2004,3.2419,3.346,3.4256,3.421,0.0,0.0,0.0,3.8001,0.0,3.8935,3.9158,3.9696,4.0591,4.0895,0.0,0.0,0.0,0.0,4.3496,4.3277,0.0,0.0,0.0,0.0,4.0763,3.9386,3.8707,3.8707,3.8707,3.8707,3.8707,3.8707,3.8707,3.8707,3.8707,3.884,3.9112,3.9112,3.9289,3.9611,3.972,3.9679,3.9587,3.9438,3.9327,3.9527,4.329,4.329,4.329,4.329,4.329,4.329,4.329,4.2776,4.2156,4.1512,4.0801,4.0142,3.9448,3.9388,3.9388,3.9388,3.9388,3.9388,3.9388,3.9388,3.9388,0.0,0.0,3.9388,3.9388,3.9388,3.9388,3.9373,0.0,0.0,3.7375,0.0,3.5504,3.5504,3.5504,3.5504,3.5504,3.5504,3.5504,3.5504,3.5504,3.5504,3.5504,3.5504,3.5504,3.5587,3.6337,3.6584,3.6707,3.7515,3.7233,3.6338,3.4935,3.4503,3.4369,3.3679,3.3497,3.3336,3.2689,3.2538,3.241,3.1682,3.1511,3.1167,2.9879,2.9606,2.9584,2.9498,2.9981,3.0863,3.2228,3.3064,3.3992,3.5432,0.0,0.0,0.0,3.9116,0.0,3.8989,3.9594,4.0294,4.0839,4.1429,0.0,0.0,0.0,0.0,0.0,0.0,0.0,4.2304,4.0744,0.0,3.99,3.9111,3.8707,3.8707,3.8707,3.8707,3.8707,3.8707,3.8707,3.8707,3.8707,3.884,3.9112,3.9112,3.9289,3.9634,3.9953,3.9891,3.9634,3.9972,3.988,3.9872,4.329,4.329,4.329,4.329,4.329,4.329,4.329,4.2776,4.2171,4.1512,4.0816,4.0142,3.9448,3.9388,3.9388,0.0,3.9388,3.9388,0.0,3.9388,3.9388,3.9388,3.9388,3.9388,3.9388,3.9388,3.9388,3.9388,0.0,0.0,0.0,3.5908,3.5504,3.5504,3.5504,3.5504,3.5504,3.5504,3.5504,3.5504,3.5504,3.5504,3.5504,3.5504,3.5504,3.5537,3.575,3.6165,3.6646,3.6919,3.7189,3.732,3.6878,3.6366,3.5815,3.514,3.5317,3.5478,3.4313,3.4013,3.3863,3.3123,3.2944,3.2591,3.1243,3.0551,3.0136,3.0109,3.1378,3.258,3.3023,3.4119,3.5092,3.5562,3.6902,0.0,3.786,0.0,3.9834,3.9059,3.9185,3.9333,3.9323,4.0362,0.0,0.0,0.0,0.0,0.0,0.0,0.0,0.0,4.0451,0.0,3.99,3.9093,3.8707,3.8707,3.8707,3.8788,3.8971,3.8971,3.8971,3.8971,3.8971,3.8923,3.8829,3.8829,3.9004,3.9264,3.9377,3.9634,3.9922,3.9797,3.9848,4.02,4.329,4.329,4.329,4.329,4.329,4.329,4.329,4.2985,4.2402,4.1542,4.1025,4.0427,3.9514,3.9388,0.0,3.9388,3.9388,3.9388,3.9388,3.9388,3.9388,3.9388,3.9388,3.9388,3.9388,3.9388,0.0,3.9388,3.8482,3.7494,3.6477,3.5804,3.5504,3.5504,3.5504,3.5504,3.5504,3.5504,3.5504,3.5504,3.5504,3.5504,3.5504,3.5504,3.5668,3.5943,3.6258,3.6844,3.7496,3.7815,3.8032,3.8218,3.8218,3.786,3.7329,3.6625,3.6772,3.6864,3.5466,3.51,3.4843,3.3835,3.3582,3.3304,3.221,3.1581,3.1195,3.1195,3.2376,3.3491,3.3761,3.4573,3.5385,3.596,3.7094,3.8007,3.8278,0.0,4.0136,0.0,0.0,0.0,0.0,4.0046,4.0951,0.0,0.0,0.0,0.0,0.0,4.0948,4.0671,3.9863,3.9441,3.9441,3.8946,3.8707,3.8707,3.8707,3.8788,3.8961,3.9044,3.9112,3.9112,3.9225,3.9197,3.9022,3.8898,3.8947,3.9112,3.9112,3.9426,3.9901,3.9819,4.0193,4.0929,4.329,4.329,4.329,4.329,4.329,4.329,4.329,4.329,4.288,4.1609,4.1444,4.095,3.9634,3.9448,3.9433,3.9388,0.0,0.0,3.9388,3.9388,3.9388,3.9388,3.9388,3.9388,3.9388,3.9388,3.9394,3.9313,3.8048,3.709,3.6477,3.5804,3.5504,3.5504,3.5504,3.5504,3.5504,3.5504,3.5504,3.5504,3.5504,3.5504,3.5504,3.5554,3.6006,3.6707,3.7515,3.8274,3.9016,3.9756,3.9558,3.8989,3.8989,3.8989,3.8827,3.8092,3.7903,3.7666,3.6292,3.5929,3.5597,3.4187,3.3758,3.3524,3.2891,3.2655,3.2578,3.2578,3.3054,3.3694,3.437,3.4617,3.5186,3.6627,3.7549,3.8336,3.9016,4.0191,4.0654,0.0,0.0,0.0,3.9685,4.033,4.1044,0.0,0.0,0.0,0.0,0.0,4.0653,3.9827,3.9093,3.8707,3.8707,3.8707,3.8707,3.8707,3.8707,3.8723,3.8735,3.8985,3.9125,3.9147,3.945,3.9599,3.9576,3.9264,3.9125,3.9093,3.9139,3.9327,3.9634,3.9982,4.0814,4.1923,0.0,0.0,4.329,4.329,4.329,4.329,4.329,4.329,4.3045,4.2276,4.2171,4.1662,4.0307,4.0172,3.9963,3.9433,3.9388,3.9388,3.9388,3.9388,3.9388,3.9388,3.9388,3.9388,3.9388,3.9388,3.9155,3.8631,3.7808,3.709,3.6477,3.5804,3.5504,3.5504,3.5504,3.5504,3.5504,3.5504,3.5504,3.5504,3.5504,3.5504,3.5554,3.6149,3.6446,3.6707,3.7515,3.8274,3.8935,3.9113,3.9463,3.9808,3.9808,3.9808,3.9662,3.887,3.9067,3.9362,3.8447,3.8204,3.7866,3.6413,3.5206,3.4309,3.4169,3.3691,3.3274,3.3274,3.3785,3.4286,3.4455,3.5801,3.6999,3.734,3.8889,4.0112,4.027,4.0524,4.0412,0.0,3.9511,3.9511,3.9532,4.057,4.1312,0.0,0.0,4.1479,4.0249,4.0175,3.9827,3.9019,3.8799,3.8707,3.8707,3.8707,3.8707,3.8707,3.8707,3.8818,3.9013,3.9072,3.9238,3.9493,3.9564,3.9599,3.9599,3.9498,3.9327,3.9139,3.9377,3.9541,3.9634,3.9982,4.0814,4.1923,4.329,4.329,4.329,4.329,4.329,4.329,4.329,4.329,4.309,4.2485,4.2396,4.1901,4.0546,4.0397,4.0127,3.9448,3.9388,3.9388,3.9388,3.9388,3.9388,3.9388,3.9388,3.9388,3.9388,3.9388,3.908,3.8392,3.8033,3.7389,3.6477,3.6118,3.5789,3.5504,3.5504,3.5504,3.5537,3.5863,3.6006,3.6023,3.6399,3.6337,3.6086,3.6874,3.716,3.7233,3.8019,3.8789,3.9463,3.9463,3.9756,4.0096,4.0096,4.0096,4.002,3.9584,3.9756,3.9943,3.9191,3.8988,3.8633,3.7168,3.6202,3.5509,3.5158,3.4751,3.4468,3.4468,3.4734,3.5013,3.5013,3.6217,3.7421,3.8014,3.9006,3.9947,4.0568,4.0524,4.0126,3.9362,3.9273,3.9273,3.9273,3.9912,4.0492,4.0816,4.1063,0.0,3.9937,3.9551,3.9148,3.8707,3.8707,3.8707,3.8707,3.8707,3.8707,3.8707,3.8707,3.8777,3.8923,3.9049,3.9199,3.9377,3.9541,3.9599,3.9599,3.9599,3.9486,3.9339,3.9541,3.969,3.9897,4.0451,4.1388,4.2508,4.329,4.329,4.329,4.329,4.329,4.329,4.329,4.329,4.3135,4.262,4.2545,4.2051,4.0696,4.0546,4.0247,3.9484,3.9388,3.9388,3.9388,3.9388,3.9388,3.9388,3.9388,3.9388,3.9388,3.9388,3.908,3.8392,3.8392,3.7734,3.6492,3.6492,3.6133,3.5504,3.5619,3.5668,3.5733,3.6446,3.6783,3.6843,3.7515,3.7397,3.6873,3.7645,3.7978,3.8064,3.8799,3.9516,4.0096,4.0096,4.0096,4.0096,4.0096,4.0096,4.0096,4.0096,4.0096,3.996,3.9351,3.9073,3.8667,3.732,3.688,3.6592,3.5769,3.56,3.56,3.56,3.5701,3.5769,3.5769,3.6593,3.7632,3.8812,3.9112,3.9588,4.0694,0.0,4.004,3.9245,3.9081,3.9045,3.9137,3.9189,3.9478,4.0113,4.0002,3.9845,3.9717,3.9074,3.8707,3.8707,3.8707,3.8707,3.8707,3.8707,3.8707,3.8707,3.8707,3.8707,3.8707,3.8952,3.9058,3.9125,3.9389,3.9552,3.9599,3.9656,3.9645,3.9611,3.9701,3.9901,4.0196,4.1065,4.2114,4.322,4.329,4.329,4.329,4.329,4.329,4.329,4.329,4.329,4.326,4.3155,4.314,4.2686,4.1369,4.1235,4.0741,3.9493,3.9388,3.9388,3.9388,3.9388,3.9388,3.9388,3.9388,3.9388,3.9388,3.9388,3.908,3.8392,3.8392,3.7734,3.6492,3.6492,3.6133,3.5537,3.6134,3.6446,3.6477,3.7279,3.7602,3.7632,3.7764,3.7735,3.769,3.8442,3.8745,3.8827,3.9636,3.9978,4.0096,4.0096,4.0096,4.0096,4.0096,4.0096,4.0096,4.0096,4.0096,4.0079,3.996,3.9462,3.8802,3.7939,3.7246,3.6592,3.5769,3.56,3.56,3.56,3.6146,3.6626,3.6626,3.8094,3.9572,4.0285,4.1339,4.2059,4.203,0.0,4.0667,3.9859,3.9182,3.9017,3.9713,3.9768,3.9823,3.9951,3.9923,3.9588,3.8927,3.8781,3.8707,3.8707,3.8707,3.8707,3.8707,3.8707,3.8707,3.8707,3.8707,3.8707,3.8707,3.8732,3.8898,3.9093,3.9165,3.9327,3.9622,3.9901,3.9859,3.9656,4.0166,4.0258,4.0225,4.1325,4.2302,4.322,4.4105,4.3654,4.329,4.329,4.329,4.3472,4.4043,4.3669,4.3472,4.4043,4.363,4.2796,4.1519,4.1422,4.0846,3.9529,3.9388,3.9388,3.9388,3.9388,3.9388,3.9388,3.9388,3.9388,3.9388,3.9388,3.926,3.8945,3.8945,3.8272,3.6985,3.6985,3.6447,3.5504,3.5863,3.6228,3.663,3.7456,3.8035,3.8414,3.8859,3.8761,3.8469,3.9236,3.9289,3.9005,3.9808,4.0096,4.0096,4.0096,4.0096,4.0096,4.0096,4.0096,4.0096,4.0096,4.0096,4.0096,4.0096,3.9859,3.9436,3.8667,3.7939,3.7178,3.6417,3.6139,3.6032,3.6032,3.6913,3.7665,3.7665,3.9097,4.0479,4.1048,4.1622,4.1923,4.1705,4.0965,4.0157,3.935,3.8927,3.8854,3.9221,3.9239,3.9239,3.9239,3.9239,3.9093,3.8726,3.8707,3.8707,3.8707,3.8707,3.8707,3.8707,3.8707,3.8707,3.8707,3.8707,3.8707,3.8707,3.8707,3.8777,3.8865,3.8865,3.8966,3.9154,3.963,3.9742,3.9668,4.0266,4.0414,4.0483,4.1948,4.2758,4.3278,4.4849,4.4182,4.3669,4.3669,4.3669,4.3989,4.4968,4.4457,4.4228,4.5005,4.4457,4.3396,4.1904,4.173,4.1091,3.9529,3.9388,3.9388,3.9388,3.9388,3.9388,3.9388,3.9388,3.9388,3.9388,3.9388,3.9388,3.9388,3.9388,3.8811,3.7629,3.7479,3.6806,3.5729,3.5744,3.618,3.6934,3.7703,3.8486,3.9236,3.9833,3.9731,3.9262,3.9859,3.9731,3.9262,3.9876,4.0096,4.0096,4.0096,4.0096,4.0096,4.0096,4.0096,4.0096,4.0096,4.0096,4.0096,4.0096,4.0096,3.9926,3.9174,3.8447,3.7726,3.7109,3.6685,3.6489,3.6806,3.782,3.8717,3.8894,4.0028,4.1134,4.1681,0.0,4.156,4.1157,4.0579,3.9808,3.8817,3.8707,3.8707,3.8707,3.8707,3.8707,3.8707,3.8707,3.8707,3.8707,3.8762,3.8788,3.8788,3.8735,3.8707,3.8707,3.8762,3.8762,3.8707,3.8762,3.8762,3.8707,3.8707,3.8707,3.8707,3.8707,3.8735,3.8829,3.9389,3.9645,3.9775,4.0283,4.0631,4.0989,4.2527,4.322,4.3585,4.4983,4.4737,4.4699,4.4699,4.4699,4.5005,4.5941,4.6032,4.5996,4.6083,4.6032,4.5152,4.2947,4.27,4.1832,3.9601,3.9388,3.9388,3.9388,3.9388,3.9388,3.9388,3.9388,3.9388,3.9388,3.9388,3.9388,3.9388,3.9388,3.9035,3.8302,3.7689,3.7045,3.642,3.6503,3.698,3.7748,3.8497,3.9289,4.002,4.007,4.007,4.002,4.007,4.007,4.002,4.007,4.0096,4.0096,4.0096,4.0096,4.0096,4.0096,4.0096,4.0096,4.0096,4.0096,4.0096,4.0096,4.0096,3.9926,3.9174,3.8447,3.7827,3.7516,3.689,3.6751,3.8011,3.8872,3.9653,4.0385,4.1197,4.1911,4.2508,0.0,0.0,4.1231,4.104,4.0435,3.8891,3.8707,3.8707,3.8707,3.8707,3.8707,3.8707,3.8707,3.8707,3.8707,3.8952,3.9072,3.9072,3.8829,3.8707,3.8707,3.8947,3.8947,3.8707,3.8947,3.8933,3.8707,3.8707,3.8707,3.8707,3.8707,3.8844,3.9099,3.9438,3.9786,4.0101,4.0381,4.0989,4.1816,4.2758,4.3566,4.4335,4.6609,4.5613,4.4983,4.5561,4.519,4.5322,4.685,4.6558,4.6419,4.6986,4.6558,4.554,4.3809,4.3598,4.2892,4.1153,4.0995,4.0758,4.0239,4.022,3.9955,3.9409,3.9388,3.9388,3.9388,3.9388,3.9388,3.9388,3.9388,3.9065,3.8377,3.8138,3.7674,3.7079,3.764,3.8341,3.9129,3.9474,4.0067,4.073,4.0282,4.0096,4.0096,4.0096,4.0096,4.0096,4.0096,4.0096,4.0096,4.0096,4.0096,4.0096,4.0096,4.0096,4.0096,4.0096,4.0096,4.0096,4.0096,4.0096,4.0028,3.9757,3.9123,3.8649,3.8858,3.8618,3.8556,3.9402,4.0474,4.1325,4.1633,4.1923,4.2177,4.2413,0.0,4.1388,4.0474,4.0359,3.9937,3.8836,3.8707,3.8707,3.8707,3.8707,3.8707,3.8707,3.8707,3.8777,3.8933,3.9231,3.9401,3.9401,3.9314,3.9078,3.8707,3.8975,3.9049,3.8947,3.9257,3.9244,3.8947,3.8947,3.8855,3.8707,3.8707,3.884,3.9139,3.945,4.0081,4.0874,4.1195,4.1835,4.272,4.3547,4.4047,4.4412,4.7655,4.6539,4.5885,4.6539,4.6119,4.6205,4.7803,4.7473,4.7306,4.795,4.7489,4.6449,4.4721,4.4527,4.3863,4.2158,4.1997,4.1739,4.1147,4.1113,4.0603,3.9445,3.9388,3.9553,3.9793,3.9793,3.9935,4.0235,3.9935,3.9587,3.9117,3.8622,3.8138,3.7738,3.8409,3.9157,3.9914,4.0287,4.0877,4.1474,4.073,4.0468,4.0434,4.0197,4.0096,4.0096,4.0096,4.0096,4.0096,4.0096,4.0096,4.0096,4.0096,4.0096,4.0096,4.0096,4.0096,4.0096,4.0096,4.0096,4.0096,4.0096,3.9554,3.9173,3.9884,3.9768,3.9781,4.0727,4.1661,4.2378,4.2635,4.247,4.2304,4.2304,4.1625,4.0836,4.001,3.99,3.9588,3.8799,3.8707,3.8707,3.8707,3.8707,3.8707,3.8707,3.8707,3.8859,3.9244,3.9377,3.9541,3.9754,3.9656,3.9402,3.8984,3.9275,3.9352,3.9251,3.9599,3.9587,3.9251,3.9152,3.8999,3.8833,3.9106,3.9393,3.9701,4.0294,4.1066,4.1886,4.2123,4.2739,4.3547,4.4105,4.447,4.4778,4.7803,4.7622,4.7589,4.7622,4.7589,4.7917,4.8861,4.9001,4.9001,4.9001,4.9001,4.8116,4.5785,4.5509,4.4571,4.2222,4.2029,4.2029,4.1997,4.1997,4.1229,3.9517,3.9409,3.9829,4.069,4.0724,4.1147,4.1997,4.1147,4.0724,4.0675,3.9117,3.8427,3.8432,3.8624,3.9157,3.9993,4.0856,4.1627,4.2236,4.1508,4.1221,4.1136,4.04,4.0113,4.0113,4.0096,4.0096,4.0096,4.0096,4.0096,4.0096,4.0096,4.0096,4.0096,4.0096,4.0096,4.0096,4.0096,4.0096,4.0096,4.0096,3.9554,3.9293,4.0362,4.0055,4.0057,4.1916,4.2304,4.2543,4.3349,4.2837,4.2304,4.2286,4.1625,4.0802,3.9992,3.9882,3.9588,3.8799,3.8707,3.8707,3.8707,3.8707,3.8707,3.8707,3.8707,3.8956,3.9564,3.9295,3.9401,4.0081,3.9775,3.9611,3.9611,3.9932,3.9932,3.9611,3.9932,3.9922,3.9599,3.9251,3.9112,3.9168,4.0034,4.0602,4.1009,4.2134,4.2795,4.3104,4.3104,4.3605,4.4316,4.4316,4.4855,4.5594,4.8656,4.8047,4.7803,4.8482,4.8047,4.7917,4.8861,4.9001,4.9001,4.9001,4.9001,4.8537,4.7298,4.6727,4.5932,4.4693,4.4127,4.3575,4.2939,4.2332,4.1772,4.1262,4.1213,4.1362,4.1609,4.1609,4.1739,4.1997,4.1739,4.1313,4.0675,4.0216,4.0021,4.0055,4.0728,4.1499,4.2299,4.261,4.2873,4.3014,4.2269,4.1965,4.188,4.1153,4.0865,4.0798,4.0299,4.0096,4.0096,4.0096,4.0096,4.0096,4.0096,4.0096,4.0096,4.0096,4.0096,4.0096,4.0096,4.0096,4.0096,4.0096,3.9943,3.9938,4.0643,4.0981,4.1398,4.2391,4.2885,4.3222,4.346,4.2837,4.2121,4.1535,4.0781,3.9974,3.9166,3.9056,3.8964,3.8726,3.8707,3.8707,3.8707,3.8707,3.8707,3.8707,3.8869,3.9049,3.9238,3.9599,3.9891,4.0091,4.0185,4.0239,4.0239,4.0129,4.0042,3.9943,4.025,4.0232,3.9962,3.9859,4.0019,4.0377,4.0641,4.1267,4.2115,4.2465,4.3139,4.3932,4.3932,4.4451,4.521,4.521,4.5383,4.5594,4.9001,4.8545,4.8321,4.8892,4.8545,4.8338,4.8892,4.9001,4.9001,4.9001,4.9001,4.8612,4.7581,4.7344,4.6701,4.5382,4.4869,4.4384,4.3844,4.332,4.3031,4.3031,4.3031,4.2862,4.252,4.252,4.2676,4.3031,4.2676,4.2252,4.1739,4.1379,4.1213,4.1247,4.2125,4.2816,4.335,4.3692,4.3876,4.3809,4.3047,4.2743,4.2625,4.1593,4.1204,4.1102,4.0367,4.0096,4.0096,4.0096,4.0096,4.0096,4.0096,4.0096,4.0096,4.0096,4.0096,4.0096,4.0096,4.0096,4.0146,4.0368,4.0254,4.0286,4.1064,4.1534,4.2041,4.2846,4.3268,4.3515,4.3515,4.2837,4.2047,4.1224,4.0414,3.9625,3.8817,3.8707,3.8707,3.8707,3.8707,3.8707,3.8707,3.8707,3.8707,3.8707,3.884,3.8985,3.9099,3.9474,3.9765,3.9901,4.0185,4.0347,4.0347,4.0295,4.0269,4.025,4.0414,4.0425,4.0269,4.0473,4.0745,4.1089,4.1794,4.2482,4.3155,4.3599,4.4182,4.4797,4.4797,4.5152,4.5594,4.5594,4.5513,4.5419,4.9001,4.9001,4.9001,4.9001,4.9001,4.9001,4.9001,4.9001,4.9001,4.9001,4.9001,4.8494,4.7141,4.7547,4.7073,4.4987,4.4682,4.4615,4.4615,4.4615,4.4615,4.4615,4.4615,4.4224,4.3426,4.3413,4.3814,4.4615,4.3814,4.3366,4.3276,4.2489,4.2125,4.2157,4.2956,4.3336,4.3472,4.4253,4.4615,4.4547,4.3809,4.3521,4.3341,4.1948,4.1373,4.1204,4.0468,4.0163,4.0096,4.0096,4.0096,4.0096,4.0096,4.0096,4.0096,4.0096,4.0096,4.0096,4.0096,4.0146,4.0286,4.078,4.0577,4.0538,4.1556,4.1853,4.2165,4.3214,4.348,4.3515,4.3515,4.2892,4.2139,4.1334,4.0524,3.9735,3.8927,3.8762,3.8707,3.8707,3.8707,3.8707,3.8707,3.8707,3.8707,3.8707,3.8707,3.8818,3.9063,3.9085,3.9238,3.9552,3.988,4.0061,4.0061,4.0339,4.0473,4.0496,4.0496,4.0496,4.0527,4.1092,4.1389,4.1542,4.3223,4.3978,4.4132,4.5168,4.5577,4.5559,4.5559,4.555,4.5513,4.5513,4.5332,4.5159,4.9001,4.9001,4.9001,4.9001,4.9001,4.9001,4.9001,4.9001,4.9001,4.9001,4.9001,4.8883,4.8562,4.8156,4.7479,4.6413,4.5275,4.4615,4.4615,4.4615,4.4615,4.4615,4.4615,4.4514,4.4327,4.4327,4.4412,4.4615,4.4412,4.3977,4.3306,4.3108,4.3017,4.3017,4.3216,4.3697,4.4327,4.4514,4.4615,4.4581,4.4401,4.4333,4.4231,4.3284,4.2574,4.1965,4.1221,4.0578,4.0096,4.0096,4.0096,4.0096,4.0096,4.0096,4.0096,4.0096,4.0096,4.0096,4.0096,4.0417,4.0756,4.0856,4.1155,4.1508,4.1729,4.2162,4.2559,4.2808,4.3214,4.3515,4.3515,4.3368,4.2983,4.2176,4.1352,4.0561,3.9753,3.9093,3.8707,3.8707,3.8707,3.8707,3.8707,3.8707,3.8707,3.8707,3.8707,3.8719,3.8773,3.8985,3.912,3.9218,3.9541,3.972,3.972,4.0032,4.0285,4.0496,4.0496,4.0496,4.0535,4.1325,4.2049,4.2768,4.3785,4.4601,4.5263,4.55,4.5457,4.5211,4.5211,4.5052,4.4806,4.4806,4.4931,4.5159,4.9001,4.9001,4.9001,4.9001,4.9001,4.9001,4.9001,4.9001,4.9001,4.9001,4.9001,4.8883,4.8528,4.846,4.8003,4.6887,4.5771,4.4976,4.4632,4.4615,4.4615,4.4615,4.4615,4.4615,4.4615,4.4615,4.4615,4.4615,4.4615,4.4355,4.3902,4.3902,4.3902,4.3902,4.3902,4.4167,4.4615,4.4615,4.4615,4.4615,4.4615,4.4615,4.4479,4.3318,4.2642,4.2151,4.1068,4.0434,4.0096,4.0096,4.0096,4.0096,4.0096,4.0096,4.0096,4.0096,4.0096,4.0171,4.0417,4.0679,4.1041,4.1621,4.2018,4.2223,4.2223,4.248,4.2769,4.3032,4.3303,4.3515,4.3515,4.3515,4.3239,4.2433,4.1956,4.1258,4.0065,3.9533,3.9129,3.8762,3.8707,3.8707,3.8707,3.8707,3.8707,3.8707,3.8707,3.8707,3.8707,3.8829,3.8909,3.8909,3.9192,3.9352,3.9352,4.0065,4.0583,4.0877,4.1037,4.1123,4.1162,4.2412,4.3239,4.372,4.4547,4.519,4.5594,4.5594,4.541,4.5096,4.5096,4.4896,4.4606,4.4788,4.5052,4.5342,4.9001,4.9001,4.9001,4.9001,4.9001,4.9001,4.9001,4.9001,4.9001,4.9001,4.9001,4.8781,4.8142,4.8426,4.8189,4.7073,4.6075,4.5314,4.4835,4.4682,4.4666,4.4801,4.4682,4.4666,4.4801,4.4666,4.4615,4.4615,4.4615,4.4615,4.4615,4.4615,4.4615,4.4615,4.4615,4.4615,4.4615,4.4615,4.4615,4.4615,4.4615,4.4615,4.4462,4.3166,4.2608,4.2303,4.0976,4.0316,4.0096,4.0096,4.0096,4.0096,4.0096,4.0096,4.0096,4.0096,4.0096,4.0229,4.0756,4.0972,4.1335,4.2422,4.2769,4.2845,4.2845,4.2845,4.2958,4.341,4.3515,4.3515,4.3515,4.3515,4.3277,4.2598,4.2396,4.1791,4.0304,4.0102,3.9753,3.8817,3.8707,3.8707,3.8707,3.8707,3.8707,3.8707,3.8707,3.8707,3.8707,3.8707,3.8707,3.8707,3.8923,3.911,3.9226,4.0214,4.0925,4.1358,4.1829,4.204,4.2058,4.3605,4.4297,4.4355,4.5229,4.5594,4.5594,4.5594,4.541,4.5096,4.5096,4.4896,4.4631,4.4985,4.5243,4.541,4.9001,4.9001,4.9001,4.9001,4.9001,4.9001,4.9001,4.9001,4.9001,4.9001,4.9001,4.8968,4.8866,4.78,4.7276,4.7733,4.5906,4.4976,4.5517,4.4942,4.4874,4.5517,4.4925,4.4919,4.5551,4.4925,4.4615,4.4615,4.4615,4.4615,4.4615,4.4615,4.4615,4.4615,4.4615,4.4615,4.4615,4.4615,4.4615,4.4615,4.4615,4.4615,4.4581,4.4378,4.3859,4.3122,4.2286,4.1196,4.0096,4.0096,4.0096,4.0096,4.0096,4.0096,4.0096,4.0096,4.0096,4.0229,4.0756,4.1291,4.1835,4.2519,4.305,4.3392,4.3392,4.3392,4.341,4.3497,4.3515,4.3515,4.3515,4.3515,4.346,4.3368,4.2745,4.1992,4.1058,4.093,4.038,3.8891,3.8707,3.8707,3.8707,3.8707,3.8707,3.8707,3.8707,3.8707,3.8707,3.8707,3.8707,3.8707,3.8735,3.9078,3.9792,4.0183,4.077,4.1567,4.2605,4.3039,4.297,4.3874,4.4297,4.4355,4.5229,4.5594,4.5594,4.5594,4.541,4.5096,4.5096,4.4896,4.4631,4.4985,4.4943,4.4806,4.9001,4.9001,4.9001,4.9001,4.9001,4.9001,4.9001,4.9001,4.9001,4.9001,4.9001,4.9001,4.9001,4.8426,4.8003,4.7889,4.7022,4.6413,4.6312,4.6007,4.5788,4.5703,4.5382,4.5162,4.5077,4.4784,4.4615,4.4615,4.4615,4.4615,4.4615,4.4615,4.4615,4.4615,4.4615,4.4615,4.4615,4.4615,4.4615,4.4615,4.4615,4.4615,4.4564,4.4096,4.3724,4.324,4.21,4.0984,4.0096,4.0096,4.0096,4.0096,4.0096,4.0096,4.0096,4.0096,4.0096,4.0286,4.1173,4.1599,4.2021,4.2921,4.3321,4.3515,4.3515,4.3515,4.3515,4.3515,4.3515,4.3515,4.3515,4.3515,4.3515,4.3515,4.3185,4.269,4.1882,4.1772,4.135,4.0178,4.0031,3.9863,3.9405,3.9368,3.9184,3.8726,3.8707,3.8707,3.8707,3.8707,3.8909,3.935,3.9368,3.9753,4.0561,4.1141,4.1693,4.2265,4.3245,4.351,4.324,4.4089,4.4567,4.4767,4.515,4.5429,4.5594,4.5594,4.541,4.5096,4.5096,4.5019,4.4896,4.5052,4.5118,4.5192]}]]